<?xml version="1.0" encoding="UTF-8" standalone="no" ?>
<gpx xmlns="http://www.topografix.com/GPX/1/1" xmlns:xsi="http://www.w3.org/2001/XMLSchema-instance" xsi:schemaLocation="http://www.topografix.com/GPX/1/1 http://www.topografix.com/GPX/1/1/gpx.xsd" version="1.1" creator="VisuGPX - https://www.visugpx.com">
  <metadata>
    <name>Loix </name>
  </metadata>
  <trk>
    <name><![CDATA[Loix _1]]></name>
    <trkseg>
      <trkpt lat="46.22399" lon="-1.44082">
        <ele>5.2</ele>
        <time>2025-07-03T07:36:44Z</time>
      </trkpt>
      <trkpt lat="46.22402" lon="-1.44079">
        <ele>5.2</ele>
        <time>2025-07-03T07:36:47Z</time>
      </trkpt>
      <trkpt lat="46.22405" lon="-1.44076">
        <ele>5.2</ele>
        <time>2025-07-03T07:36:48Z</time>
      </trkpt>
      <trkpt lat="46.2241" lon="-1.44072">
        <ele>5.2</ele>
        <time>2025-07-03T07:36:51Z</time>
      </trkpt>
      <trkpt lat="46.22415" lon="-1.4407">
        <ele>5.6</ele>
        <time>2025-07-03T07:36:55Z</time>
      </trkpt>
      <trkpt lat="46.22417" lon="-1.44071">
        <ele>5.6</ele>
        <time>2025-07-03T07:36:57Z</time>
      </trkpt>
      <trkpt lat="46.22419" lon="-1.44074">
        <ele>5.4</ele>
        <time>2025-07-03T07:37:00Z</time>
      </trkpt>
      <trkpt lat="46.22422" lon="-1.44078">
        <ele>5.2</ele>
        <time>2025-07-03T07:37:03Z</time>
      </trkpt>
      <trkpt lat="46.22423" lon="-1.44079">
        <ele>5.2</ele>
        <time>2025-07-03T07:37:04Z</time>
      </trkpt>
      <trkpt lat="46.22424" lon="-1.44081">
        <ele>5</ele>
        <time>2025-07-03T07:37:05Z</time>
      </trkpt>
      <trkpt lat="46.22427" lon="-1.44091">
        <ele>4.8</ele>
        <time>2025-07-03T07:37:11Z</time>
      </trkpt>
      <trkpt lat="46.22432" lon="-1.44109">
        <ele>4.8</ele>
        <time>2025-07-03T07:37:21Z</time>
      </trkpt>
      <trkpt lat="46.22433" lon="-1.44111">
        <ele>4.8</ele>
        <time>2025-07-03T07:37:22Z</time>
      </trkpt>
      <trkpt lat="46.22437" lon="-1.4412">
        <ele>5.2</ele>
        <time>2025-07-03T07:37:31Z</time>
      </trkpt>
      <trkpt lat="46.2244" lon="-1.44123">
        <ele>5</ele>
        <time>2025-07-03T07:37:39Z</time>
      </trkpt>
      <trkpt lat="46.22446" lon="-1.44134">
        <ele>5</ele>
        <time>2025-07-03T07:37:47Z</time>
      </trkpt>
      <trkpt lat="46.22448" lon="-1.44138">
        <ele>5</ele>
        <time>2025-07-03T07:37:50Z</time>
      </trkpt>
      <trkpt lat="46.22449" lon="-1.44141">
        <ele>5</ele>
        <time>2025-07-03T07:37:52Z</time>
      </trkpt>
      <trkpt lat="46.22453" lon="-1.44149">
        <ele>4.8</ele>
        <time>2025-07-03T07:37:57Z</time>
      </trkpt>
      <trkpt lat="46.22455" lon="-1.44154">
        <ele>4.8</ele>
        <time>2025-07-03T07:38:00Z</time>
      </trkpt>
      <trkpt lat="46.2246" lon="-1.44165">
        <ele>4.8</ele>
        <time>2025-07-03T07:38:06Z</time>
      </trkpt>
      <trkpt lat="46.22462" lon="-1.4417">
        <ele>4.8</ele>
        <time>2025-07-03T07:38:09Z</time>
      </trkpt>
      <trkpt lat="46.22467" lon="-1.44181">
        <ele>5</ele>
        <time>2025-07-03T07:38:16Z</time>
      </trkpt>
      <trkpt lat="46.22473" lon="-1.44198">
        <ele>5.4</ele>
        <time>2025-07-03T07:38:26Z</time>
      </trkpt>
      <trkpt lat="46.22478" lon="-1.44216">
        <ele>5.2</ele>
        <time>2025-07-03T07:38:36Z</time>
      </trkpt>
      <trkpt lat="46.22484" lon="-1.44233">
        <ele>5</ele>
        <time>2025-07-03T07:38:45Z</time>
      </trkpt>
      <trkpt lat="46.22487" lon="-1.44243">
        <ele>5</ele>
        <time>2025-07-03T07:38:52Z</time>
      </trkpt>
      <trkpt lat="46.22489" lon="-1.44248">
        <ele>4.8</ele>
        <time>2025-07-03T07:38:55Z</time>
      </trkpt>
      <trkpt lat="46.22493" lon="-1.4426">
        <ele>4.4</ele>
        <time>2025-07-03T07:39:01Z</time>
      </trkpt>
      <trkpt lat="46.22494" lon="-1.44265">
        <ele>4.2</ele>
        <time>2025-07-03T07:39:03Z</time>
      </trkpt>
      <trkpt lat="46.22495" lon="-1.44272">
        <ele>4.2</ele>
        <time>2025-07-03T07:39:07Z</time>
      </trkpt>
      <trkpt lat="46.22495" lon="-1.44273">
        <ele>4.2</ele>
        <time>2025-07-03T07:39:08Z</time>
      </trkpt>
      <trkpt lat="46.22499" lon="-1.44279">
        <ele>4.2</ele>
        <time>2025-07-03T07:39:12Z</time>
      </trkpt>
      <trkpt lat="46.225" lon="-1.44283">
        <ele>3.8</ele>
        <time>2025-07-03T07:39:14Z</time>
      </trkpt>
      <trkpt lat="46.22503" lon="-1.44289">
        <ele>4.2</ele>
        <time>2025-07-03T07:39:18Z</time>
      </trkpt>
      <trkpt lat="46.22505" lon="-1.44293">
        <ele>4.4</ele>
        <time>2025-07-03T07:39:20Z</time>
      </trkpt>
      <trkpt lat="46.22511" lon="-1.44305">
        <ele>4.2</ele>
        <time>2025-07-03T07:39:27Z</time>
      </trkpt>
      <trkpt lat="46.22512" lon="-1.44306">
        <ele>4</ele>
        <time>2025-07-03T07:39:28Z</time>
      </trkpt>
      <trkpt lat="46.22517" lon="-1.44315">
        <ele>4</ele>
        <time>2025-07-03T07:39:33Z</time>
      </trkpt>
      <trkpt lat="46.22517" lon="-1.44317">
        <ele>4.2</ele>
        <time>2025-07-03T07:39:34Z</time>
      </trkpt>
      <trkpt lat="46.22522" lon="-1.4433">
        <ele>4.2</ele>
        <time>2025-07-03T07:39:41Z</time>
      </trkpt>
      <trkpt lat="46.22524" lon="-1.44332">
        <ele>4</ele>
        <time>2025-07-03T07:39:42Z</time>
      </trkpt>
      <trkpt lat="46.22531" lon="-1.44343">
        <ele>4.2</ele>
        <time>2025-07-03T07:39:49Z</time>
      </trkpt>
      <trkpt lat="46.22532" lon="-1.44345">
        <ele>4.2</ele>
        <time>2025-07-03T07:39:50Z</time>
      </trkpt>
      <trkpt lat="46.22533" lon="-1.44348">
        <ele>4.2</ele>
        <time>2025-07-03T07:39:52Z</time>
      </trkpt>
      <trkpt lat="46.22536" lon="-1.44352">
        <ele>4.2</ele>
        <time>2025-07-03T07:39:55Z</time>
      </trkpt>
      <trkpt lat="46.22541" lon="-1.44361">
        <ele>4.4</ele>
        <time>2025-07-03T07:40:02Z</time>
      </trkpt>
      <trkpt lat="46.22548" lon="-1.44375">
        <ele>4.6</ele>
        <time>2025-07-03T07:40:09Z</time>
      </trkpt>
      <trkpt lat="46.22555" lon="-1.44391">
        <ele>4.6</ele>
        <time>2025-07-03T07:40:19Z</time>
      </trkpt>
      <trkpt lat="46.22556" lon="-1.44393">
        <ele>4.6</ele>
        <time>2025-07-03T07:40:20Z</time>
      </trkpt>
      <trkpt lat="46.22559" lon="-1.44401">
        <ele>4.8</ele>
        <time>2025-07-03T07:40:25Z</time>
      </trkpt>
      <trkpt lat="46.2256" lon="-1.44407">
        <ele>4.6</ele>
        <time>2025-07-03T07:40:27Z</time>
      </trkpt>
      <trkpt lat="46.22567" lon="-1.44424">
        <ele>4.8</ele>
        <time>2025-07-03T07:40:37Z</time>
      </trkpt>
      <trkpt lat="46.22575" lon="-1.44442">
        <ele>5</ele>
        <time>2025-07-03T07:40:47Z</time>
      </trkpt>
      <trkpt lat="46.22578" lon="-1.4445">
        <ele>5.2</ele>
        <time>2025-07-03T07:40:51Z</time>
      </trkpt>
      <trkpt lat="46.2258" lon="-1.44459">
        <ele>5</ele>
        <time>2025-07-03T07:40:56Z</time>
      </trkpt>
      <trkpt lat="46.22582" lon="-1.44467">
        <ele>5</ele>
        <time>2025-07-03T07:41:02Z</time>
      </trkpt>
      <trkpt lat="46.22583" lon="-1.44473">
        <ele>5</ele>
        <time>2025-07-03T07:41:04Z</time>
      </trkpt>
      <trkpt lat="46.22589" lon="-1.44493">
        <ele>5</ele>
        <time>2025-07-03T07:41:15Z</time>
      </trkpt>
      <trkpt lat="46.22594" lon="-1.44515">
        <ele>5.2</ele>
        <time>2025-07-03T07:41:27Z</time>
      </trkpt>
      <trkpt lat="46.226" lon="-1.44542">
        <ele>5.2</ele>
        <time>2025-07-03T07:41:39Z</time>
      </trkpt>
      <trkpt lat="46.22603" lon="-1.44566">
        <ele>5.4</ele>
        <time>2025-07-03T07:41:51Z</time>
      </trkpt>
      <trkpt lat="46.22607" lon="-1.44586">
        <ele>5.4</ele>
        <time>2025-07-03T07:42:01Z</time>
      </trkpt>
      <trkpt lat="46.22609" lon="-1.44608">
        <ele>5.2</ele>
        <time>2025-07-03T07:42:12Z</time>
      </trkpt>
      <trkpt lat="46.2261" lon="-1.44622">
        <ele>5.2</ele>
        <time>2025-07-03T07:42:19Z</time>
      </trkpt>
      <trkpt lat="46.22613" lon="-1.44637">
        <ele>5.2</ele>
        <time>2025-07-03T07:42:27Z</time>
      </trkpt>
      <trkpt lat="46.22616" lon="-1.44655">
        <ele>5.4</ele>
        <time>2025-07-03T07:42:36Z</time>
      </trkpt>
      <trkpt lat="46.22619" lon="-1.44678">
        <ele>5.2</ele>
        <time>2025-07-03T07:42:48Z</time>
      </trkpt>
      <trkpt lat="46.22621" lon="-1.44687">
        <ele>5</ele>
        <time>2025-07-03T07:42:53Z</time>
      </trkpt>
      <trkpt lat="46.22625" lon="-1.44692">
        <ele>4.8</ele>
        <time>2025-07-03T07:42:57Z</time>
      </trkpt>
      <trkpt lat="46.22628" lon="-1.44693">
        <ele>4.2</ele>
        <time>2025-07-03T07:43:00Z</time>
      </trkpt>
      <trkpt lat="46.22637" lon="-1.44695">
        <ele>4.4</ele>
        <time>2025-07-03T07:43:05Z</time>
      </trkpt>
      <trkpt lat="46.22638" lon="-1.44695">
        <ele>4.4</ele>
        <time>2025-07-03T07:43:06Z</time>
      </trkpt>
      <trkpt lat="46.22647" lon="-1.44696">
        <ele>4.8</ele>
        <time>2025-07-03T07:43:12Z</time>
      </trkpt>
      <trkpt lat="46.2266" lon="-1.44694">
        <ele>4.4</ele>
        <time>2025-07-03T07:43:21Z</time>
      </trkpt>
      <trkpt lat="46.22668" lon="-1.44694">
        <ele>4.4</ele>
        <time>2025-07-03T07:43:28Z</time>
      </trkpt>
      <trkpt lat="46.22683" lon="-1.44695">
        <ele>4</ele>
        <time>2025-07-03T07:43:37Z</time>
      </trkpt>
      <trkpt lat="46.22689" lon="-1.44695">
        <ele>4.2</ele>
        <time>2025-07-03T07:43:42Z</time>
      </trkpt>
      <trkpt lat="46.22696" lon="-1.44695">
        <ele>4.2</ele>
        <time>2025-07-03T07:43:46Z</time>
      </trkpt>
      <trkpt lat="46.22714" lon="-1.44697">
        <ele>4.4</ele>
        <time>2025-07-03T07:43:58Z</time>
      </trkpt>
      <trkpt lat="46.22729" lon="-1.44697">
        <ele>4.8</ele>
        <time>2025-07-03T07:44:09Z</time>
      </trkpt>
      <trkpt lat="46.2274" lon="-1.44697">
        <ele>5.2</ele>
        <time>2025-07-03T07:44:16Z</time>
      </trkpt>
      <trkpt lat="46.22745" lon="-1.44697">
        <ele>5</ele>
        <time>2025-07-03T07:44:19Z</time>
      </trkpt>
      <trkpt lat="46.22762" lon="-1.44697">
        <ele>5.2</ele>
        <time>2025-07-03T07:44:31Z</time>
      </trkpt>
      <trkpt lat="46.22773" lon="-1.44699">
        <ele>5</ele>
        <time>2025-07-03T07:44:38Z</time>
      </trkpt>
      <trkpt lat="46.22789" lon="-1.44699">
        <ele>5</ele>
        <time>2025-07-03T07:44:49Z</time>
      </trkpt>
      <trkpt lat="46.22797" lon="-1.447">
        <ele>5</ele>
        <time>2025-07-03T07:44:56Z</time>
      </trkpt>
      <trkpt lat="46.22796" lon="-1.44702">
        <ele>5</ele>
        <time>2025-07-03T07:45:00Z</time>
      </trkpt>
      <trkpt lat="46.22798" lon="-1.44703">
        <ele>5</ele>
        <time>2025-07-03T07:45:03Z</time>
      </trkpt>
      <trkpt lat="46.228" lon="-1.44702">
        <ele>5</ele>
        <time>2025-07-03T07:45:05Z</time>
      </trkpt>
      <trkpt lat="46.22809" lon="-1.44702">
        <ele>5.2</ele>
        <time>2025-07-03T07:45:12Z</time>
      </trkpt>
      <trkpt lat="46.22823" lon="-1.44703">
        <ele>5.4</ele>
        <time>2025-07-03T07:45:22Z</time>
      </trkpt>
      <trkpt lat="46.22832" lon="-1.44704">
        <ele>5.8</ele>
        <time>2025-07-03T07:45:29Z</time>
      </trkpt>
      <trkpt lat="46.22838" lon="-1.44704">
        <ele>6.4</ele>
        <time>2025-07-03T07:45:33Z</time>
      </trkpt>
      <trkpt lat="46.2284" lon="-1.44706">
        <ele>6.8</ele>
        <time>2025-07-03T07:45:35Z</time>
      </trkpt>
      <trkpt lat="46.22843" lon="-1.44707">
        <ele>7.2</ele>
        <time>2025-07-03T07:45:37Z</time>
      </trkpt>
      <trkpt lat="46.22845" lon="-1.44708">
        <ele>7.4</ele>
        <time>2025-07-03T07:45:39Z</time>
      </trkpt>
      <trkpt lat="46.22852" lon="-1.44711">
        <ele>8.4</ele>
        <time>2025-07-03T07:45:45Z</time>
      </trkpt>
      <trkpt lat="46.22853" lon="-1.44712">
        <ele>8.6</ele>
        <time>2025-07-03T07:45:46Z</time>
      </trkpt>
      <trkpt lat="46.22853" lon="-1.44715">
        <ele>9</ele>
        <time>2025-07-03T07:45:51Z</time>
      </trkpt>
      <trkpt lat="46.2285" lon="-1.44724">
        <ele>8.8</ele>
        <time>2025-07-03T07:45:57Z</time>
      </trkpt>
      <trkpt lat="46.22849" lon="-1.44731">
        <ele>8.8</ele>
        <time>2025-07-03T07:46:01Z</time>
      </trkpt>
      <trkpt lat="46.22848" lon="-1.44738">
        <ele>8.8</ele>
        <time>2025-07-03T07:46:05Z</time>
      </trkpt>
      <trkpt lat="46.22844" lon="-1.44759">
        <ele>9.4</ele>
        <time>2025-07-03T07:46:15Z</time>
      </trkpt>
      <trkpt lat="46.22842" lon="-1.44777">
        <ele>9.2</ele>
        <time>2025-07-03T07:46:24Z</time>
      </trkpt>
      <trkpt lat="46.2284" lon="-1.44796">
        <ele>9.2</ele>
        <time>2025-07-03T07:46:34Z</time>
      </trkpt>
      <trkpt lat="46.2284" lon="-1.44812">
        <ele>8.8</ele>
        <time>2025-07-03T07:46:43Z</time>
      </trkpt>
      <trkpt lat="46.22838" lon="-1.44833">
        <ele>8.6</ele>
        <time>2025-07-03T07:46:53Z</time>
      </trkpt>
      <trkpt lat="46.22838" lon="-1.44849">
        <ele>8.8</ele>
        <time>2025-07-03T07:47:02Z</time>
      </trkpt>
      <trkpt lat="46.22836" lon="-1.44857">
        <ele>8.6</ele>
        <time>2025-07-03T07:47:06Z</time>
      </trkpt>
      <trkpt lat="46.22835" lon="-1.44877">
        <ele>8.8</ele>
        <time>2025-07-03T07:47:16Z</time>
      </trkpt>
      <trkpt lat="46.22832" lon="-1.44898">
        <ele>8.8</ele>
        <time>2025-07-03T07:47:27Z</time>
      </trkpt>
      <trkpt lat="46.22831" lon="-1.44919">
        <ele>9</ele>
        <time>2025-07-03T07:47:37Z</time>
      </trkpt>
      <trkpt lat="46.2283" lon="-1.44935">
        <ele>8.8</ele>
        <time>2025-07-03T07:47:45Z</time>
      </trkpt>
      <trkpt lat="46.22829" lon="-1.44943">
        <ele>9</ele>
        <time>2025-07-03T07:47:49Z</time>
      </trkpt>
      <trkpt lat="46.22827" lon="-1.44964">
        <ele>9</ele>
        <time>2025-07-03T07:47:59Z</time>
      </trkpt>
      <trkpt lat="46.22827" lon="-1.44973">
        <ele>8.8</ele>
        <time>2025-07-03T07:48:04Z</time>
      </trkpt>
      <trkpt lat="46.22827" lon="-1.44976">
        <ele>8.8</ele>
        <time>2025-07-03T07:48:05Z</time>
      </trkpt>
      <trkpt lat="46.22826" lon="-1.44995">
        <ele>8.8</ele>
        <time>2025-07-03T07:48:15Z</time>
      </trkpt>
      <trkpt lat="46.22827" lon="-1.45015">
        <ele>8.8</ele>
        <time>2025-07-03T07:48:25Z</time>
      </trkpt>
      <trkpt lat="46.22827" lon="-1.45018">
        <ele>9</ele>
        <time>2025-07-03T07:48:26Z</time>
      </trkpt>
      <trkpt lat="46.22827" lon="-1.45042">
        <ele>8.8</ele>
        <time>2025-07-03T07:48:37Z</time>
      </trkpt>
      <trkpt lat="46.22827" lon="-1.45057">
        <ele>8.8</ele>
        <time>2025-07-03T07:48:45Z</time>
      </trkpt>
      <trkpt lat="46.22828" lon="-1.45069">
        <ele>8.6</ele>
        <time>2025-07-03T07:48:51Z</time>
      </trkpt>
      <trkpt lat="46.22827" lon="-1.45078">
        <ele>8.6</ele>
        <time>2025-07-03T07:48:56Z</time>
      </trkpt>
      <trkpt lat="46.22828" lon="-1.45086">
        <ele>8.6</ele>
        <time>2025-07-03T07:49:00Z</time>
      </trkpt>
      <trkpt lat="46.22827" lon="-1.45094">
        <ele>8.6</ele>
        <time>2025-07-03T07:49:04Z</time>
      </trkpt>
      <trkpt lat="46.22828" lon="-1.45111">
        <ele>9</ele>
        <time>2025-07-03T07:49:13Z</time>
      </trkpt>
      <trkpt lat="46.22829" lon="-1.45122">
        <ele>8.8</ele>
        <time>2025-07-03T07:49:19Z</time>
      </trkpt>
      <trkpt lat="46.22829" lon="-1.45131">
        <ele>8.8</ele>
        <time>2025-07-03T07:49:23Z</time>
      </trkpt>
      <trkpt lat="46.22829" lon="-1.45143">
        <ele>8.6</ele>
        <time>2025-07-03T07:49:29Z</time>
      </trkpt>
      <trkpt lat="46.2283" lon="-1.45154">
        <ele>8.6</ele>
        <time>2025-07-03T07:49:34Z</time>
      </trkpt>
      <trkpt lat="46.2283" lon="-1.45161">
        <ele>8.6</ele>
        <time>2025-07-03T07:49:38Z</time>
      </trkpt>
      <trkpt lat="46.2283" lon="-1.45166">
        <ele>8.6</ele>
        <time>2025-07-03T07:49:40Z</time>
      </trkpt>
      <trkpt lat="46.22831" lon="-1.45191">
        <ele>8.4</ele>
        <time>2025-07-03T07:49:52Z</time>
      </trkpt>
      <trkpt lat="46.22831" lon="-1.45193">
        <ele>8.4</ele>
        <time>2025-07-03T07:49:53Z</time>
      </trkpt>
      <trkpt lat="46.22832" lon="-1.45217">
        <ele>8.4</ele>
        <time>2025-07-03T07:50:05Z</time>
      </trkpt>
      <trkpt lat="46.22832" lon="-1.45234">
        <ele>8.2</ele>
        <time>2025-07-03T07:50:14Z</time>
      </trkpt>
      <trkpt lat="46.22832" lon="-1.45252">
        <ele>8.2</ele>
        <time>2025-07-03T07:50:23Z</time>
      </trkpt>
      <trkpt lat="46.22832" lon="-1.45256">
        <ele>8.2</ele>
        <time>2025-07-03T07:50:25Z</time>
      </trkpt>
      <trkpt lat="46.22831" lon="-1.45262">
        <ele>8</ele>
        <time>2025-07-03T07:50:28Z</time>
      </trkpt>
      <trkpt lat="46.22831" lon="-1.45265">
        <ele>8</ele>
        <time>2025-07-03T07:50:30Z</time>
      </trkpt>
      <trkpt lat="46.22832" lon="-1.45274">
        <ele>8</ele>
        <time>2025-07-03T07:50:34Z</time>
      </trkpt>
      <trkpt lat="46.22832" lon="-1.45278">
        <ele>8</ele>
        <time>2025-07-03T07:50:36Z</time>
      </trkpt>
      <trkpt lat="46.22832" lon="-1.45292">
        <ele>8</ele>
        <time>2025-07-03T07:50:43Z</time>
      </trkpt>
      <trkpt lat="46.22833" lon="-1.45315">
        <ele>8.2</ele>
        <time>2025-07-03T07:50:55Z</time>
      </trkpt>
      <trkpt lat="46.22834" lon="-1.45339">
        <ele>8</ele>
        <time>2025-07-03T07:51:07Z</time>
      </trkpt>
      <trkpt lat="46.22834" lon="-1.45367">
        <ele>7.8</ele>
        <time>2025-07-03T07:51:21Z</time>
      </trkpt>
      <trkpt lat="46.22834" lon="-1.45377">
        <ele>7.8</ele>
        <time>2025-07-03T07:51:27Z</time>
      </trkpt>
      <trkpt lat="46.22833" lon="-1.45388">
        <ele>7.8</ele>
        <time>2025-07-03T07:51:32Z</time>
      </trkpt>
      <trkpt lat="46.22835" lon="-1.45404">
        <ele>7.8</ele>
        <time>2025-07-03T07:51:40Z</time>
      </trkpt>
      <trkpt lat="46.22835" lon="-1.45414">
        <ele>7.6</ele>
        <time>2025-07-03T07:51:45Z</time>
      </trkpt>
      <trkpt lat="46.22834" lon="-1.45425">
        <ele>7.4</ele>
        <time>2025-07-03T07:51:50Z</time>
      </trkpt>
      <trkpt lat="46.22834" lon="-1.45427">
        <ele>7.4</ele>
        <time>2025-07-03T07:51:51Z</time>
      </trkpt>
      <trkpt lat="46.22834" lon="-1.45447">
        <ele>7.2</ele>
        <time>2025-07-03T07:52:01Z</time>
      </trkpt>
      <trkpt lat="46.22835" lon="-1.45463">
        <ele>7.6</ele>
        <time>2025-07-03T07:52:09Z</time>
      </trkpt>
      <trkpt lat="46.22836" lon="-1.45469">
        <ele>7.4</ele>
        <time>2025-07-03T07:52:12Z</time>
      </trkpt>
      <trkpt lat="46.22837" lon="-1.45482">
        <ele>7.4</ele>
        <time>2025-07-03T07:52:19Z</time>
      </trkpt>
      <trkpt lat="46.22837" lon="-1.45501">
        <ele>7.2</ele>
        <time>2025-07-03T07:52:29Z</time>
      </trkpt>
      <trkpt lat="46.22838" lon="-1.45522">
        <ele>7.2</ele>
        <time>2025-07-03T07:52:40Z</time>
      </trkpt>
      <trkpt lat="46.22838" lon="-1.45542">
        <ele>7.2</ele>
        <time>2025-07-03T07:52:50Z</time>
      </trkpt>
      <trkpt lat="46.2284" lon="-1.45567">
        <ele>7</ele>
        <time>2025-07-03T07:53:02Z</time>
      </trkpt>
      <trkpt lat="46.22841" lon="-1.4559">
        <ele>7</ele>
        <time>2025-07-03T07:53:13Z</time>
      </trkpt>
      <trkpt lat="46.22841" lon="-1.45611">
        <ele>7</ele>
        <time>2025-07-03T07:53:23Z</time>
      </trkpt>
      <trkpt lat="46.22842" lon="-1.45635">
        <ele>6.8</ele>
        <time>2025-07-03T07:53:35Z</time>
      </trkpt>
      <trkpt lat="46.22842" lon="-1.45642">
        <ele>6.6</ele>
        <time>2025-07-03T07:53:38Z</time>
      </trkpt>
      <trkpt lat="46.22842" lon="-1.45655">
        <ele>6.8</ele>
        <time>2025-07-03T07:53:44Z</time>
      </trkpt>
      <trkpt lat="46.22842" lon="-1.45657">
        <ele>6.8</ele>
        <time>2025-07-03T07:53:45Z</time>
      </trkpt>
      <trkpt lat="46.22843" lon="-1.45663">
        <ele>6.8</ele>
        <time>2025-07-03T07:53:48Z</time>
      </trkpt>
      <trkpt lat="46.22844" lon="-1.45672">
        <ele>6.8</ele>
        <time>2025-07-03T07:53:52Z</time>
      </trkpt>
      <trkpt lat="46.22844" lon="-1.45677">
        <ele>6.8</ele>
        <time>2025-07-03T07:53:55Z</time>
      </trkpt>
      <trkpt lat="46.22843" lon="-1.45682">
        <ele>6.8</ele>
        <time>2025-07-03T07:53:57Z</time>
      </trkpt>
      <trkpt lat="46.22845" lon="-1.45699">
        <ele>6.8</ele>
        <time>2025-07-03T07:54:06Z</time>
      </trkpt>
      <trkpt lat="46.22845" lon="-1.45715">
        <ele>6.6</ele>
        <time>2025-07-03T07:54:15Z</time>
      </trkpt>
      <trkpt lat="46.22845" lon="-1.45738">
        <ele>6.4</ele>
        <time>2025-07-03T07:54:26Z</time>
      </trkpt>
      <trkpt lat="46.22845" lon="-1.45741">
        <ele>6.4</ele>
        <time>2025-07-03T07:54:28Z</time>
      </trkpt>
      <trkpt lat="46.22847" lon="-1.45763">
        <ele>6.2</ele>
        <time>2025-07-03T07:54:39Z</time>
      </trkpt>
      <trkpt lat="46.22847" lon="-1.4578">
        <ele>6.2</ele>
        <time>2025-07-03T07:54:48Z</time>
      </trkpt>
      <trkpt lat="46.22848" lon="-1.45801">
        <ele>6.2</ele>
        <time>2025-07-03T07:54:58Z</time>
      </trkpt>
      <trkpt lat="46.22846" lon="-1.45821">
        <ele>6</ele>
        <time>2025-07-03T07:55:08Z</time>
      </trkpt>
      <trkpt lat="46.22844" lon="-1.45849">
        <ele>5.6</ele>
        <time>2025-07-03T07:55:22Z</time>
      </trkpt>
      <trkpt lat="46.2284" lon="-1.45868">
        <ele>5.6</ele>
        <time>2025-07-03T07:55:32Z</time>
      </trkpt>
      <trkpt lat="46.22839" lon="-1.45874">
        <ele>5.4</ele>
        <time>2025-07-03T07:55:36Z</time>
      </trkpt>
      <trkpt lat="46.22838" lon="-1.45881">
        <ele>5.4</ele>
        <time>2025-07-03T07:55:39Z</time>
      </trkpt>
      <trkpt lat="46.22837" lon="-1.45885">
        <ele>5.2</ele>
        <time>2025-07-03T07:55:41Z</time>
      </trkpt>
      <trkpt lat="46.22836" lon="-1.45893">
        <ele>5.4</ele>
        <time>2025-07-03T07:55:45Z</time>
      </trkpt>
      <trkpt lat="46.22835" lon="-1.45901">
        <ele>5</ele>
        <time>2025-07-03T07:55:50Z</time>
      </trkpt>
      <trkpt lat="46.2283" lon="-1.45913">
        <ele>4.4</ele>
        <time>2025-07-03T07:55:57Z</time>
      </trkpt>
      <trkpt lat="46.22829" lon="-1.45914">
        <ele>4.2</ele>
        <time>2025-07-03T07:55:58Z</time>
      </trkpt>
      <trkpt lat="46.22825" lon="-1.45924">
        <ele>4.2</ele>
        <time>2025-07-03T07:56:05Z</time>
      </trkpt>
      <trkpt lat="46.22824" lon="-1.45941">
        <ele>4.6</ele>
        <time>2025-07-03T07:56:14Z</time>
      </trkpt>
      <trkpt lat="46.22824" lon="-1.45963">
        <ele>4</ele>
        <time>2025-07-03T07:56:26Z</time>
      </trkpt>
      <trkpt lat="46.22826" lon="-1.45979">
        <ele>4.4</ele>
        <time>2025-07-03T07:56:35Z</time>
      </trkpt>
      <trkpt lat="46.22827" lon="-1.45999">
        <ele>4.2</ele>
        <time>2025-07-03T07:56:45Z</time>
      </trkpt>
      <trkpt lat="46.22829" lon="-1.46019">
        <ele>4</ele>
        <time>2025-07-03T07:56:56Z</time>
      </trkpt>
      <trkpt lat="46.22829" lon="-1.46024">
        <ele>4</ele>
        <time>2025-07-03T07:56:58Z</time>
      </trkpt>
      <trkpt lat="46.22829" lon="-1.46026">
        <ele>4</ele>
        <time>2025-07-03T07:56:59Z</time>
      </trkpt>
      <trkpt lat="46.22831" lon="-1.46038">
        <ele>3.6</ele>
        <time>2025-07-03T07:57:05Z</time>
      </trkpt>
      <trkpt lat="46.22831" lon="-1.4604">
        <ele>3.4</ele>
        <time>2025-07-03T07:57:06Z</time>
      </trkpt>
      <trkpt lat="46.2283" lon="-1.46042">
        <ele>3.4</ele>
        <time>2025-07-03T07:57:07Z</time>
      </trkpt>
      <trkpt lat="46.22831" lon="-1.46049">
        <ele>3.4</ele>
        <time>2025-07-03T07:57:11Z</time>
      </trkpt>
      <trkpt lat="46.22831" lon="-1.46055">
        <ele>3.4</ele>
        <time>2025-07-03T07:57:14Z</time>
      </trkpt>
      <trkpt lat="46.22831" lon="-1.46074">
        <ele>3.2</ele>
        <time>2025-07-03T07:57:23Z</time>
      </trkpt>
      <trkpt lat="46.22831" lon="-1.46095">
        <ele>2.6</ele>
        <time>2025-07-03T07:57:33Z</time>
      </trkpt>
      <trkpt lat="46.22831" lon="-1.46112">
        <ele>2.4</ele>
        <time>2025-07-03T07:57:41Z</time>
      </trkpt>
      <trkpt lat="46.22831" lon="-1.46128">
        <ele>2.4</ele>
        <time>2025-07-03T07:57:49Z</time>
      </trkpt>
      <trkpt lat="46.22831" lon="-1.46131">
        <ele>2.4</ele>
        <time>2025-07-03T07:57:50Z</time>
      </trkpt>
      <trkpt lat="46.22831" lon="-1.46155">
        <ele>2</ele>
        <time>2025-07-03T07:58:02Z</time>
      </trkpt>
      <trkpt lat="46.22831" lon="-1.46178">
        <ele>2.2</ele>
        <time>2025-07-03T07:58:13Z</time>
      </trkpt>
      <trkpt lat="46.22831" lon="-1.46185">
        <ele>2</ele>
        <time>2025-07-03T07:58:16Z</time>
      </trkpt>
      <trkpt lat="46.22833" lon="-1.46203">
        <ele>1.8</ele>
        <time>2025-07-03T07:58:25Z</time>
      </trkpt>
      <trkpt lat="46.22835" lon="-1.46215">
        <ele>1.6</ele>
        <time>2025-07-03T07:58:31Z</time>
      </trkpt>
      <trkpt lat="46.22835" lon="-1.4622">
        <ele>1.6</ele>
        <time>2025-07-03T07:58:33Z</time>
      </trkpt>
      <trkpt lat="46.22835" lon="-1.46222">
        <ele>1.6</ele>
        <time>2025-07-03T07:58:34Z</time>
      </trkpt>
      <trkpt lat="46.22839" lon="-1.46244">
        <ele>1.8</ele>
        <time>2025-07-03T07:58:45Z</time>
      </trkpt>
      <trkpt lat="46.22841" lon="-1.46257">
        <ele>1.8</ele>
        <time>2025-07-03T07:58:52Z</time>
      </trkpt>
      <trkpt lat="46.22843" lon="-1.46281">
        <ele>1.8</ele>
        <time>2025-07-03T07:59:03Z</time>
      </trkpt>
      <trkpt lat="46.22846" lon="-1.46306">
        <ele>2</ele>
        <time>2025-07-03T07:59:15Z</time>
      </trkpt>
      <trkpt lat="46.22852" lon="-1.46328">
        <ele>2.4</ele>
        <time>2025-07-03T07:59:26Z</time>
      </trkpt>
      <trkpt lat="46.22854" lon="-1.46346">
        <ele>2.4</ele>
        <time>2025-07-03T07:59:35Z</time>
      </trkpt>
      <trkpt lat="46.22855" lon="-1.46351">
        <ele>2.4</ele>
        <time>2025-07-03T07:59:37Z</time>
      </trkpt>
      <trkpt lat="46.22858" lon="-1.46367">
        <ele>2</ele>
        <time>2025-07-03T07:59:45Z</time>
      </trkpt>
      <trkpt lat="46.2286" lon="-1.46373">
        <ele>2</ele>
        <time>2025-07-03T07:59:48Z</time>
      </trkpt>
      <trkpt lat="46.22864" lon="-1.46388">
        <ele>1.8</ele>
        <time>2025-07-03T07:59:56Z</time>
      </trkpt>
      <trkpt lat="46.22871" lon="-1.46405">
        <ele>2.2</ele>
        <time>2025-07-03T08:00:06Z</time>
      </trkpt>
      <trkpt lat="46.22876" lon="-1.46422">
        <ele>2</ele>
        <time>2025-07-03T08:00:16Z</time>
      </trkpt>
      <trkpt lat="46.22881" lon="-1.46439">
        <ele>2</ele>
        <time>2025-07-03T08:00:26Z</time>
      </trkpt>
      <trkpt lat="46.22885" lon="-1.46461">
        <ele>1.8</ele>
        <time>2025-07-03T08:00:37Z</time>
      </trkpt>
      <trkpt lat="46.22891" lon="-1.46483">
        <ele>1.8</ele>
        <time>2025-07-03T08:00:49Z</time>
      </trkpt>
      <trkpt lat="46.22893" lon="-1.46489">
        <ele>1.6</ele>
        <time>2025-07-03T08:00:52Z</time>
      </trkpt>
      <trkpt lat="46.22898" lon="-1.46502">
        <ele>1.6</ele>
        <time>2025-07-03T08:01:00Z</time>
      </trkpt>
      <trkpt lat="46.22898" lon="-1.46504">
        <ele>1.2</ele>
        <time>2025-07-03T08:01:01Z</time>
      </trkpt>
      <trkpt lat="46.22903" lon="-1.46513">
        <ele>0.60000000000002</ele>
        <time>2025-07-03T08:01:07Z</time>
      </trkpt>
      <trkpt lat="46.22905" lon="-1.46518">
        <ele>0.60000000000002</ele>
        <time>2025-07-03T08:01:10Z</time>
      </trkpt>
      <trkpt lat="46.22905" lon="-1.46522">
        <ele>0.19999999999999</ele>
        <time>2025-07-03T08:01:12Z</time>
      </trkpt>
      <trkpt lat="46.22906" lon="-1.46527">
        <ele>0.19999999999999</ele>
        <time>2025-07-03T08:01:15Z</time>
      </trkpt>
      <trkpt lat="46.22908" lon="-1.46549">
        <ele>0.39999999999998</ele>
        <time>2025-07-03T08:01:26Z</time>
      </trkpt>
      <trkpt lat="46.2291" lon="-1.46565">
        <ele>0.80000000000001</ele>
        <time>2025-07-03T08:01:35Z</time>
      </trkpt>
      <trkpt lat="46.22911" lon="-1.46572">
        <ele>0.80000000000001</ele>
        <time>2025-07-03T08:01:38Z</time>
      </trkpt>
      <trkpt lat="46.22912" lon="-1.46574">
        <ele>0.80000000000001</ele>
        <time>2025-07-03T08:01:40Z</time>
      </trkpt>
      <trkpt lat="46.22912" lon="-1.46577">
        <ele>0.80000000000001</ele>
        <time>2025-07-03T08:01:42Z</time>
      </trkpt>
      <trkpt lat="46.22912" lon="-1.46582">
        <ele>0.60000000000002</ele>
        <time>2025-07-03T08:01:46Z</time>
      </trkpt>
      <trkpt lat="46.2291" lon="-1.46584">
        <ele>0.39999999999998</ele>
        <time>2025-07-03T08:01:48Z</time>
      </trkpt>
      <trkpt lat="46.22897" lon="-1.4659">
        <ele>0.39999999999998</ele>
        <time>2025-07-03T08:01:58Z</time>
      </trkpt>
      <trkpt lat="46.22887" lon="-1.46596">
        <ele>0.80000000000001</ele>
        <time>2025-07-03T08:02:06Z</time>
      </trkpt>
      <trkpt lat="46.22881" lon="-1.46604">
        <ele>1</ele>
        <time>2025-07-03T08:02:13Z</time>
      </trkpt>
      <trkpt lat="46.22876" lon="-1.46619">
        <ele>0.60000000000002</ele>
        <time>2025-07-03T08:02:22Z</time>
      </trkpt>
      <trkpt lat="46.2287" lon="-1.46629">
        <ele>0.39999999999998</ele>
        <time>2025-07-03T08:02:29Z</time>
      </trkpt>
      <trkpt lat="46.22864" lon="-1.46638">
        <ele>0.60000000000002</ele>
        <time>2025-07-03T08:02:36Z</time>
      </trkpt>
      <trkpt lat="46.22855" lon="-1.46649">
        <ele>0.39999999999998</ele>
        <time>2025-07-03T08:02:45Z</time>
      </trkpt>
      <trkpt lat="46.22847" lon="-1.46663">
        <ele>0.19999999999999</ele>
        <time>2025-07-03T08:02:55Z</time>
      </trkpt>
      <trkpt lat="46.22839" lon="-1.46677">
        <ele>0.19999999999999</ele>
        <time>2025-07-03T08:03:06Z</time>
      </trkpt>
      <trkpt lat="46.22829" lon="-1.46689">
        <ele>0.19999999999999</ele>
        <time>2025-07-03T08:03:16Z</time>
      </trkpt>
      <trkpt lat="46.22823" lon="-1.46699">
        <ele>-0.60000000000002</ele>
        <time>2025-07-03T08:03:24Z</time>
      </trkpt>
      <trkpt lat="46.22813" lon="-1.46717">
        <ele>-0.60000000000002</ele>
        <time>2025-07-03T08:03:37Z</time>
      </trkpt>
      <trkpt lat="46.22804" lon="-1.46726">
        <ele>-0.19999999999999</ele>
        <time>2025-07-03T08:03:48Z</time>
      </trkpt>
      <trkpt lat="46.22798" lon="-1.46726">
        <ele>-0.19999999999999</ele>
        <time>2025-07-03T08:03:52Z</time>
      </trkpt>
      <trkpt lat="46.22793" lon="-1.46727">
        <ele>0.80000000000001</ele>
        <time>2025-07-03T08:03:58Z</time>
      </trkpt>
      <trkpt lat="46.22791" lon="-1.46728">
        <ele>1.2</ele>
        <time>2025-07-03T08:04:02Z</time>
      </trkpt>
      <trkpt lat="46.22791" lon="-1.46728">
        <ele>1.4</ele>
        <time>2025-07-03T08:04:03Z</time>
      </trkpt>
      <trkpt lat="46.22791" lon="-1.46729">
        <ele>1.6</ele>
        <time>2025-07-03T08:04:04Z</time>
      </trkpt>
      <trkpt lat="46.2279" lon="-1.4673">
        <ele>1.8</ele>
        <time>2025-07-03T08:04:10Z</time>
      </trkpt>
      <trkpt lat="46.22789" lon="-1.46732">
        <ele>1.4</ele>
        <time>2025-07-03T08:04:17Z</time>
      </trkpt>
      <trkpt lat="46.22786" lon="-1.46736">
        <ele>0.39999999999998</ele>
        <time>2025-07-03T08:04:23Z</time>
      </trkpt>
      <trkpt lat="46.22786" lon="-1.46736">
        <ele>0.19999999999999</ele>
        <time>2025-07-03T08:04:24Z</time>
      </trkpt>
      <trkpt lat="46.22789" lon="-1.4673">
        <ele>0.19999999999999</ele>
        <time>2025-07-03T08:04:33Z</time>
      </trkpt>
      <trkpt lat="46.2279" lon="-1.46727">
        <ele>0.60000000000002</ele>
        <time>2025-07-03T08:04:40Z</time>
      </trkpt>
      <trkpt lat="46.22786" lon="-1.46729">
        <ele>0.19999999999999</ele>
        <time>2025-07-03T08:04:45Z</time>
      </trkpt>
      <trkpt lat="46.2279" lon="-1.46729">
        <ele>-0.39999999999998</ele>
        <time>2025-07-03T08:05:22Z</time>
      </trkpt>
      <trkpt lat="46.2279" lon="-1.46729">
        <ele>-0.39999999999998</ele>
        <time>2025-07-03T08:05:23Z</time>
      </trkpt>
      <trkpt lat="46.2279" lon="-1.46728">
        <ele>-1.2</ele>
        <time>2025-07-03T08:05:26Z</time>
      </trkpt>
      <trkpt lat="46.2279" lon="-1.46729">
        <ele>-1.6</ele>
        <time>2025-07-03T08:05:27Z</time>
      </trkpt>
      <trkpt lat="46.22794" lon="-1.46735">
        <ele>-2</ele>
        <time>2025-07-03T08:05:32Z</time>
      </trkpt>
      <trkpt lat="46.22795" lon="-1.46736">
        <ele>-2.4</ele>
        <time>2025-07-03T08:05:33Z</time>
      </trkpt>
      <trkpt lat="46.22799" lon="-1.46746">
        <ele>-2.8</ele>
        <time>2025-07-03T08:05:38Z</time>
      </trkpt>
      <trkpt lat="46.22799" lon="-1.46749">
        <ele>-3.2</ele>
        <time>2025-07-03T08:05:40Z</time>
      </trkpt>
      <trkpt lat="46.22799" lon="-1.46753">
        <ele>-3.4</ele>
        <time>2025-07-03T08:05:42Z</time>
      </trkpt>
      <trkpt lat="46.22798" lon="-1.46771">
        <ele>-4</ele>
        <time>2025-07-03T08:05:52Z</time>
      </trkpt>
      <trkpt lat="46.22793" lon="-1.46785">
        <ele>-3.8</ele>
        <time>2025-07-03T08:06:00Z</time>
      </trkpt>
      <trkpt lat="46.22793" lon="-1.46786">
        <ele>-3.8</ele>
        <time>2025-07-03T08:06:01Z</time>
      </trkpt>
      <trkpt lat="46.22789" lon="-1.46799">
        <ele>-4</ele>
        <time>2025-07-03T08:06:09Z</time>
      </trkpt>
      <trkpt lat="46.22788" lon="-1.46812">
        <ele>-3.8</ele>
        <time>2025-07-03T08:06:16Z</time>
      </trkpt>
      <trkpt lat="46.22787" lon="-1.46814">
        <ele>-3.8</ele>
        <time>2025-07-03T08:06:17Z</time>
      </trkpt>
      <trkpt lat="46.22786" lon="-1.46821">
        <ele>-4</ele>
        <time>2025-07-03T08:06:21Z</time>
      </trkpt>
      <trkpt lat="46.22782" lon="-1.46839">
        <ele>-4</ele>
        <time>2025-07-03T08:06:31Z</time>
      </trkpt>
      <trkpt lat="46.22777" lon="-1.46856">
        <ele>-3.6</ele>
        <time>2025-07-03T08:06:41Z</time>
      </trkpt>
      <trkpt lat="46.22772" lon="-1.46873">
        <ele>-3.6</ele>
        <time>2025-07-03T08:06:51Z</time>
      </trkpt>
      <trkpt lat="46.22769" lon="-1.46888">
        <ele>-3.6</ele>
        <time>2025-07-03T08:06:59Z</time>
      </trkpt>
      <trkpt lat="46.2277" lon="-1.46904">
        <ele>-3.4</ele>
        <time>2025-07-03T08:07:08Z</time>
      </trkpt>
      <trkpt lat="46.22767" lon="-1.46927">
        <ele>-3.6</ele>
        <time>2025-07-03T08:07:21Z</time>
      </trkpt>
      <trkpt lat="46.22766" lon="-1.46931">
        <ele>-3.2</ele>
        <time>2025-07-03T08:07:24Z</time>
      </trkpt>
      <trkpt lat="46.22764" lon="-1.46941">
        <ele>-3.6</ele>
        <time>2025-07-03T08:07:30Z</time>
      </trkpt>
      <trkpt lat="46.22762" lon="-1.46947">
        <ele>-3.6</ele>
        <time>2025-07-03T08:07:33Z</time>
      </trkpt>
      <trkpt lat="46.22758" lon="-1.46958">
        <ele>-3.4</ele>
        <time>2025-07-03T08:07:41Z</time>
      </trkpt>
      <trkpt lat="46.22754" lon="-1.46971">
        <ele>-3.2</ele>
        <time>2025-07-03T08:07:49Z</time>
      </trkpt>
      <trkpt lat="46.22753" lon="-1.46974">
        <ele>-3.2</ele>
        <time>2025-07-03T08:07:51Z</time>
      </trkpt>
      <trkpt lat="46.22746" lon="-1.46989">
        <ele>-3.2</ele>
        <time>2025-07-03T08:08:01Z</time>
      </trkpt>
      <trkpt lat="46.22737" lon="-1.47">
        <ele>-2.8</ele>
        <time>2025-07-03T08:08:10Z</time>
      </trkpt>
      <trkpt lat="46.22734" lon="-1.47003">
        <ele>-3</ele>
        <time>2025-07-03T08:08:15Z</time>
      </trkpt>
      <trkpt lat="46.22734" lon="-1.47001">
        <ele>-3.2</ele>
        <time>2025-07-03T08:08:16Z</time>
      </trkpt>
      <trkpt lat="46.22733" lon="-1.46998">
        <ele>-2.6</ele>
        <time>2025-07-03T08:08:22Z</time>
      </trkpt>
      <trkpt lat="46.22731" lon="-1.46994">
        <ele>-2.4</ele>
        <time>2025-07-03T08:08:28Z</time>
      </trkpt>
      <trkpt lat="46.2273" lon="-1.46992">
        <ele>-2.2</ele>
        <time>2025-07-03T08:08:31Z</time>
      </trkpt>
      <trkpt lat="46.22728" lon="-1.46994">
        <ele>-1.4</ele>
        <time>2025-07-03T08:08:36Z</time>
      </trkpt>
      <trkpt lat="46.22729" lon="-1.46994">
        <ele>-2</ele>
        <time>2025-07-03T08:10:46Z</time>
      </trkpt>
      <trkpt lat="46.22729" lon="-1.46994">
        <ele>-2</ele>
        <time>2025-07-03T08:10:47Z</time>
      </trkpt>
      <trkpt lat="46.22729" lon="-1.46995">
        <ele>-2.4</ele>
        <time>2025-07-03T08:10:52Z</time>
      </trkpt>
      <trkpt lat="46.22729" lon="-1.46995">
        <ele>-2.4</ele>
        <time>2025-07-03T08:10:53Z</time>
      </trkpt>
      <trkpt lat="46.22718" lon="-1.46991">
        <ele>-3.8</ele>
        <time>2025-07-03T08:12:44Z</time>
      </trkpt>
      <trkpt lat="46.22725" lon="-1.46993">
        <ele>-3.4</ele>
        <time>2025-07-03T08:12:50Z</time>
      </trkpt>
      <trkpt lat="46.22729" lon="-1.46992">
        <ele>-2</ele>
        <time>2025-07-03T08:12:52Z</time>
      </trkpt>
      <trkpt lat="46.22733" lon="-1.46988">
        <ele>-2</ele>
        <time>2025-07-03T08:12:55Z</time>
      </trkpt>
      <trkpt lat="46.22734" lon="-1.46987">
        <ele>-2</ele>
        <time>2025-07-03T08:12:56Z</time>
      </trkpt>
      <trkpt lat="46.22737" lon="-1.46982">
        <ele>-2.4</ele>
        <time>2025-07-03T08:13:00Z</time>
      </trkpt>
      <trkpt lat="46.2274" lon="-1.46977">
        <ele>-2.4</ele>
        <time>2025-07-03T08:13:04Z</time>
      </trkpt>
      <trkpt lat="46.22742" lon="-1.46973">
        <ele>-2</ele>
        <time>2025-07-03T08:13:07Z</time>
      </trkpt>
      <trkpt lat="46.22743" lon="-1.46971">
        <ele>-3</ele>
        <time>2025-07-03T08:14:35Z</time>
      </trkpt>
      <trkpt lat="46.22743" lon="-1.46971">
        <ele>-3</ele>
        <time>2025-07-03T08:14:37Z</time>
      </trkpt>
      <trkpt lat="46.22743" lon="-1.46971">
        <ele>-3.2</ele>
        <time>2025-07-03T08:14:38Z</time>
      </trkpt>
      <trkpt lat="46.22746" lon="-1.46966">
        <ele>-3.4</ele>
        <time>2025-07-03T08:14:43Z</time>
      </trkpt>
      <trkpt lat="46.22748" lon="-1.4696">
        <ele>-3.8</ele>
        <time>2025-07-03T08:14:47Z</time>
      </trkpt>
      <trkpt lat="46.22752" lon="-1.46949">
        <ele>-4</ele>
        <time>2025-07-03T08:14:53Z</time>
      </trkpt>
      <trkpt lat="46.22753" lon="-1.46947">
        <ele>-4</ele>
        <time>2025-07-03T08:14:54Z</time>
      </trkpt>
      <trkpt lat="46.22753" lon="-1.46946">
        <ele>-3.8</ele>
        <time>2025-07-03T08:14:55Z</time>
      </trkpt>
      <trkpt lat="46.22753" lon="-1.46933">
        <ele>-3.8</ele>
        <time>2025-07-03T08:15:02Z</time>
      </trkpt>
      <trkpt lat="46.22755" lon="-1.46926">
        <ele>-3.2</ele>
        <time>2025-07-03T08:15:08Z</time>
      </trkpt>
      <trkpt lat="46.22756" lon="-1.46923">
        <ele>-4</ele>
        <time>2025-07-03T08:15:10Z</time>
      </trkpt>
      <trkpt lat="46.22757" lon="-1.46922">
        <ele>-4.4</ele>
        <time>2025-07-03T08:15:11Z</time>
      </trkpt>
      <trkpt lat="46.22758" lon="-1.46908">
        <ele>-3.6</ele>
        <time>2025-07-03T08:15:19Z</time>
      </trkpt>
      <trkpt lat="46.22761" lon="-1.46891">
        <ele>-4.2</ele>
        <time>2025-07-03T08:15:29Z</time>
      </trkpt>
      <trkpt lat="46.22762" lon="-1.46884">
        <ele>-4</ele>
        <time>2025-07-03T08:15:33Z</time>
      </trkpt>
      <trkpt lat="46.22763" lon="-1.4688">
        <ele>-4</ele>
        <time>2025-07-03T08:15:36Z</time>
      </trkpt>
      <trkpt lat="46.22764" lon="-1.46868">
        <ele>-3.6</ele>
        <time>2025-07-03T08:15:45Z</time>
      </trkpt>
      <trkpt lat="46.22766" lon="-1.46856">
        <ele>-3.4</ele>
        <time>2025-07-03T08:15:52Z</time>
      </trkpt>
      <trkpt lat="46.22766" lon="-1.46854">
        <ele>-3.4</ele>
        <time>2025-07-03T08:15:53Z</time>
      </trkpt>
      <trkpt lat="46.22766" lon="-1.46852">
        <ele>-3.4</ele>
        <time>2025-07-03T08:15:54Z</time>
      </trkpt>
      <trkpt lat="46.22768" lon="-1.4684">
        <ele>-3.6</ele>
        <time>2025-07-03T08:16:02Z</time>
      </trkpt>
      <trkpt lat="46.22767" lon="-1.46838">
        <ele>-2.2</ele>
        <time>2025-07-03T08:16:05Z</time>
      </trkpt>
      <trkpt lat="46.22768" lon="-1.46837">
        <ele>-2</ele>
        <time>2025-07-03T08:16:08Z</time>
      </trkpt>
      <trkpt lat="46.2277" lon="-1.46833">
        <ele>-2.8</ele>
        <time>2025-07-03T08:16:15Z</time>
      </trkpt>
      <trkpt lat="46.22771" lon="-1.46824">
        <ele>-3.2</ele>
        <time>2025-07-03T08:16:20Z</time>
      </trkpt>
      <trkpt lat="46.22771" lon="-1.46823">
        <ele>-3.4</ele>
        <time>2025-07-03T08:16:21Z</time>
      </trkpt>
      <trkpt lat="46.22772" lon="-1.46819">
        <ele>-3.4</ele>
        <time>2025-07-03T08:16:23Z</time>
      </trkpt>
      <trkpt lat="46.22772" lon="-1.46811">
        <ele>-3.4</ele>
        <time>2025-07-03T08:16:30Z</time>
      </trkpt>
      <trkpt lat="46.22773" lon="-1.46811">
        <ele>-3.6</ele>
        <time>2025-07-03T08:16:31Z</time>
      </trkpt>
      <trkpt lat="46.22773" lon="-1.46807">
        <ele>-3.6</ele>
        <time>2025-07-03T08:16:33Z</time>
      </trkpt>
      <trkpt lat="46.22773" lon="-1.468">
        <ele>-3.8</ele>
        <time>2025-07-03T08:16:37Z</time>
      </trkpt>
      <trkpt lat="46.22774" lon="-1.46789">
        <ele>-2.6</ele>
        <time>2025-07-03T08:16:43Z</time>
      </trkpt>
      <trkpt lat="46.22775" lon="-1.46785">
        <ele>-3.2</ele>
        <time>2025-07-03T08:16:46Z</time>
      </trkpt>
      <trkpt lat="46.22778" lon="-1.46775">
        <ele>-3.4</ele>
        <time>2025-07-03T08:16:53Z</time>
      </trkpt>
      <trkpt lat="46.22777" lon="-1.46773">
        <ele>-2.6</ele>
        <time>2025-07-03T08:16:54Z</time>
      </trkpt>
      <trkpt lat="46.2278" lon="-1.46762">
        <ele>-2.2</ele>
        <time>2025-07-03T08:17:02Z</time>
      </trkpt>
      <trkpt lat="46.2278" lon="-1.46761">
        <ele>-2.4</ele>
        <time>2025-07-03T08:17:03Z</time>
      </trkpt>
      <trkpt lat="46.2278" lon="-1.4676">
        <ele>-2.4</ele>
        <time>2025-07-03T08:17:04Z</time>
      </trkpt>
      <trkpt lat="46.22783" lon="-1.46753">
        <ele>-2.4</ele>
        <time>2025-07-03T08:17:09Z</time>
      </trkpt>
      <trkpt lat="46.22784" lon="-1.46751">
        <ele>-2.4</ele>
        <time>2025-07-03T08:17:10Z</time>
      </trkpt>
      <trkpt lat="46.22787" lon="-1.4674">
        <ele>-2.4</ele>
        <time>2025-07-03T08:17:18Z</time>
      </trkpt>
      <trkpt lat="46.22787" lon="-1.46738">
        <ele>-2.4</ele>
        <time>2025-07-03T08:17:20Z</time>
      </trkpt>
      <trkpt lat="46.22787" lon="-1.46734">
        <ele>-2.6</ele>
        <time>2025-07-03T08:17:24Z</time>
      </trkpt>
      <trkpt lat="46.22788" lon="-1.46733">
        <ele>-2.6</ele>
        <time>2025-07-03T08:17:25Z</time>
      </trkpt>
      <trkpt lat="46.22792" lon="-1.46724">
        <ele>-1.4</ele>
        <time>2025-07-03T08:17:33Z</time>
      </trkpt>
      <trkpt lat="46.22792" lon="-1.46722">
        <ele>-1.6</ele>
        <time>2025-07-03T08:17:35Z</time>
      </trkpt>
      <trkpt lat="46.228" lon="-1.46715">
        <ele>-2</ele>
        <time>2025-07-03T08:17:45Z</time>
      </trkpt>
      <trkpt lat="46.22802" lon="-1.46714">
        <ele>-2.2</ele>
        <time>2025-07-03T08:17:46Z</time>
      </trkpt>
      <trkpt lat="46.22803" lon="-1.46714">
        <ele>-2.4</ele>
        <time>2025-07-03T08:17:47Z</time>
      </trkpt>
      <trkpt lat="46.22809" lon="-1.46712">
        <ele>-1.8</ele>
        <time>2025-07-03T08:17:52Z</time>
      </trkpt>
      <trkpt lat="46.22814" lon="-1.46704">
        <ele>-2.8</ele>
        <time>2025-07-03T08:18:00Z</time>
      </trkpt>
      <trkpt lat="46.2282" lon="-1.46698">
        <ele>-2.6</ele>
        <time>2025-07-03T08:18:07Z</time>
      </trkpt>
      <trkpt lat="46.22823" lon="-1.46696">
        <ele>-2.4</ele>
        <time>2025-07-03T08:18:15Z</time>
      </trkpt>
      <trkpt lat="46.22828" lon="-1.46693">
        <ele>-3.4</ele>
        <time>2025-07-03T08:18:19Z</time>
      </trkpt>
      <trkpt lat="46.22832" lon="-1.46688">
        <ele>-3.8</ele>
        <time>2025-07-03T08:18:23Z</time>
      </trkpt>
      <trkpt lat="46.22833" lon="-1.46687">
        <ele>-3.4</ele>
        <time>2025-07-03T08:18:25Z</time>
      </trkpt>
      <trkpt lat="46.22832" lon="-1.46687">
        <ele>-3.6</ele>
        <time>2025-07-03T08:18:28Z</time>
      </trkpt>
      <trkpt lat="46.22832" lon="-1.46686">
        <ele>-3.4</ele>
        <time>2025-07-03T08:18:32Z</time>
      </trkpt>
      <trkpt lat="46.22833" lon="-1.46687">
        <ele>-3.4</ele>
        <time>2025-07-03T08:18:33Z</time>
      </trkpt>
      <trkpt lat="46.22834" lon="-1.46686">
        <ele>-3.4</ele>
        <time>2025-07-03T08:18:41Z</time>
      </trkpt>
      <trkpt lat="46.22833" lon="-1.46686">
        <ele>-3</ele>
        <time>2025-07-03T08:18:56Z</time>
      </trkpt>
      <trkpt lat="46.22838" lon="-1.46682">
        <ele>-3.8</ele>
        <time>2025-07-03T08:19:00Z</time>
      </trkpt>
      <trkpt lat="46.22848" lon="-1.46669">
        <ele>-3.8</ele>
        <time>2025-07-03T08:19:10Z</time>
      </trkpt>
      <trkpt lat="46.22849" lon="-1.46668">
        <ele>-3.8</ele>
        <time>2025-07-03T08:19:11Z</time>
      </trkpt>
      <trkpt lat="46.22855" lon="-1.46662">
        <ele>-4</ele>
        <time>2025-07-03T08:19:17Z</time>
      </trkpt>
      <trkpt lat="46.22864" lon="-1.46651">
        <ele>-4.4</ele>
        <time>2025-07-03T08:19:26Z</time>
      </trkpt>
      <trkpt lat="46.22874" lon="-1.46636">
        <ele>-4.2</ele>
        <time>2025-07-03T08:19:38Z</time>
      </trkpt>
      <trkpt lat="46.2288" lon="-1.46624">
        <ele>-3.6</ele>
        <time>2025-07-03T08:19:47Z</time>
      </trkpt>
      <trkpt lat="46.22881" lon="-1.46623">
        <ele>-3.4</ele>
        <time>2025-07-03T08:19:48Z</time>
      </trkpt>
      <trkpt lat="46.22887" lon="-1.4661">
        <ele>-3.6</ele>
        <time>2025-07-03T08:19:57Z</time>
      </trkpt>
      <trkpt lat="46.22897" lon="-1.46597">
        <ele>-3</ele>
        <time>2025-07-03T08:20:09Z</time>
      </trkpt>
      <trkpt lat="46.22904" lon="-1.46589">
        <ele>-2.6</ele>
        <time>2025-07-03T08:20:18Z</time>
      </trkpt>
      <trkpt lat="46.22908" lon="-1.46587">
        <ele>-2.4</ele>
        <time>2025-07-03T08:20:22Z</time>
      </trkpt>
      <trkpt lat="46.22909" lon="-1.46587">
        <ele>-2.2</ele>
        <time>2025-07-03T08:20:26Z</time>
      </trkpt>
      <trkpt lat="46.22914" lon="-1.46582">
        <ele>-2.8</ele>
        <time>2025-07-03T08:20:32Z</time>
      </trkpt>
      <trkpt lat="46.22912" lon="-1.46572">
        <ele>-2.2</ele>
        <time>2025-07-03T08:20:38Z</time>
      </trkpt>
      <trkpt lat="46.22911" lon="-1.46557">
        <ele>-2</ele>
        <time>2025-07-03T08:20:46Z</time>
      </trkpt>
      <trkpt lat="46.22907" lon="-1.46541">
        <ele>-2.4</ele>
        <time>2025-07-03T08:20:55Z</time>
      </trkpt>
      <trkpt lat="46.22901" lon="-1.46526">
        <ele>-2.6</ele>
        <time>2025-07-03T08:21:04Z</time>
      </trkpt>
      <trkpt lat="46.22897" lon="-1.46508">
        <ele>-2.4</ele>
        <time>2025-07-03T08:21:14Z</time>
      </trkpt>
      <trkpt lat="46.22895" lon="-1.46497">
        <ele>-1.6</ele>
        <time>2025-07-03T08:21:21Z</time>
      </trkpt>
      <trkpt lat="46.22894" lon="-1.46495">
        <ele>-1.4</ele>
        <time>2025-07-03T08:21:22Z</time>
      </trkpt>
      <trkpt lat="46.22891" lon="-1.46483">
        <ele>-1.4</ele>
        <time>2025-07-03T08:21:30Z</time>
      </trkpt>
      <trkpt lat="46.2289" lon="-1.46481">
        <ele>-1.4</ele>
        <time>2025-07-03T08:21:31Z</time>
      </trkpt>
      <trkpt lat="46.22886" lon="-1.46464">
        <ele>-1.2</ele>
        <time>2025-07-03T08:21:42Z</time>
      </trkpt>
      <trkpt lat="46.22883" lon="-1.46451">
        <ele>-1</ele>
        <time>2025-07-03T08:21:49Z</time>
      </trkpt>
      <trkpt lat="46.22883" lon="-1.4645">
        <ele>-1</ele>
        <time>2025-07-03T08:21:50Z</time>
      </trkpt>
      <trkpt lat="46.2288" lon="-1.46433">
        <ele>-1.4</ele>
        <time>2025-07-03T08:21:59Z</time>
      </trkpt>
      <trkpt lat="46.22873" lon="-1.4641">
        <ele>-1.6</ele>
        <time>2025-07-03T08:22:12Z</time>
      </trkpt>
      <trkpt lat="46.22869" lon="-1.46397">
        <ele>-1.6</ele>
        <time>2025-07-03T08:22:20Z</time>
      </trkpt>
      <trkpt lat="46.22868" lon="-1.46395">
        <ele>-1.8</ele>
        <time>2025-07-03T08:22:21Z</time>
      </trkpt>
      <trkpt lat="46.22863" lon="-1.46379">
        <ele>-2.4</ele>
        <time>2025-07-03T08:22:30Z</time>
      </trkpt>
      <trkpt lat="46.22862" lon="-1.46377">
        <ele>-2.4</ele>
        <time>2025-07-03T08:22:31Z</time>
      </trkpt>
      <trkpt lat="46.22858" lon="-1.46363">
        <ele>-2.2</ele>
        <time>2025-07-03T08:22:39Z</time>
      </trkpt>
      <trkpt lat="46.22854" lon="-1.46345">
        <ele>-2.2</ele>
        <time>2025-07-03T08:22:49Z</time>
      </trkpt>
      <trkpt lat="46.22852" lon="-1.4633">
        <ele>-2</ele>
        <time>2025-07-03T08:22:57Z</time>
      </trkpt>
      <trkpt lat="46.22849" lon="-1.4631">
        <ele>-2.2</ele>
        <time>2025-07-03T08:23:07Z</time>
      </trkpt>
      <trkpt lat="46.22844" lon="-1.46294">
        <ele>-2.6</ele>
        <time>2025-07-03T08:23:16Z</time>
      </trkpt>
      <trkpt lat="46.22841" lon="-1.46274">
        <ele>-3.2</ele>
        <time>2025-07-03T08:23:26Z</time>
      </trkpt>
      <trkpt lat="46.2284" lon="-1.46268">
        <ele>-3.4</ele>
        <time>2025-07-03T08:23:29Z</time>
      </trkpt>
      <trkpt lat="46.22839" lon="-1.46262">
        <ele>-3.4</ele>
        <time>2025-07-03T08:23:32Z</time>
      </trkpt>
      <trkpt lat="46.22838" lon="-1.46258">
        <ele>-3.4</ele>
        <time>2025-07-03T08:23:34Z</time>
      </trkpt>
      <trkpt lat="46.22835" lon="-1.46235">
        <ele>-3.6</ele>
        <time>2025-07-03T08:23:46Z</time>
      </trkpt>
      <trkpt lat="46.22833" lon="-1.46213">
        <ele>-4</ele>
        <time>2025-07-03T08:23:57Z</time>
      </trkpt>
      <trkpt lat="46.2283" lon="-1.46199">
        <ele>-3.6</ele>
        <time>2025-07-03T08:24:05Z</time>
      </trkpt>
      <trkpt lat="46.22829" lon="-1.46178">
        <ele>-3.8</ele>
        <time>2025-07-03T08:24:15Z</time>
      </trkpt>
      <trkpt lat="46.22829" lon="-1.46176">
        <ele>-3.8</ele>
        <time>2025-07-03T08:24:16Z</time>
      </trkpt>
      <trkpt lat="46.22828" lon="-1.46167">
        <ele>-3.6</ele>
        <time>2025-07-03T08:24:20Z</time>
      </trkpt>
      <trkpt lat="46.22829" lon="-1.46159">
        <ele>-3.4</ele>
        <time>2025-07-03T08:24:24Z</time>
      </trkpt>
      <trkpt lat="46.22829" lon="-1.46151">
        <ele>-3.8</ele>
        <time>2025-07-03T08:24:28Z</time>
      </trkpt>
      <trkpt lat="46.2283" lon="-1.46135">
        <ele>-3.8</ele>
        <time>2025-07-03T08:24:36Z</time>
      </trkpt>
      <trkpt lat="46.22831" lon="-1.46113">
        <ele>-3.4</ele>
        <time>2025-07-03T08:24:46Z</time>
      </trkpt>
      <trkpt lat="46.22831" lon="-1.46109">
        <ele>-3.4</ele>
        <time>2025-07-03T08:24:48Z</time>
      </trkpt>
      <trkpt lat="46.2283" lon="-1.46099">
        <ele>-3.2</ele>
        <time>2025-07-03T08:24:53Z</time>
      </trkpt>
      <trkpt lat="46.2283" lon="-1.46082">
        <ele>-3.2</ele>
        <time>2025-07-03T08:25:02Z</time>
      </trkpt>
      <trkpt lat="46.2283" lon="-1.46055">
        <ele>-3</ele>
        <time>2025-07-03T08:25:15Z</time>
      </trkpt>
      <trkpt lat="46.22829" lon="-1.46034">
        <ele>-3.2</ele>
        <time>2025-07-03T08:25:26Z</time>
      </trkpt>
      <trkpt lat="46.22828" lon="-1.4602">
        <ele>-2.8</ele>
        <time>2025-07-03T08:25:33Z</time>
      </trkpt>
      <trkpt lat="46.22827" lon="-1.46014">
        <ele>-3</ele>
        <time>2025-07-03T08:25:36Z</time>
      </trkpt>
      <trkpt lat="46.22827" lon="-1.46">
        <ele>-3</ele>
        <time>2025-07-03T08:25:43Z</time>
      </trkpt>
      <trkpt lat="46.22826" lon="-1.45996">
        <ele>-3</ele>
        <time>2025-07-03T08:25:45Z</time>
      </trkpt>
      <trkpt lat="46.22826" lon="-1.45983">
        <ele>-2.6</ele>
        <time>2025-07-03T08:25:52Z</time>
      </trkpt>
      <trkpt lat="46.22825" lon="-1.45966">
        <ele>-3</ele>
        <time>2025-07-03T08:26:01Z</time>
      </trkpt>
      <trkpt lat="46.22825" lon="-1.45957">
        <ele>-3</ele>
        <time>2025-07-03T08:26:06Z</time>
      </trkpt>
      <trkpt lat="46.22823" lon="-1.4594">
        <ele>-3.6</ele>
        <time>2025-07-03T08:26:15Z</time>
      </trkpt>
      <trkpt lat="46.22823" lon="-1.45925">
        <ele>-3.6</ele>
        <time>2025-07-03T08:26:23Z</time>
      </trkpt>
      <trkpt lat="46.22825" lon="-1.45909">
        <ele>-3.2</ele>
        <time>2025-07-03T08:26:33Z</time>
      </trkpt>
      <trkpt lat="46.22826" lon="-1.45909">
        <ele>-3.4</ele>
        <time>2025-07-03T08:26:35Z</time>
      </trkpt>
      <trkpt lat="46.22826" lon="-1.45908">
        <ele>-3.6</ele>
        <time>2025-07-03T08:26:36Z</time>
      </trkpt>
      <trkpt lat="46.22825" lon="-1.45908">
        <ele>-3.4</ele>
        <time>2025-07-03T08:27:41Z</time>
      </trkpt>
      <trkpt lat="46.22826" lon="-1.459">
        <ele>-4.4</ele>
        <time>2025-07-03T08:27:48Z</time>
      </trkpt>
      <trkpt lat="46.22825" lon="-1.45891">
        <ele>-4.4</ele>
        <time>2025-07-03T08:27:52Z</time>
      </trkpt>
      <trkpt lat="46.22822" lon="-1.45889">
        <ele>-4.2</ele>
        <time>2025-07-03T08:27:55Z</time>
      </trkpt>
      <trkpt lat="46.22813" lon="-1.45894">
        <ele>-4.4</ele>
        <time>2025-07-03T08:28:03Z</time>
      </trkpt>
      <trkpt lat="46.22807" lon="-1.45892">
        <ele>-4.6</ele>
        <time>2025-07-03T08:28:08Z</time>
      </trkpt>
      <trkpt lat="46.22799" lon="-1.45892">
        <ele>-4.6</ele>
        <time>2025-07-03T08:28:13Z</time>
      </trkpt>
      <trkpt lat="46.22786" lon="-1.45894">
        <ele>-5</ele>
        <time>2025-07-03T08:28:23Z</time>
      </trkpt>
      <trkpt lat="46.22781" lon="-1.45895">
        <ele>-5</ele>
        <time>2025-07-03T08:28:27Z</time>
      </trkpt>
      <trkpt lat="46.22776" lon="-1.45896">
        <ele>-5</ele>
        <time>2025-07-03T08:28:31Z</time>
      </trkpt>
      <trkpt lat="46.22765" lon="-1.45897">
        <ele>-4.6</ele>
        <time>2025-07-03T08:28:41Z</time>
      </trkpt>
      <trkpt lat="46.22757" lon="-1.45898">
        <ele>-4.6</ele>
        <time>2025-07-03T08:28:48Z</time>
      </trkpt>
      <trkpt lat="46.22755" lon="-1.45899">
        <ele>-4.6</ele>
        <time>2025-07-03T08:28:49Z</time>
      </trkpt>
      <trkpt lat="46.22741" lon="-1.45902">
        <ele>-4.6</ele>
        <time>2025-07-03T08:29:00Z</time>
      </trkpt>
      <trkpt lat="46.22724" lon="-1.45908">
        <ele>-4.8</ele>
        <time>2025-07-03T08:29:13Z</time>
      </trkpt>
      <trkpt lat="46.22721" lon="-1.45911">
        <ele>-4.6</ele>
        <time>2025-07-03T08:29:19Z</time>
      </trkpt>
      <trkpt lat="46.22722" lon="-1.45911">
        <ele>-4</ele>
        <time>2025-07-03T08:29:27Z</time>
      </trkpt>
      <trkpt lat="46.22717" lon="-1.45913">
        <ele>-4.2</ele>
        <time>2025-07-03T08:29:35Z</time>
      </trkpt>
      <trkpt lat="46.22713" lon="-1.45914">
        <ele>-4.2</ele>
        <time>2025-07-03T08:29:40Z</time>
      </trkpt>
      <trkpt lat="46.22708" lon="-1.45916">
        <ele>-4.2</ele>
        <time>2025-07-03T08:29:45Z</time>
      </trkpt>
      <trkpt lat="46.22707" lon="-1.45917">
        <ele>-4</ele>
        <time>2025-07-03T08:29:52Z</time>
      </trkpt>
      <trkpt lat="46.22703" lon="-1.45913">
        <ele>-4.6</ele>
        <time>2025-07-03T08:30:04Z</time>
      </trkpt>
      <trkpt lat="46.22705" lon="-1.45909">
        <ele>-4.8</ele>
        <time>2025-07-03T08:30:08Z</time>
      </trkpt>
      <trkpt lat="46.22703" lon="-1.459">
        <ele>-5</ele>
        <time>2025-07-03T08:30:14Z</time>
      </trkpt>
      <trkpt lat="46.227" lon="-1.45893">
        <ele>-5</ele>
        <time>2025-07-03T08:30:19Z</time>
      </trkpt>
      <trkpt lat="46.227" lon="-1.45893">
        <ele>-5</ele>
        <time>2025-07-03T08:30:21Z</time>
      </trkpt>
      <trkpt lat="46.22699" lon="-1.45885">
        <ele>-5.2</ele>
        <time>2025-07-03T08:30:26Z</time>
      </trkpt>
      <trkpt lat="46.22699" lon="-1.45868">
        <ele>-5</ele>
        <time>2025-07-03T08:30:36Z</time>
      </trkpt>
      <trkpt lat="46.22697" lon="-1.45857">
        <ele>-5</ele>
        <time>2025-07-03T08:30:41Z</time>
      </trkpt>
      <trkpt lat="46.22696" lon="-1.45853">
        <ele>-5</ele>
        <time>2025-07-03T08:30:43Z</time>
      </trkpt>
      <trkpt lat="46.22695" lon="-1.4584">
        <ele>-4.8</ele>
        <time>2025-07-03T08:30:52Z</time>
      </trkpt>
      <trkpt lat="46.22695" lon="-1.45839">
        <ele>-5</ele>
        <time>2025-07-03T08:30:54Z</time>
      </trkpt>
      <trkpt lat="46.22695" lon="-1.4583">
        <ele>-5.4</ele>
        <time>2025-07-03T08:30:59Z</time>
      </trkpt>
      <trkpt lat="46.22693" lon="-1.45813">
        <ele>-5.2</ele>
        <time>2025-07-03T08:31:08Z</time>
      </trkpt>
      <trkpt lat="46.2269" lon="-1.45799">
        <ele>-5.2</ele>
        <time>2025-07-03T08:31:17Z</time>
      </trkpt>
      <trkpt lat="46.22687" lon="-1.45784">
        <ele>-5</ele>
        <time>2025-07-03T08:31:26Z</time>
      </trkpt>
      <trkpt lat="46.22686" lon="-1.45775">
        <ele>-5</ele>
        <time>2025-07-03T08:31:32Z</time>
      </trkpt>
      <trkpt lat="46.22685" lon="-1.4577">
        <ele>-4.8</ele>
        <time>2025-07-03T08:31:35Z</time>
      </trkpt>
      <trkpt lat="46.22678" lon="-1.45764">
        <ele>-4.6</ele>
        <time>2025-07-03T08:31:42Z</time>
      </trkpt>
      <trkpt lat="46.22672" lon="-1.45768">
        <ele>-4.8</ele>
        <time>2025-07-03T08:31:47Z</time>
      </trkpt>
      <trkpt lat="46.22668" lon="-1.45771">
        <ele>-4.8</ele>
        <time>2025-07-03T08:31:50Z</time>
      </trkpt>
      <trkpt lat="46.22659" lon="-1.45776">
        <ele>-5</ele>
        <time>2025-07-03T08:31:58Z</time>
      </trkpt>
      <trkpt lat="46.22647" lon="-1.45773">
        <ele>-5.2</ele>
        <time>2025-07-03T08:32:06Z</time>
      </trkpt>
      <trkpt lat="46.22635" lon="-1.45765">
        <ele>-5.2</ele>
        <time>2025-07-03T08:32:15Z</time>
      </trkpt>
      <trkpt lat="46.22626" lon="-1.45753">
        <ele>-5.2</ele>
        <time>2025-07-03T08:32:25Z</time>
      </trkpt>
      <trkpt lat="46.22613" lon="-1.45735">
        <ele>-5</ele>
        <time>2025-07-03T08:32:38Z</time>
      </trkpt>
      <trkpt lat="46.2261" lon="-1.45721">
        <ele>-5.2</ele>
        <time>2025-07-03T08:32:46Z</time>
      </trkpt>
      <trkpt lat="46.22606" lon="-1.45697">
        <ele>-5</ele>
        <time>2025-07-03T08:32:58Z</time>
      </trkpt>
      <trkpt lat="46.226" lon="-1.45685">
        <ele>-5</ele>
        <time>2025-07-03T08:33:07Z</time>
      </trkpt>
      <trkpt lat="46.22591" lon="-1.45673">
        <ele>-5.2</ele>
        <time>2025-07-03T08:33:16Z</time>
      </trkpt>
      <trkpt lat="46.22584" lon="-1.45661">
        <ele>-5.2</ele>
        <time>2025-07-03T08:33:23Z</time>
      </trkpt>
      <trkpt lat="46.22584" lon="-1.45659">
        <ele>-5.2</ele>
        <time>2025-07-03T08:33:24Z</time>
      </trkpt>
      <trkpt lat="46.22577" lon="-1.45647">
        <ele>-5.4</ele>
        <time>2025-07-03T08:33:32Z</time>
      </trkpt>
      <trkpt lat="46.22563" lon="-1.45628">
        <ele>-5.8</ele>
        <time>2025-07-03T08:33:46Z</time>
      </trkpt>
      <trkpt lat="46.22561" lon="-1.45627">
        <ele>-5.8</ele>
        <time>2025-07-03T08:33:48Z</time>
      </trkpt>
      <trkpt lat="46.22549" lon="-1.45613">
        <ele>-5.8</ele>
        <time>2025-07-03T08:33:59Z</time>
      </trkpt>
      <trkpt lat="46.22542" lon="-1.45608">
        <ele>-6</ele>
        <time>2025-07-03T08:34:06Z</time>
      </trkpt>
      <trkpt lat="46.2254" lon="-1.45603">
        <ele>-6.6</ele>
        <time>2025-07-03T08:34:09Z</time>
      </trkpt>
      <trkpt lat="46.22536" lon="-1.45596">
        <ele>-7</ele>
        <time>2025-07-03T08:34:14Z</time>
      </trkpt>
      <trkpt lat="46.22533" lon="-1.45592">
        <ele>-7.2</ele>
        <time>2025-07-03T08:34:17Z</time>
      </trkpt>
      <trkpt lat="46.22525" lon="-1.45579">
        <ele>-7.4</ele>
        <time>2025-07-03T08:34:26Z</time>
      </trkpt>
      <trkpt lat="46.22522" lon="-1.45575">
        <ele>-7.4</ele>
        <time>2025-07-03T08:34:29Z</time>
      </trkpt>
      <trkpt lat="46.22518" lon="-1.45565">
        <ele>-7</ele>
        <time>2025-07-03T08:34:35Z</time>
      </trkpt>
      <trkpt lat="46.22517" lon="-1.45561">
        <ele>-6.8</ele>
        <time>2025-07-03T08:34:37Z</time>
      </trkpt>
      <trkpt lat="46.22511" lon="-1.45547">
        <ele>-7.4</ele>
        <time>2025-07-03T08:34:46Z</time>
      </trkpt>
      <trkpt lat="46.22504" lon="-1.45534">
        <ele>-7.4</ele>
        <time>2025-07-03T08:34:55Z</time>
      </trkpt>
      <trkpt lat="46.22502" lon="-1.4553">
        <ele>-7.4</ele>
        <time>2025-07-03T08:34:58Z</time>
      </trkpt>
      <trkpt lat="46.22494" lon="-1.45519">
        <ele>-7.4</ele>
        <time>2025-07-03T08:35:06Z</time>
      </trkpt>
      <trkpt lat="46.22491" lon="-1.45516">
        <ele>-7.6</ele>
        <time>2025-07-03T08:35:09Z</time>
      </trkpt>
      <trkpt lat="46.22486" lon="-1.45512">
        <ele>-7.8</ele>
        <time>2025-07-03T08:35:13Z</time>
      </trkpt>
      <trkpt lat="46.2248" lon="-1.45506">
        <ele>-8.2</ele>
        <time>2025-07-03T08:35:18Z</time>
      </trkpt>
      <trkpt lat="46.22478" lon="-1.45504">
        <ele>-8.2</ele>
        <time>2025-07-03T08:35:20Z</time>
      </trkpt>
      <trkpt lat="46.22467" lon="-1.4549">
        <ele>-8.2</ele>
        <time>2025-07-03T08:35:30Z</time>
      </trkpt>
      <trkpt lat="46.22452" lon="-1.45474">
        <ele>-7.8</ele>
        <time>2025-07-03T08:35:44Z</time>
      </trkpt>
      <trkpt lat="46.22443" lon="-1.45462">
        <ele>-8.2</ele>
        <time>2025-07-03T08:35:53Z</time>
      </trkpt>
      <trkpt lat="46.22435" lon="-1.45447">
        <ele>-8</ele>
        <time>2025-07-03T08:36:02Z</time>
      </trkpt>
      <trkpt lat="46.22434" lon="-1.45442">
        <ele>-8</ele>
        <time>2025-07-03T08:36:04Z</time>
      </trkpt>
      <trkpt lat="46.22429" lon="-1.45431">
        <ele>-8</ele>
        <time>2025-07-03T08:36:12Z</time>
      </trkpt>
      <trkpt lat="46.22423" lon="-1.45417">
        <ele>-7.6</ele>
        <time>2025-07-03T08:36:21Z</time>
      </trkpt>
      <trkpt lat="46.22421" lon="-1.45413">
        <ele>-7.6</ele>
        <time>2025-07-03T08:36:24Z</time>
      </trkpt>
      <trkpt lat="46.22421" lon="-1.45412">
        <ele>-7.8</ele>
        <time>2025-07-03T08:36:25Z</time>
      </trkpt>
      <trkpt lat="46.22419" lon="-1.45407">
        <ele>-7.8</ele>
        <time>2025-07-03T08:36:28Z</time>
      </trkpt>
      <trkpt lat="46.22419" lon="-1.45407">
        <ele>-7.8</ele>
        <time>2025-07-03T08:36:29Z</time>
      </trkpt>
      <trkpt lat="46.22411" lon="-1.45394">
        <ele>-7.8</ele>
        <time>2025-07-03T08:36:37Z</time>
      </trkpt>
      <trkpt lat="46.22402" lon="-1.4538">
        <ele>-7.6</ele>
        <time>2025-07-03T08:36:46Z</time>
      </trkpt>
      <trkpt lat="46.22388" lon="-1.45363">
        <ele>-7.8</ele>
        <time>2025-07-03T08:36:58Z</time>
      </trkpt>
      <trkpt lat="46.22378" lon="-1.45351">
        <ele>-7.8</ele>
        <time>2025-07-03T08:37:07Z</time>
      </trkpt>
      <trkpt lat="46.22376" lon="-1.45349">
        <ele>-7.8</ele>
        <time>2025-07-03T08:37:08Z</time>
      </trkpt>
      <trkpt lat="46.22365" lon="-1.4534">
        <ele>-7.6</ele>
        <time>2025-07-03T08:37:17Z</time>
      </trkpt>
      <trkpt lat="46.22356" lon="-1.45328">
        <ele>-7.6</ele>
        <time>2025-07-03T08:37:26Z</time>
      </trkpt>
      <trkpt lat="46.22346" lon="-1.45312">
        <ele>-7.8</ele>
        <time>2025-07-03T08:37:38Z</time>
      </trkpt>
      <trkpt lat="46.22338" lon="-1.45302">
        <ele>-7.4</ele>
        <time>2025-07-03T08:37:47Z</time>
      </trkpt>
      <trkpt lat="46.22325" lon="-1.45289">
        <ele>-7.4</ele>
        <time>2025-07-03T08:37:58Z</time>
      </trkpt>
      <trkpt lat="46.22315" lon="-1.45276">
        <ele>-7.2</ele>
        <time>2025-07-03T08:38:08Z</time>
      </trkpt>
      <trkpt lat="46.22312" lon="-1.45272">
        <ele>-7.2</ele>
        <time>2025-07-03T08:38:11Z</time>
      </trkpt>
      <trkpt lat="46.22304" lon="-1.45262">
        <ele>-7.2</ele>
        <time>2025-07-03T08:38:17Z</time>
      </trkpt>
      <trkpt lat="46.22296" lon="-1.45254">
        <ele>-7.4</ele>
        <time>2025-07-03T08:38:25Z</time>
      </trkpt>
      <trkpt lat="46.22286" lon="-1.4525">
        <ele>-7.6</ele>
        <time>2025-07-03T08:38:34Z</time>
      </trkpt>
      <trkpt lat="46.2228" lon="-1.45248">
        <ele>-7.8</ele>
        <time>2025-07-03T08:38:39Z</time>
      </trkpt>
      <trkpt lat="46.22278" lon="-1.45247">
        <ele>-7.8</ele>
        <time>2025-07-03T08:38:42Z</time>
      </trkpt>
      <trkpt lat="46.22271" lon="-1.45244">
        <ele>-7.8</ele>
        <time>2025-07-03T08:38:47Z</time>
      </trkpt>
      <trkpt lat="46.22267" lon="-1.45243">
        <ele>-7.8</ele>
        <time>2025-07-03T08:38:50Z</time>
      </trkpt>
      <trkpt lat="46.22261" lon="-1.45238">
        <ele>-7.4</ele>
        <time>2025-07-03T08:38:55Z</time>
      </trkpt>
      <trkpt lat="46.22257" lon="-1.45235">
        <ele>-7.4</ele>
        <time>2025-07-03T08:38:58Z</time>
      </trkpt>
      <trkpt lat="46.22249" lon="-1.45226">
        <ele>-7.8</ele>
        <time>2025-07-03T08:39:06Z</time>
      </trkpt>
      <trkpt lat="46.22248" lon="-1.45224">
        <ele>-7.8</ele>
        <time>2025-07-03T08:39:08Z</time>
      </trkpt>
      <trkpt lat="46.22235" lon="-1.45206">
        <ele>-7.6</ele>
        <time>2025-07-03T08:39:19Z</time>
      </trkpt>
      <trkpt lat="46.2223" lon="-1.45194">
        <ele>-7.6</ele>
        <time>2025-07-03T08:39:27Z</time>
      </trkpt>
      <trkpt lat="46.22226" lon="-1.45187">
        <ele>-7.6</ele>
        <time>2025-07-03T08:39:31Z</time>
      </trkpt>
      <trkpt lat="46.22217" lon="-1.45176">
        <ele>-7.6</ele>
        <time>2025-07-03T08:39:39Z</time>
      </trkpt>
      <trkpt lat="46.22206" lon="-1.45168">
        <ele>-7.8</ele>
        <time>2025-07-03T08:39:48Z</time>
      </trkpt>
      <trkpt lat="46.22192" lon="-1.45162">
        <ele>-8</ele>
        <time>2025-07-03T08:39:58Z</time>
      </trkpt>
      <trkpt lat="46.22182" lon="-1.45159">
        <ele>-8</ele>
        <time>2025-07-03T08:40:06Z</time>
      </trkpt>
      <trkpt lat="46.22167" lon="-1.45154">
        <ele>-8</ele>
        <time>2025-07-03T08:40:17Z</time>
      </trkpt>
      <trkpt lat="46.22157" lon="-1.45152">
        <ele>-8</ele>
        <time>2025-07-03T08:40:25Z</time>
      </trkpt>
      <trkpt lat="46.2215" lon="-1.45153">
        <ele>-8</ele>
        <time>2025-07-03T08:40:30Z</time>
      </trkpt>
      <trkpt lat="46.22149" lon="-1.45157">
        <ele>-7.8</ele>
        <time>2025-07-03T08:40:32Z</time>
      </trkpt>
      <trkpt lat="46.22145" lon="-1.45164">
        <ele>-7.8</ele>
        <time>2025-07-03T08:40:41Z</time>
      </trkpt>
      <trkpt lat="46.22143" lon="-1.45165">
        <ele>-8</ele>
        <time>2025-07-03T08:40:43Z</time>
      </trkpt>
      <trkpt lat="46.2214" lon="-1.45166">
        <ele>-8</ele>
        <time>2025-07-03T08:40:46Z</time>
      </trkpt>
      <trkpt lat="46.22131" lon="-1.45174">
        <ele>-8.2</ele>
        <time>2025-07-03T08:40:54Z</time>
      </trkpt>
      <trkpt lat="46.22128" lon="-1.45181">
        <ele>-8.2</ele>
        <time>2025-07-03T08:40:58Z</time>
      </trkpt>
      <trkpt lat="46.22126" lon="-1.45186">
        <ele>-8</ele>
        <time>2025-07-03T08:41:01Z</time>
      </trkpt>
      <trkpt lat="46.22125" lon="-1.45199">
        <ele>-8</ele>
        <time>2025-07-03T08:41:09Z</time>
      </trkpt>
      <trkpt lat="46.22121" lon="-1.45215">
        <ele>-8</ele>
        <time>2025-07-03T08:41:17Z</time>
      </trkpt>
      <trkpt lat="46.22119" lon="-1.4523">
        <ele>-7.6</ele>
        <time>2025-07-03T08:41:25Z</time>
      </trkpt>
      <trkpt lat="46.22115" lon="-1.45252">
        <ele>-7.6</ele>
        <time>2025-07-03T08:41:36Z</time>
      </trkpt>
      <trkpt lat="46.22112" lon="-1.4527">
        <ele>-7.6</ele>
        <time>2025-07-03T08:41:47Z</time>
      </trkpt>
      <trkpt lat="46.2211" lon="-1.45275">
        <ele>-7.4</ele>
        <time>2025-07-03T08:41:50Z</time>
      </trkpt>
      <trkpt lat="46.22109" lon="-1.45278">
        <ele>-7.4</ele>
        <time>2025-07-03T08:41:52Z</time>
      </trkpt>
      <trkpt lat="46.22105" lon="-1.45283">
        <ele>-7.4</ele>
        <time>2025-07-03T08:41:55Z</time>
      </trkpt>
      <trkpt lat="46.22098" lon="-1.4529">
        <ele>-6.8</ele>
        <time>2025-07-03T08:42:01Z</time>
      </trkpt>
      <trkpt lat="46.22094" lon="-1.45292">
        <ele>-6.6</ele>
        <time>2025-07-03T08:42:04Z</time>
      </trkpt>
      <trkpt lat="46.22086" lon="-1.45297">
        <ele>-7.2</ele>
        <time>2025-07-03T08:42:11Z</time>
      </trkpt>
      <trkpt lat="46.22075" lon="-1.45306">
        <ele>-6.8</ele>
        <time>2025-07-03T08:42:21Z</time>
      </trkpt>
      <trkpt lat="46.22068" lon="-1.45316">
        <ele>-6.6</ele>
        <time>2025-07-03T08:42:29Z</time>
      </trkpt>
      <trkpt lat="46.22067" lon="-1.45319">
        <ele>-6.6</ele>
        <time>2025-07-03T08:42:31Z</time>
      </trkpt>
      <trkpt lat="46.22063" lon="-1.45331">
        <ele>-6.4</ele>
        <time>2025-07-03T08:42:38Z</time>
      </trkpt>
      <trkpt lat="46.22059" lon="-1.45345">
        <ele>-6.4</ele>
        <time>2025-07-03T08:42:45Z</time>
      </trkpt>
      <trkpt lat="46.22059" lon="-1.45347">
        <ele>-6.4</ele>
        <time>2025-07-03T08:42:46Z</time>
      </trkpt>
      <trkpt lat="46.22059" lon="-1.45348">
        <ele>-6.4</ele>
        <time>2025-07-03T08:42:47Z</time>
      </trkpt>
      <trkpt lat="46.22055" lon="-1.45365">
        <ele>-6.2</ele>
        <time>2025-07-03T08:42:55Z</time>
      </trkpt>
      <trkpt lat="46.22055" lon="-1.45368">
        <ele>-6.2</ele>
        <time>2025-07-03T08:42:57Z</time>
      </trkpt>
      <trkpt lat="46.22052" lon="-1.4538">
        <ele>-6.2</ele>
        <time>2025-07-03T08:43:03Z</time>
      </trkpt>
      <trkpt lat="46.22047" lon="-1.45398">
        <ele>-5.8</ele>
        <time>2025-07-03T08:43:13Z</time>
      </trkpt>
      <trkpt lat="46.22044" lon="-1.45411">
        <ele>-5.8</ele>
        <time>2025-07-03T08:43:20Z</time>
      </trkpt>
      <trkpt lat="46.22041" lon="-1.45429">
        <ele>-5.6</ele>
        <time>2025-07-03T08:43:29Z</time>
      </trkpt>
      <trkpt lat="46.2204" lon="-1.45431">
        <ele>-5.6</ele>
        <time>2025-07-03T08:43:30Z</time>
      </trkpt>
      <trkpt lat="46.22039" lon="-1.4544">
        <ele>-5.4</ele>
        <time>2025-07-03T08:43:35Z</time>
      </trkpt>
      <trkpt lat="46.22038" lon="-1.45446">
        <ele>-5.4</ele>
        <time>2025-07-03T08:43:38Z</time>
      </trkpt>
      <trkpt lat="46.22037" lon="-1.45448">
        <ele>-5.4</ele>
        <time>2025-07-03T08:43:39Z</time>
      </trkpt>
      <trkpt lat="46.22036" lon="-1.45458">
        <ele>-5.6</ele>
        <time>2025-07-03T08:43:44Z</time>
      </trkpt>
      <trkpt lat="46.22031" lon="-1.45468">
        <ele>-5.4</ele>
        <time>2025-07-03T08:43:49Z</time>
      </trkpt>
      <trkpt lat="46.22031" lon="-1.4547">
        <ele>-5.4</ele>
        <time>2025-07-03T08:43:50Z</time>
      </trkpt>
      <trkpt lat="46.2203" lon="-1.45473">
        <ele>-5.2</ele>
        <time>2025-07-03T08:43:52Z</time>
      </trkpt>
      <trkpt lat="46.22029" lon="-1.45481">
        <ele>-5</ele>
        <time>2025-07-03T08:43:56Z</time>
      </trkpt>
      <trkpt lat="46.22023" lon="-1.455">
        <ele>-4.8</ele>
        <time>2025-07-03T08:44:06Z</time>
      </trkpt>
      <trkpt lat="46.2202" lon="-1.45506">
        <ele>-5</ele>
        <time>2025-07-03T08:44:09Z</time>
      </trkpt>
      <trkpt lat="46.2202" lon="-1.45512">
        <ele>-5</ele>
        <time>2025-07-03T08:44:12Z</time>
      </trkpt>
      <trkpt lat="46.22016" lon="-1.45527">
        <ele>-5.2</ele>
        <time>2025-07-03T08:44:20Z</time>
      </trkpt>
      <trkpt lat="46.22014" lon="-1.45543">
        <ele>-4.8</ele>
        <time>2025-07-03T08:44:28Z</time>
      </trkpt>
      <trkpt lat="46.22013" lon="-1.45545">
        <ele>-4.8</ele>
        <time>2025-07-03T08:44:29Z</time>
      </trkpt>
      <trkpt lat="46.22013" lon="-1.45547">
        <ele>-4.6</ele>
        <time>2025-07-03T08:44:30Z</time>
      </trkpt>
      <trkpt lat="46.22014" lon="-1.45551">
        <ele>-4.6</ele>
        <time>2025-07-03T08:44:32Z</time>
      </trkpt>
      <trkpt lat="46.22012" lon="-1.45557">
        <ele>-4.6</ele>
        <time>2025-07-03T08:44:35Z</time>
      </trkpt>
      <trkpt lat="46.22008" lon="-1.45572">
        <ele>-4.8</ele>
        <time>2025-07-03T08:44:43Z</time>
      </trkpt>
      <trkpt lat="46.22005" lon="-1.45584">
        <ele>-4.4</ele>
        <time>2025-07-03T08:44:49Z</time>
      </trkpt>
      <trkpt lat="46.22002" lon="-1.45595">
        <ele>-4.4</ele>
        <time>2025-07-03T08:44:55Z</time>
      </trkpt>
      <trkpt lat="46.22" lon="-1.45606">
        <ele>-4.4</ele>
        <time>2025-07-03T08:45:00Z</time>
      </trkpt>
      <trkpt lat="46.21998" lon="-1.45612">
        <ele>-4.2</ele>
        <time>2025-07-03T08:45:04Z</time>
      </trkpt>
      <trkpt lat="46.21997" lon="-1.45614">
        <ele>-4.2</ele>
        <time>2025-07-03T08:45:05Z</time>
      </trkpt>
      <trkpt lat="46.21996" lon="-1.45621">
        <ele>-4.2</ele>
        <time>2025-07-03T08:45:09Z</time>
      </trkpt>
      <trkpt lat="46.21995" lon="-1.45623">
        <ele>-4.2</ele>
        <time>2025-07-03T08:45:10Z</time>
      </trkpt>
      <trkpt lat="46.21995" lon="-1.45625">
        <ele>-4.2</ele>
        <time>2025-07-03T08:45:11Z</time>
      </trkpt>
      <trkpt lat="46.21991" lon="-1.45645">
        <ele>-4</ele>
        <time>2025-07-03T08:45:21Z</time>
      </trkpt>
      <trkpt lat="46.21985" lon="-1.45663">
        <ele>-3.8</ele>
        <time>2025-07-03T08:45:30Z</time>
      </trkpt>
      <trkpt lat="46.21983" lon="-1.45679">
        <ele>-3.8</ele>
        <time>2025-07-03T08:45:38Z</time>
      </trkpt>
      <trkpt lat="46.21983" lon="-1.45683">
        <ele>-3.8</ele>
        <time>2025-07-03T08:45:40Z</time>
      </trkpt>
      <trkpt lat="46.21981" lon="-1.45693">
        <ele>-3.4</ele>
        <time>2025-07-03T08:45:45Z</time>
      </trkpt>
      <trkpt lat="46.2198" lon="-1.45697">
        <ele>-3.4</ele>
        <time>2025-07-03T08:45:47Z</time>
      </trkpt>
      <trkpt lat="46.21977" lon="-1.45714">
        <ele>-3.4</ele>
        <time>2025-07-03T08:45:56Z</time>
      </trkpt>
      <trkpt lat="46.21976" lon="-1.45717">
        <ele>-3.4</ele>
        <time>2025-07-03T08:45:58Z</time>
      </trkpt>
      <trkpt lat="46.21974" lon="-1.45729">
        <ele>-3.4</ele>
        <time>2025-07-03T08:46:04Z</time>
      </trkpt>
      <trkpt lat="46.21971" lon="-1.45744">
        <ele>-3.6</ele>
        <time>2025-07-03T08:46:11Z</time>
      </trkpt>
      <trkpt lat="46.21968" lon="-1.4576">
        <ele>-3.4</ele>
        <time>2025-07-03T08:46:19Z</time>
      </trkpt>
      <trkpt lat="46.21965" lon="-1.45776">
        <ele>-3.4</ele>
        <time>2025-07-03T08:46:27Z</time>
      </trkpt>
      <trkpt lat="46.2196" lon="-1.45797">
        <ele>-3.4</ele>
        <time>2025-07-03T08:46:37Z</time>
      </trkpt>
      <trkpt lat="46.21957" lon="-1.45809">
        <ele>-3.2</ele>
        <time>2025-07-03T08:46:43Z</time>
      </trkpt>
      <trkpt lat="46.21956" lon="-1.45821">
        <ele>-3.4</ele>
        <time>2025-07-03T08:46:49Z</time>
      </trkpt>
      <trkpt lat="46.21953" lon="-1.45826">
        <ele>-3.2</ele>
        <time>2025-07-03T08:46:52Z</time>
      </trkpt>
      <trkpt lat="46.21947" lon="-1.45848">
        <ele>-3.2</ele>
        <time>2025-07-03T08:47:03Z</time>
      </trkpt>
      <trkpt lat="46.21946" lon="-1.45853">
        <ele>-3.2</ele>
        <time>2025-07-03T08:47:06Z</time>
      </trkpt>
      <trkpt lat="46.21944" lon="-1.45862">
        <ele>-3</ele>
        <time>2025-07-03T08:47:11Z</time>
      </trkpt>
      <trkpt lat="46.2194" lon="-1.45881">
        <ele>-3</ele>
        <time>2025-07-03T08:47:20Z</time>
      </trkpt>
      <trkpt lat="46.21936" lon="-1.45896">
        <ele>-2.8</ele>
        <time>2025-07-03T08:47:28Z</time>
      </trkpt>
      <trkpt lat="46.21934" lon="-1.45906">
        <ele>-2.8</ele>
        <time>2025-07-03T08:47:33Z</time>
      </trkpt>
      <trkpt lat="46.21933" lon="-1.45916">
        <ele>-2.8</ele>
        <time>2025-07-03T08:47:38Z</time>
      </trkpt>
      <trkpt lat="46.2193" lon="-1.45927">
        <ele>-2.6</ele>
        <time>2025-07-03T08:47:44Z</time>
      </trkpt>
      <trkpt lat="46.2193" lon="-1.45931">
        <ele>-2.6</ele>
        <time>2025-07-03T08:47:46Z</time>
      </trkpt>
      <trkpt lat="46.21924" lon="-1.45943">
        <ele>-2.8</ele>
        <time>2025-07-03T08:47:53Z</time>
      </trkpt>
      <trkpt lat="46.21916" lon="-1.45949">
        <ele>-2.8</ele>
        <time>2025-07-03T08:48:00Z</time>
      </trkpt>
      <trkpt lat="46.2191" lon="-1.45953">
        <ele>-2.8</ele>
        <time>2025-07-03T08:48:05Z</time>
      </trkpt>
      <trkpt lat="46.21903" lon="-1.45956">
        <ele>-2.8</ele>
        <time>2025-07-03T08:48:10Z</time>
      </trkpt>
      <trkpt lat="46.21896" lon="-1.45958">
        <ele>-2.6</ele>
        <time>2025-07-03T08:48:16Z</time>
      </trkpt>
      <trkpt lat="46.21881" lon="-1.45959">
        <ele>-2.8</ele>
        <time>2025-07-03T08:48:26Z</time>
      </trkpt>
      <trkpt lat="46.21874" lon="-1.45962">
        <ele>-2.8</ele>
        <time>2025-07-03T08:48:32Z</time>
      </trkpt>
      <trkpt lat="46.21873" lon="-1.45962">
        <ele>-2.8</ele>
        <time>2025-07-03T08:48:34Z</time>
      </trkpt>
      <trkpt lat="46.2186" lon="-1.45967">
        <ele>-2.6</ele>
        <time>2025-07-03T08:48:44Z</time>
      </trkpt>
      <trkpt lat="46.21848" lon="-1.45969">
        <ele>-2.8</ele>
        <time>2025-07-03T08:48:53Z</time>
      </trkpt>
      <trkpt lat="46.21845" lon="-1.45969">
        <ele>-2.8</ele>
        <time>2025-07-03T08:48:55Z</time>
      </trkpt>
      <trkpt lat="46.21838" lon="-1.4597">
        <ele>-3</ele>
        <time>2025-07-03T08:49:01Z</time>
      </trkpt>
      <trkpt lat="46.21836" lon="-1.4597">
        <ele>-3.2</ele>
        <time>2025-07-03T08:49:02Z</time>
      </trkpt>
      <trkpt lat="46.21831" lon="-1.45972">
        <ele>-3.2</ele>
        <time>2025-07-03T08:49:06Z</time>
      </trkpt>
      <trkpt lat="46.2182" lon="-1.45975">
        <ele>-3.4</ele>
        <time>2025-07-03T08:49:15Z</time>
      </trkpt>
      <trkpt lat="46.2182" lon="-1.45976">
        <ele>-3.4</ele>
        <time>2025-07-03T08:49:17Z</time>
      </trkpt>
      <trkpt lat="46.21818" lon="-1.45977">
        <ele>-3.4</ele>
        <time>2025-07-03T08:49:21Z</time>
      </trkpt>
      <trkpt lat="46.21817" lon="-1.45979">
        <ele>-3.6</ele>
        <time>2025-07-03T08:49:25Z</time>
      </trkpt>
      <trkpt lat="46.21814" lon="-1.45979">
        <ele>-3.8</ele>
        <time>2025-07-03T08:49:28Z</time>
      </trkpt>
      <trkpt lat="46.21804" lon="-1.45981">
        <ele>-4</ele>
        <time>2025-07-03T08:49:36Z</time>
      </trkpt>
      <trkpt lat="46.21796" lon="-1.45982">
        <ele>-4.2</ele>
        <time>2025-07-03T08:49:43Z</time>
      </trkpt>
      <trkpt lat="46.21794" lon="-1.45982">
        <ele>-4.2</ele>
        <time>2025-07-03T08:49:44Z</time>
      </trkpt>
      <trkpt lat="46.21785" lon="-1.45986">
        <ele>-4.2</ele>
        <time>2025-07-03T08:49:51Z</time>
      </trkpt>
      <trkpt lat="46.21783" lon="-1.45986">
        <ele>-4.4</ele>
        <time>2025-07-03T08:49:54Z</time>
      </trkpt>
      <trkpt lat="46.21781" lon="-1.45988">
        <ele>-3.8</ele>
        <time>2025-07-03T08:49:59Z</time>
      </trkpt>
      <trkpt lat="46.2178" lon="-1.45994">
        <ele>-4.4</ele>
        <time>2025-07-03T08:50:05Z</time>
      </trkpt>
      <trkpt lat="46.21779" lon="-1.45995">
        <ele>-4.6</ele>
        <time>2025-07-03T08:50:06Z</time>
      </trkpt>
      <trkpt lat="46.21776" lon="-1.46">
        <ele>-4.6</ele>
        <time>2025-07-03T08:50:12Z</time>
      </trkpt>
      <trkpt lat="46.21776" lon="-1.46">
        <ele>-4.8</ele>
        <time>2025-07-03T08:50:21Z</time>
      </trkpt>
      <trkpt lat="46.21772" lon="-1.45995">
        <ele>-5.2</ele>
        <time>2025-07-03T08:50:27Z</time>
      </trkpt>
      <trkpt lat="46.21768" lon="-1.45992">
        <ele>-4.6</ele>
        <time>2025-07-03T08:50:31Z</time>
      </trkpt>
      <trkpt lat="46.21762" lon="-1.45993">
        <ele>-4.4</ele>
        <time>2025-07-03T08:50:35Z</time>
      </trkpt>
      <trkpt lat="46.21758" lon="-1.45994">
        <ele>-4.4</ele>
        <time>2025-07-03T08:50:38Z</time>
      </trkpt>
      <trkpt lat="46.21757" lon="-1.45996">
        <ele>-4.4</ele>
        <time>2025-07-03T08:50:40Z</time>
      </trkpt>
      <trkpt lat="46.21757" lon="-1.45998">
        <ele>-4.6</ele>
        <time>2025-07-03T08:50:41Z</time>
      </trkpt>
      <trkpt lat="46.21757" lon="-1.46004">
        <ele>-4.6</ele>
        <time>2025-07-03T08:50:49Z</time>
      </trkpt>
      <trkpt lat="46.21755" lon="-1.46004">
        <ele>-5</ele>
        <time>2025-07-03T08:50:57Z</time>
      </trkpt>
      <trkpt lat="46.21746" lon="-1.45997">
        <ele>-4.8</ele>
        <time>2025-07-03T08:51:04Z</time>
      </trkpt>
      <trkpt lat="46.21739" lon="-1.45988">
        <ele>-5</ele>
        <time>2025-07-03T08:51:12Z</time>
      </trkpt>
      <trkpt lat="46.21722" lon="-1.45985">
        <ele>-4.6</ele>
        <time>2025-07-03T08:51:22Z</time>
      </trkpt>
      <trkpt lat="46.21706" lon="-1.45985">
        <ele>-4.8</ele>
        <time>2025-07-03T08:51:33Z</time>
      </trkpt>
      <trkpt lat="46.21695" lon="-1.45992">
        <ele>-4.8</ele>
        <time>2025-07-03T08:51:42Z</time>
      </trkpt>
      <trkpt lat="46.21686" lon="-1.46002">
        <ele>-4.8</ele>
        <time>2025-07-03T08:51:50Z</time>
      </trkpt>
      <trkpt lat="46.21682" lon="-1.46007">
        <ele>-4.8</ele>
        <time>2025-07-03T08:51:54Z</time>
      </trkpt>
      <trkpt lat="46.21682" lon="-1.46008">
        <ele>-4.8</ele>
        <time>2025-07-03T08:51:56Z</time>
      </trkpt>
      <trkpt lat="46.2168" lon="-1.4601">
        <ele>-4.8</ele>
        <time>2025-07-03T08:52:00Z</time>
      </trkpt>
      <trkpt lat="46.21672" lon="-1.46018">
        <ele>-4.6</ele>
        <time>2025-07-03T08:52:06Z</time>
      </trkpt>
      <trkpt lat="46.21659" lon="-1.46029">
        <ele>-4.8</ele>
        <time>2025-07-03T08:52:17Z</time>
      </trkpt>
      <trkpt lat="46.21647" lon="-1.46042">
        <ele>-4.8</ele>
        <time>2025-07-03T08:52:28Z</time>
      </trkpt>
      <trkpt lat="46.21639" lon="-1.4605">
        <ele>-5</ele>
        <time>2025-07-03T08:52:36Z</time>
      </trkpt>
      <trkpt lat="46.2163" lon="-1.46058">
        <ele>-5</ele>
        <time>2025-07-03T08:52:44Z</time>
      </trkpt>
      <trkpt lat="46.21617" lon="-1.46066">
        <ele>-4.4</ele>
        <time>2025-07-03T08:52:53Z</time>
      </trkpt>
      <trkpt lat="46.21603" lon="-1.4607">
        <ele>-5</ele>
        <time>2025-07-03T08:53:03Z</time>
      </trkpt>
      <trkpt lat="46.21594" lon="-1.46072">
        <ele>-4.6</ele>
        <time>2025-07-03T08:53:10Z</time>
      </trkpt>
      <trkpt lat="46.21589" lon="-1.46074">
        <ele>-4.8</ele>
        <time>2025-07-03T08:53:14Z</time>
      </trkpt>
      <trkpt lat="46.21571" lon="-1.4608">
        <ele>-4.4</ele>
        <time>2025-07-03T08:53:28Z</time>
      </trkpt>
      <trkpt lat="46.21558" lon="-1.46079">
        <ele>-4.4</ele>
        <time>2025-07-03T08:53:38Z</time>
      </trkpt>
      <trkpt lat="46.21547" lon="-1.46079">
        <ele>-4.4</ele>
        <time>2025-07-03T08:53:46Z</time>
      </trkpt>
      <trkpt lat="46.21546" lon="-1.46079">
        <ele>-4.4</ele>
        <time>2025-07-03T08:53:47Z</time>
      </trkpt>
      <trkpt lat="46.21529" lon="-1.46072">
        <ele>-4.4</ele>
        <time>2025-07-03T08:53:59Z</time>
      </trkpt>
      <trkpt lat="46.21519" lon="-1.4607">
        <ele>-4.4</ele>
        <time>2025-07-03T08:54:06Z</time>
      </trkpt>
      <trkpt lat="46.21501" lon="-1.46068">
        <ele>-4.2</ele>
        <time>2025-07-03T08:54:19Z</time>
      </trkpt>
      <trkpt lat="46.215" lon="-1.46068">
        <ele>-4.2</ele>
        <time>2025-07-03T08:54:20Z</time>
      </trkpt>
      <trkpt lat="46.21493" lon="-1.46067">
        <ele>-4.4</ele>
        <time>2025-07-03T08:54:25Z</time>
      </trkpt>
      <trkpt lat="46.21486" lon="-1.46066">
        <ele>-4.4</ele>
        <time>2025-07-03T08:54:31Z</time>
      </trkpt>
      <trkpt lat="46.21469" lon="-1.4606">
        <ele>-4.4</ele>
        <time>2025-07-03T08:54:43Z</time>
      </trkpt>
      <trkpt lat="46.21454" lon="-1.46057">
        <ele>-4.4</ele>
        <time>2025-07-03T08:54:54Z</time>
      </trkpt>
      <trkpt lat="46.2144" lon="-1.46053">
        <ele>-4.8</ele>
        <time>2025-07-03T08:55:06Z</time>
      </trkpt>
      <trkpt lat="46.21426" lon="-1.46049">
        <ele>-4.8</ele>
        <time>2025-07-03T08:55:16Z</time>
      </trkpt>
      <trkpt lat="46.2141" lon="-1.46044">
        <ele>-5.2</ele>
        <time>2025-07-03T08:55:28Z</time>
      </trkpt>
      <trkpt lat="46.21407" lon="-1.46043">
        <ele>-5.2</ele>
        <time>2025-07-03T08:55:30Z</time>
      </trkpt>
      <trkpt lat="46.2139" lon="-1.46037">
        <ele>-5</ele>
        <time>2025-07-03T08:55:42Z</time>
      </trkpt>
      <trkpt lat="46.21376" lon="-1.46033">
        <ele>-4.8</ele>
        <time>2025-07-03T08:55:51Z</time>
      </trkpt>
      <trkpt lat="46.21369" lon="-1.46033">
        <ele>-4.8</ele>
        <time>2025-07-03T08:55:58Z</time>
      </trkpt>
      <trkpt lat="46.21358" lon="-1.46028">
        <ele>-4.6</ele>
        <time>2025-07-03T08:56:06Z</time>
      </trkpt>
      <trkpt lat="46.21342" lon="-1.46023">
        <ele>-4.6</ele>
        <time>2025-07-03T08:56:16Z</time>
      </trkpt>
      <trkpt lat="46.21341" lon="-1.46022">
        <ele>-4.6</ele>
        <time>2025-07-03T08:56:17Z</time>
      </trkpt>
      <trkpt lat="46.21328" lon="-1.46019">
        <ele>-4.6</ele>
        <time>2025-07-03T08:56:27Z</time>
      </trkpt>
      <trkpt lat="46.2131" lon="-1.46012">
        <ele>-4.6</ele>
        <time>2025-07-03T08:56:40Z</time>
      </trkpt>
      <trkpt lat="46.213" lon="-1.46008">
        <ele>-4.4</ele>
        <time>2025-07-03T08:56:48Z</time>
      </trkpt>
      <trkpt lat="46.21285" lon="-1.46004">
        <ele>-4.6</ele>
        <time>2025-07-03T08:56:59Z</time>
      </trkpt>
      <trkpt lat="46.21266" lon="-1.46004">
        <ele>-4.6</ele>
        <time>2025-07-03T08:57:12Z</time>
      </trkpt>
      <trkpt lat="46.21253" lon="-1.46004">
        <ele>-4.8</ele>
        <time>2025-07-03T08:57:22Z</time>
      </trkpt>
      <trkpt lat="46.21238" lon="-1.46005">
        <ele>-4.6</ele>
        <time>2025-07-03T08:57:32Z</time>
      </trkpt>
      <trkpt lat="46.21229" lon="-1.46006">
        <ele>-4.4</ele>
        <time>2025-07-03T08:57:40Z</time>
      </trkpt>
      <trkpt lat="46.21228" lon="-1.46005">
        <ele>-4.4</ele>
        <time>2025-07-03T08:57:41Z</time>
      </trkpt>
      <trkpt lat="46.21225" lon="-1.46002">
        <ele>-4.4</ele>
        <time>2025-07-03T08:57:44Z</time>
      </trkpt>
      <trkpt lat="46.21225" lon="-1.45999">
        <ele>-4.4</ele>
        <time>2025-07-03T08:57:46Z</time>
      </trkpt>
      <trkpt lat="46.21223" lon="-1.45997">
        <ele>-4.4</ele>
        <time>2025-07-03T08:57:53Z</time>
      </trkpt>
      <trkpt lat="46.21224" lon="-1.45997">
        <ele>-4.2</ele>
        <time>2025-07-03T08:58:01Z</time>
      </trkpt>
      <trkpt lat="46.21224" lon="-1.45997">
        <ele>-4.2</ele>
        <time>2025-07-03T08:58:06Z</time>
      </trkpt>
      <trkpt lat="46.21224" lon="-1.45997">
        <ele>-4.2</ele>
        <time>2025-07-03T08:58:10Z</time>
      </trkpt>
      <trkpt lat="46.21223" lon="-1.45997">
        <ele>-4.2</ele>
        <time>2025-07-03T08:58:15Z</time>
      </trkpt>
      <trkpt lat="46.21221" lon="-1.45994">
        <ele>-4.6</ele>
        <time>2025-07-03T08:59:10Z</time>
      </trkpt>
      <trkpt lat="46.21218" lon="-1.4599">
        <ele>-4.4</ele>
        <time>2025-07-03T08:59:18Z</time>
      </trkpt>
      <trkpt lat="46.21218" lon="-1.45988">
        <ele>-4.4</ele>
        <time>2025-07-03T08:59:19Z</time>
      </trkpt>
      <trkpt lat="46.21214" lon="-1.45973">
        <ele>-4.8</ele>
        <time>2025-07-03T08:59:26Z</time>
      </trkpt>
      <trkpt lat="46.21213" lon="-1.45973">
        <ele>-4.8</ele>
        <time>2025-07-03T08:59:27Z</time>
      </trkpt>
      <trkpt lat="46.21208" lon="-1.45973">
        <ele>-4.6</ele>
        <time>2025-07-03T08:59:31Z</time>
      </trkpt>
      <trkpt lat="46.21208" lon="-1.45972">
        <ele>-4.8</ele>
        <time>2025-07-03T08:59:32Z</time>
      </trkpt>
      <trkpt lat="46.21208" lon="-1.45955">
        <ele>-5.2</ele>
        <time>2025-07-03T08:59:41Z</time>
      </trkpt>
      <trkpt lat="46.21201" lon="-1.45954">
        <ele>-5</ele>
        <time>2025-07-03T08:59:47Z</time>
      </trkpt>
      <trkpt lat="46.21192" lon="-1.45956">
        <ele>-5</ele>
        <time>2025-07-03T08:59:53Z</time>
      </trkpt>
      <trkpt lat="46.21188" lon="-1.45959">
        <ele>-5</ele>
        <time>2025-07-03T08:59:56Z</time>
      </trkpt>
      <trkpt lat="46.21175" lon="-1.45961">
        <ele>-4.8</ele>
        <time>2025-07-03T09:00:07Z</time>
      </trkpt>
      <trkpt lat="46.21169" lon="-1.45964">
        <ele>-4.6</ele>
        <time>2025-07-03T09:00:15Z</time>
      </trkpt>
      <trkpt lat="46.21162" lon="-1.45965">
        <ele>-5</ele>
        <time>2025-07-03T09:00:21Z</time>
      </trkpt>
      <trkpt lat="46.2116" lon="-1.45965">
        <ele>-5</ele>
        <time>2025-07-03T09:00:23Z</time>
      </trkpt>
      <trkpt lat="46.21149" lon="-1.45967">
        <ele>-5</ele>
        <time>2025-07-03T09:00:31Z</time>
      </trkpt>
      <trkpt lat="46.21149" lon="-1.45967">
        <ele>-5</ele>
        <time>2025-07-03T09:00:32Z</time>
      </trkpt>
      <trkpt lat="46.21138" lon="-1.45966">
        <ele>-4.8</ele>
        <time>2025-07-03T09:00:40Z</time>
      </trkpt>
      <trkpt lat="46.21122" lon="-1.45965">
        <ele>-4.8</ele>
        <time>2025-07-03T09:00:50Z</time>
      </trkpt>
      <trkpt lat="46.21118" lon="-1.45965">
        <ele>-5</ele>
        <time>2025-07-03T09:00:56Z</time>
      </trkpt>
      <trkpt lat="46.21117" lon="-1.45965">
        <ele>-5</ele>
        <time>2025-07-03T09:00:57Z</time>
      </trkpt>
      <trkpt lat="46.21106" lon="-1.45965">
        <ele>-4.8</ele>
        <time>2025-07-03T09:01:06Z</time>
      </trkpt>
      <trkpt lat="46.21104" lon="-1.45964">
        <ele>-5</ele>
        <time>2025-07-03T09:01:08Z</time>
      </trkpt>
      <trkpt lat="46.21101" lon="-1.45959">
        <ele>-4.8</ele>
        <time>2025-07-03T09:01:12Z</time>
      </trkpt>
      <trkpt lat="46.21099" lon="-1.45946">
        <ele>-4.8</ele>
        <time>2025-07-03T09:01:19Z</time>
      </trkpt>
      <trkpt lat="46.21097" lon="-1.45932">
        <ele>-4.8</ele>
        <time>2025-07-03T09:01:27Z</time>
      </trkpt>
      <trkpt lat="46.21094" lon="-1.45923">
        <ele>-4.4</ele>
        <time>2025-07-03T09:01:32Z</time>
      </trkpt>
      <trkpt lat="46.21092" lon="-1.45916">
        <ele>-4.2</ele>
        <time>2025-07-03T09:01:36Z</time>
      </trkpt>
      <trkpt lat="46.21087" lon="-1.45895">
        <ele>-4.2</ele>
        <time>2025-07-03T09:01:48Z</time>
      </trkpt>
      <trkpt lat="46.21087" lon="-1.45878">
        <ele>-4.4</ele>
        <time>2025-07-03T09:01:56Z</time>
      </trkpt>
      <trkpt lat="46.21086" lon="-1.45865">
        <ele>-4.4</ele>
        <time>2025-07-03T09:02:03Z</time>
      </trkpt>
      <trkpt lat="46.21084" lon="-1.4585">
        <ele>-4.4</ele>
        <time>2025-07-03T09:02:11Z</time>
      </trkpt>
      <trkpt lat="46.21082" lon="-1.45839">
        <ele>-4</ele>
        <time>2025-07-03T09:02:17Z</time>
      </trkpt>
      <trkpt lat="46.21083" lon="-1.45834">
        <ele>-3.8</ele>
        <time>2025-07-03T09:02:19Z</time>
      </trkpt>
      <trkpt lat="46.21079" lon="-1.45819">
        <ele>-4</ele>
        <time>2025-07-03T09:02:27Z</time>
      </trkpt>
      <trkpt lat="46.21075" lon="-1.45803">
        <ele>-4.2</ele>
        <time>2025-07-03T09:02:34Z</time>
      </trkpt>
      <trkpt lat="46.21074" lon="-1.458">
        <ele>-4.2</ele>
        <time>2025-07-03T09:02:36Z</time>
      </trkpt>
      <trkpt lat="46.21071" lon="-1.45788">
        <ele>-4</ele>
        <time>2025-07-03T09:02:42Z</time>
      </trkpt>
      <trkpt lat="46.2107" lon="-1.45781">
        <ele>-4.2</ele>
        <time>2025-07-03T09:02:46Z</time>
      </trkpt>
      <trkpt lat="46.21067" lon="-1.45766">
        <ele>-3.6</ele>
        <time>2025-07-03T09:02:54Z</time>
      </trkpt>
      <trkpt lat="46.21064" lon="-1.45759">
        <ele>-3.4</ele>
        <time>2025-07-03T09:02:57Z</time>
      </trkpt>
      <trkpt lat="46.21062" lon="-1.45747">
        <ele>-4</ele>
        <time>2025-07-03T09:03:03Z</time>
      </trkpt>
      <trkpt lat="46.21061" lon="-1.45739">
        <ele>-3.4</ele>
        <time>2025-07-03T09:03:07Z</time>
      </trkpt>
      <trkpt lat="46.21058" lon="-1.45725">
        <ele>-3.6</ele>
        <time>2025-07-03T09:03:14Z</time>
      </trkpt>
      <trkpt lat="46.21054" lon="-1.45708">
        <ele>-3.4</ele>
        <time>2025-07-03T09:03:23Z</time>
      </trkpt>
      <trkpt lat="46.21053" lon="-1.45703">
        <ele>-3.2</ele>
        <time>2025-07-03T09:03:26Z</time>
      </trkpt>
      <trkpt lat="46.2105" lon="-1.45694">
        <ele>-3.2</ele>
        <time>2025-07-03T09:03:32Z</time>
      </trkpt>
      <trkpt lat="46.21047" lon="-1.4568">
        <ele>-3.2</ele>
        <time>2025-07-03T09:03:40Z</time>
      </trkpt>
      <trkpt lat="46.21046" lon="-1.45675">
        <ele>-3.2</ele>
        <time>2025-07-03T09:03:43Z</time>
      </trkpt>
      <trkpt lat="46.21045" lon="-1.45662">
        <ele>-3.4</ele>
        <time>2025-07-03T09:03:49Z</time>
      </trkpt>
      <trkpt lat="46.21043" lon="-1.45647">
        <ele>-2.6</ele>
        <time>2025-07-03T09:03:57Z</time>
      </trkpt>
      <trkpt lat="46.21038" lon="-1.45633">
        <ele>-2.6</ele>
        <time>2025-07-03T09:04:04Z</time>
      </trkpt>
      <trkpt lat="46.21037" lon="-1.45622">
        <ele>-2.8</ele>
        <time>2025-07-03T09:04:09Z</time>
      </trkpt>
      <trkpt lat="46.21035" lon="-1.45612">
        <ele>-2.8</ele>
        <time>2025-07-03T09:04:15Z</time>
      </trkpt>
      <trkpt lat="46.21036" lon="-1.4561">
        <ele>-2.8</ele>
        <time>2025-07-03T09:04:17Z</time>
      </trkpt>
      <trkpt lat="46.21035" lon="-1.45609">
        <ele>-2.8</ele>
        <time>2025-07-03T09:04:22Z</time>
      </trkpt>
      <trkpt lat="46.21036" lon="-1.45608">
        <ele>-3</ele>
        <time>2025-07-03T09:04:25Z</time>
      </trkpt>
      <trkpt lat="46.21032" lon="-1.45602">
        <ele>-2.6</ele>
        <time>2025-07-03T09:04:31Z</time>
      </trkpt>
      <trkpt lat="46.2103" lon="-1.45596">
        <ele>-2.8</ele>
        <time>2025-07-03T09:04:35Z</time>
      </trkpt>
      <trkpt lat="46.21027" lon="-1.45591">
        <ele>-3</ele>
        <time>2025-07-03T09:04:39Z</time>
      </trkpt>
      <trkpt lat="46.21021" lon="-1.45573">
        <ele>-3.2</ele>
        <time>2025-07-03T09:04:49Z</time>
      </trkpt>
      <trkpt lat="46.21017" lon="-1.45557">
        <ele>-3</ele>
        <time>2025-07-03T09:04:59Z</time>
      </trkpt>
      <trkpt lat="46.21014" lon="-1.45539">
        <ele>-3.2</ele>
        <time>2025-07-03T09:05:09Z</time>
      </trkpt>
      <trkpt lat="46.21011" lon="-1.45522">
        <ele>-3.4</ele>
        <time>2025-07-03T09:05:18Z</time>
      </trkpt>
      <trkpt lat="46.21006" lon="-1.45511">
        <ele>-3.4</ele>
        <time>2025-07-03T09:05:25Z</time>
      </trkpt>
      <trkpt lat="46.21002" lon="-1.45498">
        <ele>-3.4</ele>
        <time>2025-07-03T09:05:33Z</time>
      </trkpt>
      <trkpt lat="46.20995" lon="-1.45479">
        <ele>-3.2</ele>
        <time>2025-07-03T09:05:43Z</time>
      </trkpt>
      <trkpt lat="46.2099" lon="-1.45465">
        <ele>-3.2</ele>
        <time>2025-07-03T09:05:51Z</time>
      </trkpt>
      <trkpt lat="46.20987" lon="-1.45458">
        <ele>-3.2</ele>
        <time>2025-07-03T09:05:56Z</time>
      </trkpt>
      <trkpt lat="46.20986" lon="-1.45453">
        <ele>-3.2</ele>
        <time>2025-07-03T09:05:59Z</time>
      </trkpt>
      <trkpt lat="46.2098" lon="-1.45439">
        <ele>-3.2</ele>
        <time>2025-07-03T09:06:06Z</time>
      </trkpt>
      <trkpt lat="46.2098" lon="-1.45438">
        <ele>-3.2</ele>
        <time>2025-07-03T09:06:07Z</time>
      </trkpt>
      <trkpt lat="46.20973" lon="-1.45427">
        <ele>-3</ele>
        <time>2025-07-03T09:06:15Z</time>
      </trkpt>
      <trkpt lat="46.20969" lon="-1.45414">
        <ele>-3.2</ele>
        <time>2025-07-03T09:06:22Z</time>
      </trkpt>
      <trkpt lat="46.20965" lon="-1.45398">
        <ele>-3</ele>
        <time>2025-07-03T09:06:30Z</time>
      </trkpt>
      <trkpt lat="46.20962" lon="-1.45377">
        <ele>-2.8</ele>
        <time>2025-07-03T09:06:40Z</time>
      </trkpt>
      <trkpt lat="46.2096" lon="-1.45364">
        <ele>-3</ele>
        <time>2025-07-03T09:06:47Z</time>
      </trkpt>
      <trkpt lat="46.20953" lon="-1.45343">
        <ele>-2.8</ele>
        <time>2025-07-03T09:06:58Z</time>
      </trkpt>
      <trkpt lat="46.20947" lon="-1.45328">
        <ele>-2.8</ele>
        <time>2025-07-03T09:07:07Z</time>
      </trkpt>
      <trkpt lat="46.20946" lon="-1.45322">
        <ele>-3</ele>
        <time>2025-07-03T09:07:10Z</time>
      </trkpt>
      <trkpt lat="46.20943" lon="-1.45315">
        <ele>-3.2</ele>
        <time>2025-07-03T09:07:14Z</time>
      </trkpt>
      <trkpt lat="46.20939" lon="-1.45298">
        <ele>-3.4</ele>
        <time>2025-07-03T09:07:23Z</time>
      </trkpt>
      <trkpt lat="46.20935" lon="-1.45282">
        <ele>-3.4</ele>
        <time>2025-07-03T09:07:31Z</time>
      </trkpt>
      <trkpt lat="46.20928" lon="-1.45264">
        <ele>-3.2</ele>
        <time>2025-07-03T09:07:41Z</time>
      </trkpt>
      <trkpt lat="46.20921" lon="-1.45249">
        <ele>-3.2</ele>
        <time>2025-07-03T09:07:51Z</time>
      </trkpt>
      <trkpt lat="46.20913" lon="-1.45226">
        <ele>-3</ele>
        <time>2025-07-03T09:08:04Z</time>
      </trkpt>
      <trkpt lat="46.20907" lon="-1.45209">
        <ele>-3.2</ele>
        <time>2025-07-03T09:08:13Z</time>
      </trkpt>
      <trkpt lat="46.20902" lon="-1.45198">
        <ele>-3</ele>
        <time>2025-07-03T09:08:19Z</time>
      </trkpt>
      <trkpt lat="46.209" lon="-1.45187">
        <ele>-3</ele>
        <time>2025-07-03T09:08:26Z</time>
      </trkpt>
      <trkpt lat="46.20899" lon="-1.45186">
        <ele>-3</ele>
        <time>2025-07-03T09:08:27Z</time>
      </trkpt>
      <trkpt lat="46.20891" lon="-1.45173">
        <ele>-3</ele>
        <time>2025-07-03T09:08:36Z</time>
      </trkpt>
      <trkpt lat="46.20886" lon="-1.45167">
        <ele>-2.8</ele>
        <time>2025-07-03T09:08:43Z</time>
      </trkpt>
      <trkpt lat="46.20886" lon="-1.45164">
        <ele>-3</ele>
        <time>2025-07-03T09:08:45Z</time>
      </trkpt>
      <trkpt lat="46.20884" lon="-1.45157">
        <ele>-2.8</ele>
        <time>2025-07-03T09:08:49Z</time>
      </trkpt>
      <trkpt lat="46.20882" lon="-1.45153">
        <ele>-2.6</ele>
        <time>2025-07-03T09:08:53Z</time>
      </trkpt>
      <trkpt lat="46.20882" lon="-1.45155">
        <ele>-2.6</ele>
        <time>2025-07-03T09:08:55Z</time>
      </trkpt>
      <trkpt lat="46.20881" lon="-1.45155">
        <ele>-2.4</ele>
        <time>2025-07-03T09:08:57Z</time>
      </trkpt>
      <trkpt lat="46.20883" lon="-1.45156">
        <ele>-2.4</ele>
        <time>2025-07-03T09:09:02Z</time>
      </trkpt>
      <trkpt lat="46.20882" lon="-1.45154">
        <ele>-2.6</ele>
        <time>2025-07-03T09:09:10Z</time>
      </trkpt>
      <trkpt lat="46.20882" lon="-1.45155">
        <ele>-2.4</ele>
        <time>2025-07-03T09:09:17Z</time>
      </trkpt>
      <trkpt lat="46.20882" lon="-1.45155">
        <ele>-2.8</ele>
        <time>2025-07-03T09:09:30Z</time>
      </trkpt>
      <trkpt lat="46.2088" lon="-1.45159">
        <ele>-2.6</ele>
        <time>2025-07-03T09:09:52Z</time>
      </trkpt>
      <trkpt lat="46.2088" lon="-1.45159">
        <ele>-2.6</ele>
        <time>2025-07-03T09:09:57Z</time>
      </trkpt>
      <trkpt lat="46.2088" lon="-1.45159">
        <ele>-2.8</ele>
        <time>2025-07-03T09:10:01Z</time>
      </trkpt>
      <trkpt lat="46.20879" lon="-1.45154">
        <ele>-2</ele>
        <time>2025-07-03T09:11:11Z</time>
      </trkpt>
      <trkpt lat="46.20879" lon="-1.45154">
        <ele>-2</ele>
        <time>2025-07-03T09:11:12Z</time>
      </trkpt>
      <trkpt lat="46.2088" lon="-1.45144">
        <ele>-2</ele>
        <time>2025-07-03T09:11:19Z</time>
      </trkpt>
      <trkpt lat="46.20878" lon="-1.45122">
        <ele>-1.8</ele>
        <time>2025-07-03T09:11:28Z</time>
      </trkpt>
      <trkpt lat="46.20873" lon="-1.45104">
        <ele>-1.6</ele>
        <time>2025-07-03T09:11:38Z</time>
      </trkpt>
      <trkpt lat="46.20869" lon="-1.45093">
        <ele>-1.4</ele>
        <time>2025-07-03T09:11:46Z</time>
      </trkpt>
      <trkpt lat="46.20868" lon="-1.45091">
        <ele>-1.4</ele>
        <time>2025-07-03T09:11:47Z</time>
      </trkpt>
      <trkpt lat="46.20867" lon="-1.45089">
        <ele>-1.4</ele>
        <time>2025-07-03T09:11:48Z</time>
      </trkpt>
      <trkpt lat="46.20861" lon="-1.45072">
        <ele>-1.2</ele>
        <time>2025-07-03T09:11:58Z</time>
      </trkpt>
      <trkpt lat="46.20858" lon="-1.45057">
        <ele>-1</ele>
        <time>2025-07-03T09:12:06Z</time>
      </trkpt>
      <trkpt lat="46.20856" lon="-1.45051">
        <ele>-1</ele>
        <time>2025-07-03T09:12:09Z</time>
      </trkpt>
      <trkpt lat="46.20852" lon="-1.4504">
        <ele>-1</ele>
        <time>2025-07-03T09:12:15Z</time>
      </trkpt>
      <trkpt lat="46.20846" lon="-1.45025">
        <ele>-0.60000000000002</ele>
        <time>2025-07-03T09:12:24Z</time>
      </trkpt>
      <trkpt lat="46.20839" lon="-1.45006">
        <ele>-0.60000000000002</ele>
        <time>2025-07-03T09:12:35Z</time>
      </trkpt>
      <trkpt lat="46.20838" lon="-1.45004">
        <ele>-0.39999999999998</ele>
        <time>2025-07-03T09:12:36Z</time>
      </trkpt>
      <trkpt lat="46.20834" lon="-1.44994">
        <ele>0.19999999999999</ele>
        <time>2025-07-03T09:12:42Z</time>
      </trkpt>
      <trkpt lat="46.2083" lon="-1.44985">
        <ele>0.19999999999999</ele>
        <time>2025-07-03T09:12:47Z</time>
      </trkpt>
      <trkpt lat="46.20828" lon="-1.44977">
        <ele>-0.39999999999998</ele>
        <time>2025-07-03T09:12:51Z</time>
      </trkpt>
      <trkpt lat="46.20825" lon="-1.44969">
        <ele>-0.60000000000002</ele>
        <time>2025-07-03T09:12:56Z</time>
      </trkpt>
      <trkpt lat="46.2082" lon="-1.44955">
        <ele>-0.60000000000002</ele>
        <time>2025-07-03T09:13:04Z</time>
      </trkpt>
      <trkpt lat="46.20812" lon="-1.44937">
        <ele>-0.60000000000002</ele>
        <time>2025-07-03T09:13:15Z</time>
      </trkpt>
      <trkpt lat="46.20806" lon="-1.44912">
        <ele>-0.39999999999998</ele>
        <time>2025-07-03T09:13:28Z</time>
      </trkpt>
      <trkpt lat="46.20802" lon="-1.44895">
        <ele>-0.39999999999998</ele>
        <time>2025-07-03T09:13:37Z</time>
      </trkpt>
      <trkpt lat="46.20798" lon="-1.4488">
        <ele>-0.19999999999999</ele>
        <time>2025-07-03T09:13:46Z</time>
      </trkpt>
      <trkpt lat="46.20793" lon="-1.44864">
        <ele>-0.39999999999998</ele>
        <time>2025-07-03T09:13:54Z</time>
      </trkpt>
      <trkpt lat="46.20789" lon="-1.44853">
        <ele>-0.19999999999999</ele>
        <time>2025-07-03T09:14:00Z</time>
      </trkpt>
      <trkpt lat="46.20787" lon="-1.44848">
        <ele>-0.19999999999999</ele>
        <time>2025-07-03T09:14:03Z</time>
      </trkpt>
      <trkpt lat="46.20782" lon="-1.44835">
        <ele>-0.19999999999999</ele>
        <time>2025-07-03T09:14:10Z</time>
      </trkpt>
      <trkpt lat="46.20781" lon="-1.44828">
        <ele>-0.39999999999998</ele>
        <time>2025-07-03T09:14:14Z</time>
      </trkpt>
      <trkpt lat="46.20775" lon="-1.4481">
        <ele>-0.60000000000002</ele>
        <time>2025-07-03T09:14:25Z</time>
      </trkpt>
      <trkpt lat="46.20769" lon="-1.44795">
        <ele>-0.60000000000002</ele>
        <time>2025-07-03T09:14:34Z</time>
      </trkpt>
      <trkpt lat="46.20763" lon="-1.44778">
        <ele>-0.60000000000002</ele>
        <time>2025-07-03T09:14:43Z</time>
      </trkpt>
      <trkpt lat="46.20759" lon="-1.44765">
        <ele>-1</ele>
        <time>2025-07-03T09:14:50Z</time>
      </trkpt>
      <trkpt lat="46.20756" lon="-1.44758">
        <ele>-0.80000000000001</ele>
        <time>2025-07-03T09:14:54Z</time>
      </trkpt>
      <trkpt lat="46.2075" lon="-1.4474">
        <ele>-1</ele>
        <time>2025-07-03T09:15:04Z</time>
      </trkpt>
      <trkpt lat="46.20744" lon="-1.44719">
        <ele>-1.2</ele>
        <time>2025-07-03T09:15:15Z</time>
      </trkpt>
      <trkpt lat="46.20739" lon="-1.44703">
        <ele>-1.2</ele>
        <time>2025-07-03T09:15:24Z</time>
      </trkpt>
      <trkpt lat="46.20733" lon="-1.44684">
        <ele>-0.80000000000001</ele>
        <time>2025-07-03T09:15:34Z</time>
      </trkpt>
      <trkpt lat="46.20727" lon="-1.44663">
        <ele>-1</ele>
        <time>2025-07-03T09:15:45Z</time>
      </trkpt>
      <trkpt lat="46.20721" lon="-1.44647">
        <ele>-0.80000000000001</ele>
        <time>2025-07-03T09:15:54Z</time>
      </trkpt>
      <trkpt lat="46.20715" lon="-1.44628">
        <ele>-0.60000000000002</ele>
        <time>2025-07-03T09:16:05Z</time>
      </trkpt>
      <trkpt lat="46.2071" lon="-1.44611">
        <ele>-0.60000000000002</ele>
        <time>2025-07-03T09:16:14Z</time>
      </trkpt>
      <trkpt lat="46.20708" lon="-1.44606">
        <ele>-0.60000000000002</ele>
        <time>2025-07-03T09:16:17Z</time>
      </trkpt>
      <trkpt lat="46.20704" lon="-1.44597">
        <ele>-0.39999999999998</ele>
        <time>2025-07-03T09:16:22Z</time>
      </trkpt>
      <trkpt lat="46.20701" lon="-1.44587">
        <ele>-0.19999999999999</ele>
        <time>2025-07-03T09:16:27Z</time>
      </trkpt>
      <trkpt lat="46.20695" lon="-1.4457">
        <ele>-0.19999999999999</ele>
        <time>2025-07-03T09:16:37Z</time>
      </trkpt>
      <trkpt lat="46.20692" lon="-1.44564">
        <ele>-0.19999999999999</ele>
        <time>2025-07-03T09:16:41Z</time>
      </trkpt>
      <trkpt lat="46.20689" lon="-1.44555">
        <ele>-0.19999999999999</ele>
        <time>2025-07-03T09:16:46Z</time>
      </trkpt>
      <trkpt lat="46.20681" lon="-1.44531">
        <ele>0.19999999999999</ele>
        <time>2025-07-03T09:16:59Z</time>
      </trkpt>
      <trkpt lat="46.20678" lon="-1.44525">
        <ele>0.19999999999999</ele>
        <time>2025-07-03T09:17:03Z</time>
      </trkpt>
      <trkpt lat="46.20673" lon="-1.44508">
        <ele>0.60000000000002</ele>
        <time>2025-07-03T09:17:13Z</time>
      </trkpt>
      <trkpt lat="46.20668" lon="-1.44492">
        <ele>0.39999999999998</ele>
        <time>2025-07-03T09:17:22Z</time>
      </trkpt>
      <trkpt lat="46.20661" lon="-1.44475">
        <ele>0.39999999999998</ele>
        <time>2025-07-03T09:17:32Z</time>
      </trkpt>
      <trkpt lat="46.2066" lon="-1.44471">
        <ele>0.60000000000002</ele>
        <time>2025-07-03T09:17:34Z</time>
      </trkpt>
      <trkpt lat="46.20659" lon="-1.44462">
        <ele>0.60000000000002</ele>
        <time>2025-07-03T09:17:38Z</time>
      </trkpt>
      <trkpt lat="46.20657" lon="-1.44457">
        <ele>0.60000000000002</ele>
        <time>2025-07-03T09:17:41Z</time>
      </trkpt>
      <trkpt lat="46.20655" lon="-1.44453">
        <ele>0.60000000000002</ele>
        <time>2025-07-03T09:17:43Z</time>
      </trkpt>
      <trkpt lat="46.20653" lon="-1.44447">
        <ele>0.19999999999999</ele>
        <time>2025-07-03T09:17:46Z</time>
      </trkpt>
      <trkpt lat="46.20651" lon="-1.44439">
        <ele>0.39999999999998</ele>
        <time>2025-07-03T09:17:51Z</time>
      </trkpt>
      <trkpt lat="46.20644" lon="-1.44416">
        <ele>0.80000000000001</ele>
        <time>2025-07-03T09:18:03Z</time>
      </trkpt>
      <trkpt lat="46.20639" lon="-1.44405">
        <ele>1.2</ele>
        <time>2025-07-03T09:18:11Z</time>
      </trkpt>
      <trkpt lat="46.20636" lon="-1.44404">
        <ele>1.2</ele>
        <time>2025-07-03T09:18:13Z</time>
      </trkpt>
      <trkpt lat="46.20638" lon="-1.44399">
        <ele>0.60000000000002</ele>
        <time>2025-07-03T09:18:30Z</time>
      </trkpt>
      <trkpt lat="46.20639" lon="-1.44397">
        <ele>0.60000000000002</ele>
        <time>2025-07-03T09:18:31Z</time>
      </trkpt>
      <trkpt lat="46.2064" lon="-1.44396">
        <ele>0.60000000000002</ele>
        <time>2025-07-03T09:18:32Z</time>
      </trkpt>
      <trkpt lat="46.20648" lon="-1.44382">
        <ele>0.19999999999999</ele>
        <time>2025-07-03T09:18:41Z</time>
      </trkpt>
      <trkpt lat="46.20651" lon="-1.44375">
        <ele>0.19999999999999</ele>
        <time>2025-07-03T09:18:45Z</time>
      </trkpt>
      <trkpt lat="46.20652" lon="-1.44373">
        <ele>0.19999999999999</ele>
        <time>2025-07-03T09:18:46Z</time>
      </trkpt>
      <trkpt lat="46.20658" lon="-1.44364">
        <ele>0.19999999999999</ele>
        <time>2025-07-03T09:18:52Z</time>
      </trkpt>
      <trkpt lat="46.20665" lon="-1.44353">
        <ele>0.19999999999999</ele>
        <time>2025-07-03T09:18:59Z</time>
      </trkpt>
      <trkpt lat="46.20667" lon="-1.44351">
        <ele>0.19999999999999</ele>
        <time>2025-07-03T09:19:01Z</time>
      </trkpt>
      <trkpt lat="46.20668" lon="-1.4435">
        <ele>0.19999999999999</ele>
        <time>2025-07-03T09:19:02Z</time>
      </trkpt>
      <trkpt lat="46.20679" lon="-1.44337">
        <ele>-0.39999999999998</ele>
        <time>2025-07-03T09:19:12Z</time>
      </trkpt>
      <trkpt lat="46.2068" lon="-1.44335">
        <ele>-0.39999999999998</ele>
        <time>2025-07-03T09:19:13Z</time>
      </trkpt>
      <trkpt lat="46.20688" lon="-1.44328">
        <ele>-0.19999999999999</ele>
        <time>2025-07-03T09:19:20Z</time>
      </trkpt>
      <trkpt lat="46.20696" lon="-1.44318">
        <ele>-0.60000000000002</ele>
        <time>2025-07-03T09:19:27Z</time>
      </trkpt>
      <trkpt lat="46.207" lon="-1.44313">
        <ele>-0.60000000000002</ele>
        <time>2025-07-03T09:19:30Z</time>
      </trkpt>
      <trkpt lat="46.20704" lon="-1.44309">
        <ele>-0.39999999999998</ele>
        <time>2025-07-03T09:19:33Z</time>
      </trkpt>
      <trkpt lat="46.2071" lon="-1.44303">
        <ele>-0.80000000000001</ele>
        <time>2025-07-03T09:19:37Z</time>
      </trkpt>
      <trkpt lat="46.20718" lon="-1.44295">
        <ele>-0.80000000000001</ele>
        <time>2025-07-03T09:19:45Z</time>
      </trkpt>
      <trkpt lat="46.20729" lon="-1.44283">
        <ele>0.19999999999999</ele>
        <time>2025-07-03T09:19:54Z</time>
      </trkpt>
      <trkpt lat="46.20737" lon="-1.44272">
        <ele>0.39999999999998</ele>
        <time>2025-07-03T09:20:02Z</time>
      </trkpt>
      <trkpt lat="46.20742" lon="-1.44263">
        <ele>0.60000000000002</ele>
        <time>2025-07-03T09:20:08Z</time>
      </trkpt>
      <trkpt lat="46.20745" lon="-1.44259">
        <ele>0.80000000000001</ele>
        <time>2025-07-03T09:20:11Z</time>
      </trkpt>
      <trkpt lat="46.20748" lon="-1.44251">
        <ele>0.80000000000001</ele>
        <time>2025-07-03T09:20:15Z</time>
      </trkpt>
      <trkpt lat="46.20752" lon="-1.44244">
        <ele>1</ele>
        <time>2025-07-03T09:20:20Z</time>
      </trkpt>
      <trkpt lat="46.20753" lon="-1.44242">
        <ele>1</ele>
        <time>2025-07-03T09:20:21Z</time>
      </trkpt>
      <trkpt lat="46.20759" lon="-1.44232">
        <ele>1.2</ele>
        <time>2025-07-03T09:20:28Z</time>
      </trkpt>
      <trkpt lat="46.20761" lon="-1.44227">
        <ele>1</ele>
        <time>2025-07-03T09:20:31Z</time>
      </trkpt>
      <trkpt lat="46.20767" lon="-1.44217">
        <ele>1.6</ele>
        <time>2025-07-03T09:20:37Z</time>
      </trkpt>
      <trkpt lat="46.2077" lon="-1.44212">
        <ele>1.6</ele>
        <time>2025-07-03T09:20:40Z</time>
      </trkpt>
      <trkpt lat="46.20776" lon="-1.44205">
        <ele>1.8</ele>
        <time>2025-07-03T09:20:45Z</time>
      </trkpt>
      <trkpt lat="46.20779" lon="-1.44199">
        <ele>2.2</ele>
        <time>2025-07-03T09:20:49Z</time>
      </trkpt>
      <trkpt lat="46.20783" lon="-1.44193">
        <ele>1.8</ele>
        <time>2025-07-03T09:20:53Z</time>
      </trkpt>
      <trkpt lat="46.20791" lon="-1.4418">
        <ele>2</ele>
        <time>2025-07-03T09:21:01Z</time>
      </trkpt>
      <trkpt lat="46.20792" lon="-1.44177">
        <ele>2</ele>
        <time>2025-07-03T09:21:03Z</time>
      </trkpt>
      <trkpt lat="46.20802" lon="-1.44162">
        <ele>1.6</ele>
        <time>2025-07-03T09:21:14Z</time>
      </trkpt>
      <trkpt lat="46.20812" lon="-1.44146">
        <ele>1.4</ele>
        <time>2025-07-03T09:21:25Z</time>
      </trkpt>
      <trkpt lat="46.2082" lon="-1.44136">
        <ele>1.2</ele>
        <time>2025-07-03T09:21:33Z</time>
      </trkpt>
      <trkpt lat="46.20832" lon="-1.44121">
        <ele>1.2</ele>
        <time>2025-07-03T09:21:45Z</time>
      </trkpt>
      <trkpt lat="46.20843" lon="-1.44107">
        <ele>1.6</ele>
        <time>2025-07-03T09:21:56Z</time>
      </trkpt>
      <trkpt lat="46.20849" lon="-1.44091">
        <ele>1.2</ele>
        <time>2025-07-03T09:22:05Z</time>
      </trkpt>
      <trkpt lat="46.20858" lon="-1.4409">
        <ele>1.6</ele>
        <time>2025-07-03T09:22:13Z</time>
      </trkpt>
      <trkpt lat="46.20871" lon="-1.44089">
        <ele>2</ele>
        <time>2025-07-03T09:22:23Z</time>
      </trkpt>
      <trkpt lat="46.20872" lon="-1.44089">
        <ele>2.8</ele>
        <time>2025-07-03T09:22:26Z</time>
      </trkpt>
      <trkpt lat="46.20872" lon="-1.44089">
        <ele>3</ele>
        <time>2025-07-03T09:22:28Z</time>
      </trkpt>
      <trkpt lat="46.20878" lon="-1.44089">
        <ele>3.4</ele>
        <time>2025-07-03T09:22:34Z</time>
      </trkpt>
      <trkpt lat="46.20881" lon="-1.44087">
        <ele>3</ele>
        <time>2025-07-03T09:22:40Z</time>
      </trkpt>
      <trkpt lat="46.20888" lon="-1.44087">
        <ele>3</ele>
        <time>2025-07-03T09:22:46Z</time>
      </trkpt>
      <trkpt lat="46.2089" lon="-1.44089">
        <ele>3.4</ele>
        <time>2025-07-03T09:22:52Z</time>
      </trkpt>
      <trkpt lat="46.20889" lon="-1.44089">
        <ele>3.4</ele>
        <time>2025-07-03T09:22:53Z</time>
      </trkpt>
      <trkpt lat="46.20889" lon="-1.4409">
        <ele>3.2</ele>
        <time>2025-07-03T09:23:08Z</time>
      </trkpt>
      <trkpt lat="46.20893" lon="-1.44094">
        <ele>3.2</ele>
        <time>2025-07-03T09:23:13Z</time>
      </trkpt>
      <trkpt lat="46.20898" lon="-1.44113">
        <ele>3.2</ele>
        <time>2025-07-03T09:23:22Z</time>
      </trkpt>
      <trkpt lat="46.20901" lon="-1.44119">
        <ele>3.4</ele>
        <time>2025-07-03T09:23:26Z</time>
      </trkpt>
      <trkpt lat="46.20902" lon="-1.4412">
        <ele>3.2</ele>
        <time>2025-07-03T09:23:28Z</time>
      </trkpt>
      <trkpt lat="46.20902" lon="-1.44121">
        <ele>2.4</ele>
        <time>2025-07-03T09:23:33Z</time>
      </trkpt>
      <trkpt lat="46.20898" lon="-1.44121">
        <ele>1.6</ele>
        <time>2025-07-03T09:23:40Z</time>
      </trkpt>
      <trkpt lat="46.20898" lon="-1.44121">
        <ele>1.2</ele>
        <time>2025-07-03T09:23:43Z</time>
      </trkpt>
      <trkpt lat="46.20898" lon="-1.44121">
        <ele>1.2</ele>
        <time>2025-07-03T09:23:48Z</time>
      </trkpt>
      <trkpt lat="46.20898" lon="-1.44121">
        <ele>1</ele>
        <time>2025-07-03T09:23:53Z</time>
      </trkpt>
      <trkpt lat="46.20903" lon="-1.44123">
        <ele>2</ele>
        <time>2025-07-03T09:24:03Z</time>
      </trkpt>
      <trkpt lat="46.20908" lon="-1.44124">
        <ele>2.2</ele>
        <time>2025-07-03T09:24:08Z</time>
      </trkpt>
      <trkpt lat="46.20911" lon="-1.44124">
        <ele>2</ele>
        <time>2025-07-03T09:24:15Z</time>
      </trkpt>
      <trkpt lat="46.20912" lon="-1.44124">
        <ele>1.8</ele>
        <time>2025-07-03T09:24:17Z</time>
      </trkpt>
      <trkpt lat="46.20913" lon="-1.44123">
        <ele>1.8</ele>
        <time>2025-07-03T09:24:18Z</time>
      </trkpt>
      <trkpt lat="46.20915" lon="-1.44121">
        <ele>1.8</ele>
        <time>2025-07-03T09:24:20Z</time>
      </trkpt>
      <trkpt lat="46.20919" lon="-1.44116">
        <ele>1.6</ele>
        <time>2025-07-03T09:24:26Z</time>
      </trkpt>
      <trkpt lat="46.20927" lon="-1.44106">
        <ele>1.8</ele>
        <time>2025-07-03T09:24:34Z</time>
      </trkpt>
      <trkpt lat="46.20935" lon="-1.44087">
        <ele>1.6</ele>
        <time>2025-07-03T09:24:45Z</time>
      </trkpt>
      <trkpt lat="46.20941" lon="-1.44073">
        <ele>1.8</ele>
        <time>2025-07-03T09:24:54Z</time>
      </trkpt>
      <trkpt lat="46.20945" lon="-1.44068">
        <ele>1.8</ele>
        <time>2025-07-03T09:24:57Z</time>
      </trkpt>
      <trkpt lat="46.20949" lon="-1.44053">
        <ele>2</ele>
        <time>2025-07-03T09:25:05Z</time>
      </trkpt>
      <trkpt lat="46.20959" lon="-1.44031">
        <ele>1.8</ele>
        <time>2025-07-03T09:25:18Z</time>
      </trkpt>
      <trkpt lat="46.20959" lon="-1.4403">
        <ele>1.8</ele>
        <time>2025-07-03T09:25:19Z</time>
      </trkpt>
      <trkpt lat="46.20959" lon="-1.44028">
        <ele>1.8</ele>
        <time>2025-07-03T09:25:20Z</time>
      </trkpt>
      <trkpt lat="46.20956" lon="-1.44017">
        <ele>2.4</ele>
        <time>2025-07-03T09:25:26Z</time>
      </trkpt>
      <trkpt lat="46.20953" lon="-1.44011">
        <ele>2.6</ele>
        <time>2025-07-03T09:25:29Z</time>
      </trkpt>
      <trkpt lat="46.20952" lon="-1.44007">
        <ele>2.6</ele>
        <time>2025-07-03T09:25:32Z</time>
      </trkpt>
      <trkpt lat="46.20952" lon="-1.44005">
        <ele>2.6</ele>
        <time>2025-07-03T09:25:34Z</time>
      </trkpt>
      <trkpt lat="46.20951" lon="-1.43994">
        <ele>2</ele>
        <time>2025-07-03T09:25:40Z</time>
      </trkpt>
      <trkpt lat="46.2095" lon="-1.43992">
        <ele>2</ele>
        <time>2025-07-03T09:25:41Z</time>
      </trkpt>
      <trkpt lat="46.20956" lon="-1.43979">
        <ele>2</ele>
        <time>2025-07-03T09:25:50Z</time>
      </trkpt>
      <trkpt lat="46.20965" lon="-1.43969">
        <ele>1.8</ele>
        <time>2025-07-03T09:25:58Z</time>
      </trkpt>
      <trkpt lat="46.20972" lon="-1.43961">
        <ele>2</ele>
        <time>2025-07-03T09:26:05Z</time>
      </trkpt>
      <trkpt lat="46.20977" lon="-1.43957">
        <ele>2</ele>
        <time>2025-07-03T09:26:09Z</time>
      </trkpt>
      <trkpt lat="46.20982" lon="-1.43953">
        <ele>2</ele>
        <time>2025-07-03T09:26:14Z</time>
      </trkpt>
      <trkpt lat="46.20991" lon="-1.43947">
        <ele>2</ele>
        <time>2025-07-03T09:26:22Z</time>
      </trkpt>
      <trkpt lat="46.20998" lon="-1.43943">
        <ele>2.6</ele>
        <time>2025-07-03T09:26:28Z</time>
      </trkpt>
      <trkpt lat="46.21006" lon="-1.43941">
        <ele>2.6</ele>
        <time>2025-07-03T09:26:33Z</time>
      </trkpt>
      <trkpt lat="46.21018" lon="-1.43942">
        <ele>3</ele>
        <time>2025-07-03T09:26:43Z</time>
      </trkpt>
      <trkpt lat="46.21024" lon="-1.43944">
        <ele>2.6</ele>
        <time>2025-07-03T09:26:50Z</time>
      </trkpt>
      <trkpt lat="46.21025" lon="-1.43944">
        <ele>2.6</ele>
        <time>2025-07-03T09:26:51Z</time>
      </trkpt>
      <trkpt lat="46.21028" lon="-1.43942">
        <ele>2</ele>
        <time>2025-07-03T09:26:57Z</time>
      </trkpt>
      <trkpt lat="46.21028" lon="-1.43941">
        <ele>2.4</ele>
        <time>2025-07-03T09:27:02Z</time>
      </trkpt>
      <trkpt lat="46.21028" lon="-1.43941">
        <ele>1.8</ele>
        <time>2025-07-03T09:27:16Z</time>
      </trkpt>
      <trkpt lat="46.21029" lon="-1.43943">
        <ele>1.8</ele>
        <time>2025-07-03T09:27:17Z</time>
      </trkpt>
      <trkpt lat="46.21039" lon="-1.4395">
        <ele>1.8</ele>
        <time>2025-07-03T09:27:24Z</time>
      </trkpt>
      <trkpt lat="46.21044" lon="-1.43951">
        <ele>1.6</ele>
        <time>2025-07-03T09:27:28Z</time>
      </trkpt>
      <trkpt lat="46.21048" lon="-1.43953">
        <ele>1.6</ele>
        <time>2025-07-03T09:27:32Z</time>
      </trkpt>
      <trkpt lat="46.21057" lon="-1.43956">
        <ele>1.6</ele>
        <time>2025-07-03T09:27:41Z</time>
      </trkpt>
      <trkpt lat="46.21058" lon="-1.43957">
        <ele>1.4</ele>
        <time>2025-07-03T09:27:47Z</time>
      </trkpt>
      <trkpt lat="46.21064" lon="-1.43957">
        <ele>1.2</ele>
        <time>2025-07-03T09:27:54Z</time>
      </trkpt>
      <trkpt lat="46.21075" lon="-1.43959">
        <ele>1</ele>
        <time>2025-07-03T09:28:05Z</time>
      </trkpt>
      <trkpt lat="46.21078" lon="-1.43959">
        <ele>1</ele>
        <time>2025-07-03T09:28:08Z</time>
      </trkpt>
      <trkpt lat="46.21083" lon="-1.43961">
        <ele>1</ele>
        <time>2025-07-03T09:28:14Z</time>
      </trkpt>
      <trkpt lat="46.21085" lon="-1.43963">
        <ele>1</ele>
        <time>2025-07-03T09:28:17Z</time>
      </trkpt>
      <trkpt lat="46.21089" lon="-1.43965">
        <ele>0.60000000000002</ele>
        <time>2025-07-03T09:28:21Z</time>
      </trkpt>
      <trkpt lat="46.21098" lon="-1.43965">
        <ele>0.39999999999998</ele>
        <time>2025-07-03T09:28:30Z</time>
      </trkpt>
      <trkpt lat="46.21103" lon="-1.43962">
        <ele>1.2</ele>
        <time>2025-07-03T09:28:38Z</time>
      </trkpt>
      <trkpt lat="46.21108" lon="-1.43959">
        <ele>1.4</ele>
        <time>2025-07-03T09:28:46Z</time>
      </trkpt>
      <trkpt lat="46.21109" lon="-1.43959">
        <ele>1.6</ele>
        <time>2025-07-03T09:28:48Z</time>
      </trkpt>
      <trkpt lat="46.21108" lon="-1.43958">
        <ele>1.8</ele>
        <time>2025-07-03T09:28:56Z</time>
      </trkpt>
      <trkpt lat="46.21104" lon="-1.43957">
        <ele>1.6</ele>
        <time>2025-07-03T09:29:02Z</time>
      </trkpt>
      <trkpt lat="46.21103" lon="-1.43957">
        <ele>1.8</ele>
        <time>2025-07-03T09:29:09Z</time>
      </trkpt>
      <trkpt lat="46.21103" lon="-1.43957">
        <ele>1.8</ele>
        <time>2025-07-03T09:29:15Z</time>
      </trkpt>
      <trkpt lat="46.21103" lon="-1.43957">
        <ele>1.8</ele>
        <time>2025-07-03T09:29:17Z</time>
      </trkpt>
      <trkpt lat="46.21105" lon="-1.4396">
        <ele>1.8</ele>
        <time>2025-07-03T09:29:22Z</time>
      </trkpt>
      <trkpt lat="46.21105" lon="-1.4396">
        <ele>1.8</ele>
        <time>2025-07-03T09:29:25Z</time>
      </trkpt>
      <trkpt lat="46.21105" lon="-1.4396">
        <ele>2</ele>
        <time>2025-07-03T09:29:30Z</time>
      </trkpt>
      <trkpt lat="46.21105" lon="-1.4396">
        <ele>1.8</ele>
        <time>2025-07-03T09:29:33Z</time>
      </trkpt>
      <trkpt lat="46.21105" lon="-1.4396">
        <ele>1.8</ele>
        <time>2025-07-03T09:29:35Z</time>
      </trkpt>
      <trkpt lat="46.21105" lon="-1.4396">
        <ele>1.6</ele>
        <time>2025-07-03T09:29:41Z</time>
      </trkpt>
      <trkpt lat="46.21105" lon="-1.43959">
        <ele>1</ele>
        <time>2025-07-03T09:29:46Z</time>
      </trkpt>
      <trkpt lat="46.21109" lon="-1.43955">
        <ele>0.60000000000002</ele>
        <time>2025-07-03T09:29:50Z</time>
      </trkpt>
      <trkpt lat="46.21111" lon="-1.43954">
        <ele>0.39999999999998</ele>
        <time>2025-07-03T09:29:51Z</time>
      </trkpt>
      <trkpt lat="46.21118" lon="-1.43946">
        <ele>0.60000000000002</ele>
        <time>2025-07-03T09:29:57Z</time>
      </trkpt>
      <trkpt lat="46.21123" lon="-1.43942">
        <ele>0.80000000000001</ele>
        <time>2025-07-03T09:30:01Z</time>
      </trkpt>
      <trkpt lat="46.21133" lon="-1.4393">
        <ele>0.60000000000002</ele>
        <time>2025-07-03T09:30:11Z</time>
      </trkpt>
      <trkpt lat="46.21143" lon="-1.43918">
        <ele>1</ele>
        <time>2025-07-03T09:30:21Z</time>
      </trkpt>
      <trkpt lat="46.21149" lon="-1.43912">
        <ele>1</ele>
        <time>2025-07-03T09:30:26Z</time>
      </trkpt>
      <trkpt lat="46.2116" lon="-1.439">
        <ele>0.80000000000001</ele>
        <time>2025-07-03T09:30:37Z</time>
      </trkpt>
      <trkpt lat="46.21171" lon="-1.43888">
        <ele>0.60000000000002</ele>
        <time>2025-07-03T09:30:47Z</time>
      </trkpt>
      <trkpt lat="46.21178" lon="-1.4388">
        <ele>0.60000000000002</ele>
        <time>2025-07-03T09:30:55Z</time>
      </trkpt>
      <trkpt lat="46.21185" lon="-1.43873">
        <ele>0.60000000000002</ele>
        <time>2025-07-03T09:31:01Z</time>
      </trkpt>
      <trkpt lat="46.21192" lon="-1.43865">
        <ele>1</ele>
        <time>2025-07-03T09:31:07Z</time>
      </trkpt>
      <trkpt lat="46.21202" lon="-1.43852">
        <ele>0.39999999999998</ele>
        <time>2025-07-03T09:31:17Z</time>
      </trkpt>
      <trkpt lat="46.21215" lon="-1.43835">
        <ele>0.80000000000001</ele>
        <time>2025-07-03T09:31:30Z</time>
      </trkpt>
      <trkpt lat="46.21226" lon="-1.43823">
        <ele>1</ele>
        <time>2025-07-03T09:31:40Z</time>
      </trkpt>
      <trkpt lat="46.21236" lon="-1.43812">
        <ele>0.60000000000002</ele>
        <time>2025-07-03T09:31:50Z</time>
      </trkpt>
      <trkpt lat="46.21247" lon="-1.43802">
        <ele>0.80000000000001</ele>
        <time>2025-07-03T09:31:59Z</time>
      </trkpt>
      <trkpt lat="46.21257" lon="-1.4379">
        <ele>1.4</ele>
        <time>2025-07-03T09:32:08Z</time>
      </trkpt>
      <trkpt lat="46.21265" lon="-1.43782">
        <ele>1.2</ele>
        <time>2025-07-03T09:32:16Z</time>
      </trkpt>
      <trkpt lat="46.21268" lon="-1.43778">
        <ele>1</ele>
        <time>2025-07-03T09:32:19Z</time>
      </trkpt>
      <trkpt lat="46.21278" lon="-1.43766">
        <ele>1.4</ele>
        <time>2025-07-03T09:32:28Z</time>
      </trkpt>
      <trkpt lat="46.21282" lon="-1.43761">
        <ele>1.2</ele>
        <time>2025-07-03T09:32:32Z</time>
      </trkpt>
      <trkpt lat="46.2129" lon="-1.43751">
        <ele>0.80000000000001</ele>
        <time>2025-07-03T09:32:40Z</time>
      </trkpt>
      <trkpt lat="46.21302" lon="-1.43746">
        <ele>0.80000000000001</ele>
        <time>2025-07-03T09:32:49Z</time>
      </trkpt>
      <trkpt lat="46.21308" lon="-1.43756">
        <ele>1.4</ele>
        <time>2025-07-03T09:32:56Z</time>
      </trkpt>
      <trkpt lat="46.21316" lon="-1.43774">
        <ele>1.2</ele>
        <time>2025-07-03T09:33:07Z</time>
      </trkpt>
      <trkpt lat="46.21323" lon="-1.43791">
        <ele>1.2</ele>
        <time>2025-07-03T09:33:16Z</time>
      </trkpt>
      <trkpt lat="46.21328" lon="-1.43803">
        <ele>1.2</ele>
        <time>2025-07-03T09:33:23Z</time>
      </trkpt>
      <trkpt lat="46.21335" lon="-1.43817">
        <ele>1.6</ele>
        <time>2025-07-03T09:33:32Z</time>
      </trkpt>
      <trkpt lat="46.2134" lon="-1.43838">
        <ele>1.8</ele>
        <time>2025-07-03T09:33:43Z</time>
      </trkpt>
      <trkpt lat="46.21339" lon="-1.43857">
        <ele>2.2</ele>
        <time>2025-07-03T09:33:53Z</time>
      </trkpt>
      <trkpt lat="46.21337" lon="-1.43876">
        <ele>1.8</ele>
        <time>2025-07-03T09:34:03Z</time>
      </trkpt>
      <trkpt lat="46.21333" lon="-1.43896">
        <ele>1.6</ele>
        <time>2025-07-03T09:34:13Z</time>
      </trkpt>
      <trkpt lat="46.21329" lon="-1.43913">
        <ele>1.4</ele>
        <time>2025-07-03T09:34:22Z</time>
      </trkpt>
      <trkpt lat="46.21327" lon="-1.4392">
        <ele>1.4</ele>
        <time>2025-07-03T09:34:26Z</time>
      </trkpt>
      <trkpt lat="46.21324" lon="-1.43927">
        <ele>1.8</ele>
        <time>2025-07-03T09:34:30Z</time>
      </trkpt>
      <trkpt lat="46.21319" lon="-1.43949">
        <ele>1.2</ele>
        <time>2025-07-03T09:34:42Z</time>
      </trkpt>
      <trkpt lat="46.21313" lon="-1.43965">
        <ele>1.2</ele>
        <time>2025-07-03T09:34:52Z</time>
      </trkpt>
      <trkpt lat="46.21312" lon="-1.43972">
        <ele>1.2</ele>
        <time>2025-07-03T09:34:56Z</time>
      </trkpt>
      <trkpt lat="46.21306" lon="-1.43987">
        <ele>0.80000000000001</ele>
        <time>2025-07-03T09:35:04Z</time>
      </trkpt>
      <trkpt lat="46.21302" lon="-1.44004">
        <ele>0.80000000000001</ele>
        <time>2025-07-03T09:35:13Z</time>
      </trkpt>
      <trkpt lat="46.213" lon="-1.44023">
        <ele>1</ele>
        <time>2025-07-03T09:35:22Z</time>
      </trkpt>
      <trkpt lat="46.21298" lon="-1.44044">
        <ele>1</ele>
        <time>2025-07-03T09:35:32Z</time>
      </trkpt>
      <trkpt lat="46.21297" lon="-1.44065">
        <ele>0.80000000000001</ele>
        <time>2025-07-03T09:35:42Z</time>
      </trkpt>
      <trkpt lat="46.21296" lon="-1.44074">
        <ele>0.60000000000002</ele>
        <time>2025-07-03T09:35:46Z</time>
      </trkpt>
      <trkpt lat="46.21297" lon="-1.44077">
        <ele>0.60000000000002</ele>
        <time>2025-07-03T09:35:48Z</time>
      </trkpt>
      <trkpt lat="46.21298" lon="-1.44078">
        <ele>0.80000000000001</ele>
        <time>2025-07-03T09:35:49Z</time>
      </trkpt>
      <trkpt lat="46.21304" lon="-1.4408">
        <ele>0.60000000000002</ele>
        <time>2025-07-03T09:35:53Z</time>
      </trkpt>
      <trkpt lat="46.2131" lon="-1.4408">
        <ele>0.19999999999999</ele>
        <time>2025-07-03T09:35:57Z</time>
      </trkpt>
      <trkpt lat="46.21326" lon="-1.44081">
        <ele>1</ele>
        <time>2025-07-03T09:36:09Z</time>
      </trkpt>
      <trkpt lat="46.21336" lon="-1.44081">
        <ele>1.2</ele>
        <time>2025-07-03T09:36:16Z</time>
      </trkpt>
      <trkpt lat="46.2134" lon="-1.44081">
        <ele>1</ele>
        <time>2025-07-03T09:36:19Z</time>
      </trkpt>
      <trkpt lat="46.21353" lon="-1.44083">
        <ele>0.60000000000002</ele>
        <time>2025-07-03T09:36:28Z</time>
      </trkpt>
      <trkpt lat="46.21366" lon="-1.44086">
        <ele>0.80000000000001</ele>
        <time>2025-07-03T09:36:37Z</time>
      </trkpt>
      <trkpt lat="46.21371" lon="-1.44087">
        <ele>0.39999999999998</ele>
        <time>2025-07-03T09:36:41Z</time>
      </trkpt>
      <trkpt lat="46.21378" lon="-1.44088">
        <ele>0.39999999999998</ele>
        <time>2025-07-03T09:36:47Z</time>
      </trkpt>
      <trkpt lat="46.21384" lon="-1.44089">
        <ele>1</ele>
        <time>2025-07-03T09:36:52Z</time>
      </trkpt>
      <trkpt lat="46.21393" lon="-1.4409">
        <ele>0.39999999999998</ele>
        <time>2025-07-03T09:36:58Z</time>
      </trkpt>
      <trkpt lat="46.21404" lon="-1.44091">
        <ele>0.80000000000001</ele>
        <time>2025-07-03T09:37:06Z</time>
      </trkpt>
      <trkpt lat="46.21408" lon="-1.44092">
        <ele>0.80000000000001</ele>
        <time>2025-07-03T09:37:09Z</time>
      </trkpt>
      <trkpt lat="46.21418" lon="-1.44093">
        <ele>0.60000000000002</ele>
        <time>2025-07-03T09:37:16Z</time>
      </trkpt>
      <trkpt lat="46.21423" lon="-1.44087">
        <ele>0.80000000000001</ele>
        <time>2025-07-03T09:37:21Z</time>
      </trkpt>
      <trkpt lat="46.21424" lon="-1.44085">
        <ele>0.80000000000001</ele>
        <time>2025-07-03T09:37:22Z</time>
      </trkpt>
      <trkpt lat="46.21424" lon="-1.44069">
        <ele>0.80000000000001</ele>
        <time>2025-07-03T09:37:31Z</time>
      </trkpt>
      <trkpt lat="46.21425" lon="-1.44048">
        <ele>1</ele>
        <time>2025-07-03T09:37:43Z</time>
      </trkpt>
      <trkpt lat="46.21424" lon="-1.44025">
        <ele>0.80000000000001</ele>
        <time>2025-07-03T09:37:56Z</time>
      </trkpt>
      <trkpt lat="46.21424" lon="-1.4401">
        <ele>0.80000000000001</ele>
        <time>2025-07-03T09:38:05Z</time>
      </trkpt>
      <trkpt lat="46.21424" lon="-1.44009">
        <ele>1</ele>
        <time>2025-07-03T09:38:09Z</time>
      </trkpt>
      <trkpt lat="46.21424" lon="-1.44008">
        <ele>1</ele>
        <time>2025-07-03T09:38:10Z</time>
      </trkpt>
      <trkpt lat="46.21423" lon="-1.43999">
        <ele>0.19999999999999</ele>
        <time>2025-07-03T09:38:16Z</time>
      </trkpt>
      <trkpt lat="46.21424" lon="-1.4399">
        <ele>-0.19999999999999</ele>
        <time>2025-07-03T09:38:20Z</time>
      </trkpt>
      <trkpt lat="46.21424" lon="-1.43979">
        <ele>0.19999999999999</ele>
        <time>2025-07-03T09:38:26Z</time>
      </trkpt>
      <trkpt lat="46.21424" lon="-1.43976">
        <ele>0.19999999999999</ele>
        <time>2025-07-03T09:38:28Z</time>
      </trkpt>
      <trkpt lat="46.21424" lon="-1.43966">
        <ele>-0.19999999999999</ele>
        <time>2025-07-03T09:38:33Z</time>
      </trkpt>
      <trkpt lat="46.21426" lon="-1.43954">
        <ele>-0.39999999999998</ele>
        <time>2025-07-03T09:38:39Z</time>
      </trkpt>
      <trkpt lat="46.21427" lon="-1.43949">
        <ele>-0.60000000000002</ele>
        <time>2025-07-03T09:38:42Z</time>
      </trkpt>
      <trkpt lat="46.21429" lon="-1.43941">
        <ele>-0.60000000000002</ele>
        <time>2025-07-03T09:38:46Z</time>
      </trkpt>
      <trkpt lat="46.21431" lon="-1.43937">
        <ele>-0.60000000000002</ele>
        <time>2025-07-03T09:38:49Z</time>
      </trkpt>
      <trkpt lat="46.21434" lon="-1.43932">
        <ele>-0.60000000000002</ele>
        <time>2025-07-03T09:38:52Z</time>
      </trkpt>
      <trkpt lat="46.21441" lon="-1.43918">
        <ele>-0.80000000000001</ele>
        <time>2025-07-03T09:39:02Z</time>
      </trkpt>
      <trkpt lat="46.21453" lon="-1.43908">
        <ele>-0.80000000000001</ele>
        <time>2025-07-03T09:39:12Z</time>
      </trkpt>
      <trkpt lat="46.21467" lon="-1.43905">
        <ele>-0.80000000000001</ele>
        <time>2025-07-03T09:39:22Z</time>
      </trkpt>
      <trkpt lat="46.21483" lon="-1.43904">
        <ele>-0.80000000000001</ele>
        <time>2025-07-03T09:39:33Z</time>
      </trkpt>
      <trkpt lat="46.21492" lon="-1.43909">
        <ele>-0.60000000000002</ele>
        <time>2025-07-03T09:39:41Z</time>
      </trkpt>
      <trkpt lat="46.21506" lon="-1.43914">
        <ele>-0.60000000000002</ele>
        <time>2025-07-03T09:39:51Z</time>
      </trkpt>
      <trkpt lat="46.21519" lon="-1.43922">
        <ele>-0.19999999999999</ele>
        <time>2025-07-03T09:40:01Z</time>
      </trkpt>
      <trkpt lat="46.21534" lon="-1.43931">
        <ele>-0.19999999999999</ele>
        <time>2025-07-03T09:40:12Z</time>
      </trkpt>
      <trkpt lat="46.21542" lon="-1.43937">
        <ele>-0.19999999999999</ele>
        <time>2025-07-03T09:40:20Z</time>
      </trkpt>
      <trkpt lat="46.21553" lon="-1.43946">
        <ele>-0.19999999999999</ele>
        <time>2025-07-03T09:40:29Z</time>
      </trkpt>
      <trkpt lat="46.21556" lon="-1.43947">
        <ele>-0.19999999999999</ele>
        <time>2025-07-03T09:40:31Z</time>
      </trkpt>
      <trkpt lat="46.21563" lon="-1.43952">
        <ele>0.19999999999999</ele>
        <time>2025-07-03T09:40:37Z</time>
      </trkpt>
      <trkpt lat="46.21572" lon="-1.43958">
        <ele>0.39999999999998</ele>
        <time>2025-07-03T09:40:45Z</time>
      </trkpt>
      <trkpt lat="46.21573" lon="-1.4396">
        <ele>0.39999999999998</ele>
        <time>2025-07-03T09:40:46Z</time>
      </trkpt>
      <trkpt lat="46.2158" lon="-1.43962">
        <ele>-0.39999999999998</ele>
        <time>2025-07-03T09:40:52Z</time>
      </trkpt>
      <trkpt lat="46.21582" lon="-1.43959">
        <ele>-0.60000000000002</ele>
        <time>2025-07-03T09:40:54Z</time>
      </trkpt>
      <trkpt lat="46.21587" lon="-1.4395">
        <ele>-0.39999999999998</ele>
        <time>2025-07-03T09:41:01Z</time>
      </trkpt>
      <trkpt lat="46.21589" lon="-1.43945">
        <ele>0.19999999999999</ele>
        <time>2025-07-03T09:41:08Z</time>
      </trkpt>
      <trkpt lat="46.21588" lon="-1.43943">
        <ele>0.19999999999999</ele>
        <time>2025-07-03T09:41:15Z</time>
      </trkpt>
      <trkpt lat="46.21588" lon="-1.43942">
        <ele>0.19999999999999</ele>
        <time>2025-07-03T09:41:19Z</time>
      </trkpt>
      <trkpt lat="46.21588" lon="-1.43942">
        <ele>0.19999999999999</ele>
        <time>2025-07-03T09:41:22Z</time>
      </trkpt>
      <trkpt lat="46.21588" lon="-1.43942">
        <ele>0.19999999999999</ele>
        <time>2025-07-03T09:41:26Z</time>
      </trkpt>
      <trkpt lat="46.21588" lon="-1.43943">
        <ele>-0.60000000000002</ele>
        <time>2025-07-03T09:41:34Z</time>
      </trkpt>
      <trkpt lat="46.21593" lon="-1.43939">
        <ele>-0.80000000000001</ele>
        <time>2025-07-03T09:41:41Z</time>
      </trkpt>
      <trkpt lat="46.21597" lon="-1.43936">
        <ele>-1.2</ele>
        <time>2025-07-03T09:41:45Z</time>
      </trkpt>
      <trkpt lat="46.21598" lon="-1.43936">
        <ele>-1.6</ele>
        <time>2025-07-03T09:41:47Z</time>
      </trkpt>
      <trkpt lat="46.216" lon="-1.43935">
        <ele>-2</ele>
        <time>2025-07-03T09:41:49Z</time>
      </trkpt>
      <trkpt lat="46.21609" lon="-1.43937">
        <ele>-1.8</ele>
        <time>2025-07-03T09:41:57Z</time>
      </trkpt>
      <trkpt lat="46.21615" lon="-1.4394">
        <ele>-2</ele>
        <time>2025-07-03T09:42:03Z</time>
      </trkpt>
      <trkpt lat="46.21622" lon="-1.43943">
        <ele>-2</ele>
        <time>2025-07-03T09:42:09Z</time>
      </trkpt>
      <trkpt lat="46.21623" lon="-1.43944">
        <ele>-2</ele>
        <time>2025-07-03T09:42:10Z</time>
      </trkpt>
      <trkpt lat="46.21625" lon="-1.43946">
        <ele>-2</ele>
        <time>2025-07-03T09:42:12Z</time>
      </trkpt>
      <trkpt lat="46.21626" lon="-1.43949">
        <ele>-2</ele>
        <time>2025-07-03T09:42:14Z</time>
      </trkpt>
      <trkpt lat="46.21627" lon="-1.43949">
        <ele>-2</ele>
        <time>2025-07-03T09:42:15Z</time>
      </trkpt>
      <trkpt lat="46.21628" lon="-1.43948">
        <ele>-1.8</ele>
        <time>2025-07-03T09:42:16Z</time>
      </trkpt>
      <trkpt lat="46.21633" lon="-1.43945">
        <ele>-1.8</ele>
        <time>2025-07-03T09:42:20Z</time>
      </trkpt>
      <trkpt lat="46.21636" lon="-1.43942">
        <ele>-1.8</ele>
        <time>2025-07-03T09:42:23Z</time>
      </trkpt>
      <trkpt lat="46.21636" lon="-1.43937">
        <ele>-1.8</ele>
        <time>2025-07-03T09:42:26Z</time>
      </trkpt>
      <trkpt lat="46.21633" lon="-1.43933">
        <ele>-1.8</ele>
        <time>2025-07-03T09:42:29Z</time>
      </trkpt>
      <trkpt lat="46.21632" lon="-1.43927">
        <ele>-1.8</ele>
        <time>2025-07-03T09:42:32Z</time>
      </trkpt>
      <trkpt lat="46.21633" lon="-1.4392">
        <ele>-1.8</ele>
        <time>2025-07-03T09:42:36Z</time>
      </trkpt>
      <trkpt lat="46.21635" lon="-1.43917">
        <ele>-1.8</ele>
        <time>2025-07-03T09:42:39Z</time>
      </trkpt>
      <trkpt lat="46.21637" lon="-1.43916">
        <ele>-1.8</ele>
        <time>2025-07-03T09:42:41Z</time>
      </trkpt>
      <trkpt lat="46.21645" lon="-1.43913">
        <ele>-1.8</ele>
        <time>2025-07-03T09:42:48Z</time>
      </trkpt>
      <trkpt lat="46.21646" lon="-1.43912">
        <ele>-1.8</ele>
        <time>2025-07-03T09:42:49Z</time>
      </trkpt>
      <trkpt lat="46.21659" lon="-1.43907">
        <ele>-2</ele>
        <time>2025-07-03T09:42:58Z</time>
      </trkpt>
      <trkpt lat="46.21665" lon="-1.43905">
        <ele>-1.6</ele>
        <time>2025-07-03T09:43:03Z</time>
      </trkpt>
      <trkpt lat="46.21664" lon="-1.43903">
        <ele>-1.4</ele>
        <time>2025-07-03T09:43:05Z</time>
      </trkpt>
      <trkpt lat="46.21663" lon="-1.43902">
        <ele>-1.2</ele>
        <time>2025-07-03T09:43:06Z</time>
      </trkpt>
      <trkpt lat="46.21663" lon="-1.439">
        <ele>-1.2</ele>
        <time>2025-07-03T09:43:07Z</time>
      </trkpt>
      <trkpt lat="46.21663" lon="-1.43895">
        <ele>-1.2</ele>
        <time>2025-07-03T09:43:09Z</time>
      </trkpt>
      <trkpt lat="46.21663" lon="-1.43893">
        <ele>-1.2</ele>
        <time>2025-07-03T09:43:10Z</time>
      </trkpt>
      <trkpt lat="46.21662" lon="-1.43884">
        <ele>-1.2</ele>
        <time>2025-07-03T09:43:15Z</time>
      </trkpt>
      <trkpt lat="46.21661" lon="-1.4388">
        <ele>-1.2</ele>
        <time>2025-07-03T09:43:17Z</time>
      </trkpt>
      <trkpt lat="46.2166" lon="-1.43877">
        <ele>-1.2</ele>
        <time>2025-07-03T09:43:18Z</time>
      </trkpt>
      <trkpt lat="46.21659" lon="-1.4387">
        <ele>-1.4</ele>
        <time>2025-07-03T09:43:22Z</time>
      </trkpt>
      <trkpt lat="46.21657" lon="-1.43866">
        <ele>-1.4</ele>
        <time>2025-07-03T09:43:24Z</time>
      </trkpt>
      <trkpt lat="46.21656" lon="-1.43864">
        <ele>-1.4</ele>
        <time>2025-07-03T09:43:25Z</time>
      </trkpt>
      <trkpt lat="46.21652" lon="-1.43852">
        <ele>-1.6</ele>
        <time>2025-07-03T09:43:32Z</time>
      </trkpt>
      <trkpt lat="46.21651" lon="-1.43848">
        <ele>-1.4</ele>
        <time>2025-07-03T09:43:34Z</time>
      </trkpt>
      <trkpt lat="46.21652" lon="-1.43839">
        <ele>-1.6</ele>
        <time>2025-07-03T09:43:39Z</time>
      </trkpt>
      <trkpt lat="46.21653" lon="-1.43836">
        <ele>-1.6</ele>
        <time>2025-07-03T09:43:41Z</time>
      </trkpt>
      <trkpt lat="46.21662" lon="-1.43828">
        <ele>-1.4</ele>
        <time>2025-07-03T09:43:49Z</time>
      </trkpt>
      <trkpt lat="46.21675" lon="-1.43819">
        <ele>-1.4</ele>
        <time>2025-07-03T09:43:59Z</time>
      </trkpt>
      <trkpt lat="46.21678" lon="-1.43816">
        <ele>-1.4</ele>
        <time>2025-07-03T09:44:02Z</time>
      </trkpt>
      <trkpt lat="46.21687" lon="-1.43811">
        <ele>-1.6</ele>
        <time>2025-07-03T09:44:09Z</time>
      </trkpt>
      <trkpt lat="46.21698" lon="-1.43805">
        <ele>-1.4</ele>
        <time>2025-07-03T09:44:18Z</time>
      </trkpt>
      <trkpt lat="46.21709" lon="-1.43794">
        <ele>-1.8</ele>
        <time>2025-07-03T09:44:28Z</time>
      </trkpt>
      <trkpt lat="46.21717" lon="-1.43781">
        <ele>-1.4</ele>
        <time>2025-07-03T09:44:37Z</time>
      </trkpt>
      <trkpt lat="46.21718" lon="-1.43762">
        <ele>-1.2</ele>
        <time>2025-07-03T09:44:46Z</time>
      </trkpt>
      <trkpt lat="46.21713" lon="-1.43746">
        <ele>-1.2</ele>
        <time>2025-07-03T09:44:55Z</time>
      </trkpt>
      <trkpt lat="46.21713" lon="-1.43744">
        <ele>-1.2</ele>
        <time>2025-07-03T09:44:56Z</time>
      </trkpt>
      <trkpt lat="46.21708" lon="-1.43727">
        <ele>-1.2</ele>
        <time>2025-07-03T09:45:05Z</time>
      </trkpt>
      <trkpt lat="46.21703" lon="-1.43712">
        <ele>-1.2</ele>
        <time>2025-07-03T09:45:13Z</time>
      </trkpt>
      <trkpt lat="46.21696" lon="-1.43693">
        <ele>-1.2</ele>
        <time>2025-07-03T09:45:24Z</time>
      </trkpt>
      <trkpt lat="46.21693" lon="-1.4368">
        <ele>-1</ele>
        <time>2025-07-03T09:45:31Z</time>
      </trkpt>
      <trkpt lat="46.21686" lon="-1.43659">
        <ele>-1.2</ele>
        <time>2025-07-03T09:45:43Z</time>
      </trkpt>
      <trkpt lat="46.21682" lon="-1.43646">
        <ele>-1.6</ele>
        <time>2025-07-03T09:45:51Z</time>
      </trkpt>
      <trkpt lat="46.21679" lon="-1.43636">
        <ele>-1.4</ele>
        <time>2025-07-03T09:45:56Z</time>
      </trkpt>
      <trkpt lat="46.21677" lon="-1.4363">
        <ele>-1.4</ele>
        <time>2025-07-03T09:45:59Z</time>
      </trkpt>
      <trkpt lat="46.21671" lon="-1.43609">
        <ele>-1.6</ele>
        <time>2025-07-03T09:46:10Z</time>
      </trkpt>
      <trkpt lat="46.21671" lon="-1.43608">
        <ele>-1.6</ele>
        <time>2025-07-03T09:46:11Z</time>
      </trkpt>
      <trkpt lat="46.21669" lon="-1.43602">
        <ele>-1.2</ele>
        <time>2025-07-03T09:46:14Z</time>
      </trkpt>
      <trkpt lat="46.21666" lon="-1.43591">
        <ele>-1.4</ele>
        <time>2025-07-03T09:46:20Z</time>
      </trkpt>
      <trkpt lat="46.2166" lon="-1.43575">
        <ele>-1.4</ele>
        <time>2025-07-03T09:46:29Z</time>
      </trkpt>
      <trkpt lat="46.21654" lon="-1.43557">
        <ele>-1.4</ele>
        <time>2025-07-03T09:46:38Z</time>
      </trkpt>
      <trkpt lat="46.21649" lon="-1.43541">
        <ele>-1.4</ele>
        <time>2025-07-03T09:46:47Z</time>
      </trkpt>
      <trkpt lat="46.21642" lon="-1.4352">
        <ele>-1.6</ele>
        <time>2025-07-03T09:46:58Z</time>
      </trkpt>
      <trkpt lat="46.21635" lon="-1.43499">
        <ele>-1.8</ele>
        <time>2025-07-03T09:47:09Z</time>
      </trkpt>
      <trkpt lat="46.21632" lon="-1.43482">
        <ele>-1.8</ele>
        <time>2025-07-03T09:47:18Z</time>
      </trkpt>
      <trkpt lat="46.21629" lon="-1.43473">
        <ele>-1.8</ele>
        <time>2025-07-03T09:47:23Z</time>
      </trkpt>
      <trkpt lat="46.21628" lon="-1.4347">
        <ele>-1.8</ele>
        <time>2025-07-03T09:47:25Z</time>
      </trkpt>
      <trkpt lat="46.21626" lon="-1.43463">
        <ele>-1.8</ele>
        <time>2025-07-03T09:47:29Z</time>
      </trkpt>
      <trkpt lat="46.21619" lon="-1.43441">
        <ele>-1.8</ele>
        <time>2025-07-03T09:47:40Z</time>
      </trkpt>
      <trkpt lat="46.21615" lon="-1.43427">
        <ele>-2</ele>
        <time>2025-07-03T09:47:48Z</time>
      </trkpt>
      <trkpt lat="46.21614" lon="-1.43411">
        <ele>-2.6</ele>
        <time>2025-07-03T09:47:56Z</time>
      </trkpt>
      <trkpt lat="46.21614" lon="-1.43409">
        <ele>-2.8</ele>
        <time>2025-07-03T09:47:57Z</time>
      </trkpt>
      <trkpt lat="46.21619" lon="-1.43392">
        <ele>-2.8</ele>
        <time>2025-07-03T09:48:07Z</time>
      </trkpt>
      <trkpt lat="46.21625" lon="-1.43377">
        <ele>-2.4</ele>
        <time>2025-07-03T09:48:15Z</time>
      </trkpt>
      <trkpt lat="46.21632" lon="-1.43362">
        <ele>-3.4</ele>
        <time>2025-07-03T09:48:24Z</time>
      </trkpt>
      <trkpt lat="46.21639" lon="-1.4334">
        <ele>-2.8</ele>
        <time>2025-07-03T09:48:36Z</time>
      </trkpt>
      <trkpt lat="46.21642" lon="-1.43332">
        <ele>-2.8</ele>
        <time>2025-07-03T09:48:41Z</time>
      </trkpt>
      <trkpt lat="46.21644" lon="-1.43326">
        <ele>-2.6</ele>
        <time>2025-07-03T09:48:44Z</time>
      </trkpt>
      <trkpt lat="46.2165" lon="-1.43314">
        <ele>-2.8</ele>
        <time>2025-07-03T09:48:51Z</time>
      </trkpt>
      <trkpt lat="46.21656" lon="-1.43298">
        <ele>-2.6</ele>
        <time>2025-07-03T09:49:00Z</time>
      </trkpt>
      <trkpt lat="46.21658" lon="-1.43293">
        <ele>-2.2</ele>
        <time>2025-07-03T09:49:03Z</time>
      </trkpt>
      <trkpt lat="46.21661" lon="-1.43283">
        <ele>-2.2</ele>
        <time>2025-07-03T09:49:08Z</time>
      </trkpt>
      <trkpt lat="46.21662" lon="-1.4328">
        <ele>-2.2</ele>
        <time>2025-07-03T09:49:10Z</time>
      </trkpt>
      <trkpt lat="46.21668" lon="-1.43265">
        <ele>-2.2</ele>
        <time>2025-07-03T09:49:18Z</time>
      </trkpt>
      <trkpt lat="46.21674" lon="-1.43249">
        <ele>-2.2</ele>
        <time>2025-07-03T09:49:27Z</time>
      </trkpt>
      <trkpt lat="46.21682" lon="-1.43228">
        <ele>-2</ele>
        <time>2025-07-03T09:49:38Z</time>
      </trkpt>
      <trkpt lat="46.21688" lon="-1.43218">
        <ele>-2.4</ele>
        <time>2025-07-03T09:49:45Z</time>
      </trkpt>
      <trkpt lat="46.21693" lon="-1.43204">
        <ele>-2.2</ele>
        <time>2025-07-03T09:49:53Z</time>
      </trkpt>
      <trkpt lat="46.21696" lon="-1.43188">
        <ele>-2</ele>
        <time>2025-07-03T09:50:00Z</time>
      </trkpt>
      <trkpt lat="46.21696" lon="-1.4318">
        <ele>-1.6</ele>
        <time>2025-07-03T09:50:04Z</time>
      </trkpt>
      <trkpt lat="46.21696" lon="-1.43179">
        <ele>-1.6</ele>
        <time>2025-07-03T09:50:05Z</time>
      </trkpt>
      <trkpt lat="46.21698" lon="-1.43173">
        <ele>-1.4</ele>
        <time>2025-07-03T09:50:08Z</time>
      </trkpt>
      <trkpt lat="46.21699" lon="-1.43166">
        <ele>-1.6</ele>
        <time>2025-07-03T09:50:11Z</time>
      </trkpt>
      <trkpt lat="46.217" lon="-1.43158">
        <ele>-1.6</ele>
        <time>2025-07-03T09:50:16Z</time>
      </trkpt>
      <trkpt lat="46.21701" lon="-1.43147">
        <ele>-1.8</ele>
        <time>2025-07-03T09:50:21Z</time>
      </trkpt>
      <trkpt lat="46.21702" lon="-1.4313">
        <ele>-1.6</ele>
        <time>2025-07-03T09:50:29Z</time>
      </trkpt>
      <trkpt lat="46.21703" lon="-1.4312">
        <ele>-1.6</ele>
        <time>2025-07-03T09:50:34Z</time>
      </trkpt>
      <trkpt lat="46.21705" lon="-1.43109">
        <ele>-1.6</ele>
        <time>2025-07-03T09:50:39Z</time>
      </trkpt>
      <trkpt lat="46.21708" lon="-1.43087">
        <ele>-1.6</ele>
        <time>2025-07-03T09:50:50Z</time>
      </trkpt>
      <trkpt lat="46.21711" lon="-1.43065">
        <ele>-1.6</ele>
        <time>2025-07-03T09:51:01Z</time>
      </trkpt>
      <trkpt lat="46.21715" lon="-1.43038">
        <ele>-1.6</ele>
        <time>2025-07-03T09:51:14Z</time>
      </trkpt>
      <trkpt lat="46.21715" lon="-1.43036">
        <ele>-1.8</ele>
        <time>2025-07-03T09:51:15Z</time>
      </trkpt>
      <trkpt lat="46.21717" lon="-1.43016">
        <ele>-1.8</ele>
        <time>2025-07-03T09:51:25Z</time>
      </trkpt>
      <trkpt lat="46.21719" lon="-1.43004">
        <ele>-1.8</ele>
        <time>2025-07-03T09:51:31Z</time>
      </trkpt>
      <trkpt lat="46.2172" lon="-1.42998">
        <ele>-1.8</ele>
        <time>2025-07-03T09:51:34Z</time>
      </trkpt>
      <trkpt lat="46.21722" lon="-1.42982">
        <ele>-1.8</ele>
        <time>2025-07-03T09:51:42Z</time>
      </trkpt>
      <trkpt lat="46.21725" lon="-1.42962">
        <ele>-1.8</ele>
        <time>2025-07-03T09:51:52Z</time>
      </trkpt>
      <trkpt lat="46.21728" lon="-1.42941">
        <ele>-1.8</ele>
        <time>2025-07-03T09:52:02Z</time>
      </trkpt>
      <trkpt lat="46.21729" lon="-1.42928">
        <ele>-2</ele>
        <time>2025-07-03T09:52:10Z</time>
      </trkpt>
      <trkpt lat="46.21729" lon="-1.42924">
        <ele>-2.6</ele>
        <time>2025-07-03T09:52:14Z</time>
      </trkpt>
      <trkpt lat="46.2173" lon="-1.42923">
        <ele>-2.6</ele>
        <time>2025-07-03T09:52:15Z</time>
      </trkpt>
      <trkpt lat="46.21731" lon="-1.42907">
        <ele>-2.2</ele>
        <time>2025-07-03T09:52:23Z</time>
      </trkpt>
      <trkpt lat="46.21732" lon="-1.42901">
        <ele>-2</ele>
        <time>2025-07-03T09:52:26Z</time>
      </trkpt>
      <trkpt lat="46.21733" lon="-1.42891">
        <ele>-2.2</ele>
        <time>2025-07-03T09:52:31Z</time>
      </trkpt>
      <trkpt lat="46.21736" lon="-1.42872">
        <ele>-2</ele>
        <time>2025-07-03T09:52:40Z</time>
      </trkpt>
      <trkpt lat="46.21739" lon="-1.42859">
        <ele>-2.2</ele>
        <time>2025-07-03T09:52:47Z</time>
      </trkpt>
      <trkpt lat="46.2174" lon="-1.42852">
        <ele>-2.2</ele>
        <time>2025-07-03T09:52:50Z</time>
      </trkpt>
      <trkpt lat="46.21741" lon="-1.4284">
        <ele>-2</ele>
        <time>2025-07-03T09:52:56Z</time>
      </trkpt>
      <trkpt lat="46.21742" lon="-1.4283">
        <ele>-1.8</ele>
        <time>2025-07-03T09:53:01Z</time>
      </trkpt>
      <trkpt lat="46.21744" lon="-1.42814">
        <ele>-2.2</ele>
        <time>2025-07-03T09:53:09Z</time>
      </trkpt>
      <trkpt lat="46.21746" lon="-1.42798">
        <ele>-1.6</ele>
        <time>2025-07-03T09:53:17Z</time>
      </trkpt>
      <trkpt lat="46.21747" lon="-1.42791">
        <ele>-1.2</ele>
        <time>2025-07-03T09:53:20Z</time>
      </trkpt>
      <trkpt lat="46.21751" lon="-1.4277">
        <ele>-2.4</ele>
        <time>2025-07-03T09:53:31Z</time>
      </trkpt>
      <trkpt lat="46.21752" lon="-1.42755">
        <ele>-2.2</ele>
        <time>2025-07-03T09:53:38Z</time>
      </trkpt>
      <trkpt lat="46.21753" lon="-1.42742">
        <ele>-2.2</ele>
        <time>2025-07-03T09:53:45Z</time>
      </trkpt>
      <trkpt lat="46.21755" lon="-1.42727">
        <ele>-2.4</ele>
        <time>2025-07-03T09:53:52Z</time>
      </trkpt>
      <trkpt lat="46.21757" lon="-1.42707">
        <ele>-2.4</ele>
        <time>2025-07-03T09:54:01Z</time>
      </trkpt>
      <trkpt lat="46.2176" lon="-1.42694">
        <ele>-2.4</ele>
        <time>2025-07-03T09:54:08Z</time>
      </trkpt>
      <trkpt lat="46.2176" lon="-1.42692">
        <ele>-2.4</ele>
        <time>2025-07-03T09:54:09Z</time>
      </trkpt>
      <trkpt lat="46.2176" lon="-1.42685">
        <ele>-2.4</ele>
        <time>2025-07-03T09:54:12Z</time>
      </trkpt>
      <trkpt lat="46.21762" lon="-1.4267">
        <ele>-2.4</ele>
        <time>2025-07-03T09:54:20Z</time>
      </trkpt>
      <trkpt lat="46.21763" lon="-1.42661">
        <ele>-2.6</ele>
        <time>2025-07-03T09:54:24Z</time>
      </trkpt>
      <trkpt lat="46.21765" lon="-1.42651">
        <ele>-2.4</ele>
        <time>2025-07-03T09:54:29Z</time>
      </trkpt>
      <trkpt lat="46.21767" lon="-1.42633">
        <ele>-2.8</ele>
        <time>2025-07-03T09:54:38Z</time>
      </trkpt>
      <trkpt lat="46.21769" lon="-1.4262">
        <ele>-2.6</ele>
        <time>2025-07-03T09:54:44Z</time>
      </trkpt>
      <trkpt lat="46.2177" lon="-1.42619">
        <ele>-2.6</ele>
        <time>2025-07-03T09:54:45Z</time>
      </trkpt>
      <trkpt lat="46.21771" lon="-1.426">
        <ele>-2.8</ele>
        <time>2025-07-03T09:54:54Z</time>
      </trkpt>
      <trkpt lat="46.21774" lon="-1.42587">
        <ele>-2.8</ele>
        <time>2025-07-03T09:55:01Z</time>
      </trkpt>
      <trkpt lat="46.21774" lon="-1.42585">
        <ele>-2.8</ele>
        <time>2025-07-03T09:55:02Z</time>
      </trkpt>
      <trkpt lat="46.21774" lon="-1.42582">
        <ele>-2.8</ele>
        <time>2025-07-03T09:55:03Z</time>
      </trkpt>
      <trkpt lat="46.21777" lon="-1.42563">
        <ele>-2.6</ele>
        <time>2025-07-03T09:55:12Z</time>
      </trkpt>
      <trkpt lat="46.21779" lon="-1.42549">
        <ele>-2.8</ele>
        <time>2025-07-03T09:55:19Z</time>
      </trkpt>
      <trkpt lat="46.21781" lon="-1.4253">
        <ele>-2.8</ele>
        <time>2025-07-03T09:55:28Z</time>
      </trkpt>
      <trkpt lat="46.21784" lon="-1.42507">
        <ele>-2.8</ele>
        <time>2025-07-03T09:55:39Z</time>
      </trkpt>
      <trkpt lat="46.21786" lon="-1.425">
        <ele>-2.8</ele>
        <time>2025-07-03T09:55:43Z</time>
      </trkpt>
      <trkpt lat="46.21786" lon="-1.42493">
        <ele>-2.8</ele>
        <time>2025-07-03T09:55:46Z</time>
      </trkpt>
      <trkpt lat="46.21789" lon="-1.42472">
        <ele>-2.6</ele>
        <time>2025-07-03T09:55:56Z</time>
      </trkpt>
      <trkpt lat="46.21793" lon="-1.42449">
        <ele>-2.6</ele>
        <time>2025-07-03T09:56:07Z</time>
      </trkpt>
      <trkpt lat="46.21795" lon="-1.42435">
        <ele>-2.4</ele>
        <time>2025-07-03T09:56:14Z</time>
      </trkpt>
      <trkpt lat="46.21796" lon="-1.42416">
        <ele>-2.6</ele>
        <time>2025-07-03T09:56:23Z</time>
      </trkpt>
      <trkpt lat="46.218" lon="-1.42397">
        <ele>-2.8</ele>
        <time>2025-07-03T09:56:33Z</time>
      </trkpt>
      <trkpt lat="46.21802" lon="-1.42373">
        <ele>-3</ele>
        <time>2025-07-03T09:56:45Z</time>
      </trkpt>
      <trkpt lat="46.21805" lon="-1.42353">
        <ele>-3.2</ele>
        <time>2025-07-03T09:56:55Z</time>
      </trkpt>
      <trkpt lat="46.21806" lon="-1.42349">
        <ele>-3</ele>
        <time>2025-07-03T09:56:57Z</time>
      </trkpt>
      <trkpt lat="46.21807" lon="-1.42331">
        <ele>-3</ele>
        <time>2025-07-03T09:57:06Z</time>
      </trkpt>
      <trkpt lat="46.2181" lon="-1.42314">
        <ele>-3</ele>
        <time>2025-07-03T09:57:14Z</time>
      </trkpt>
      <trkpt lat="46.21811" lon="-1.4231">
        <ele>-3</ele>
        <time>2025-07-03T09:57:16Z</time>
      </trkpt>
      <trkpt lat="46.21816" lon="-1.42286">
        <ele>-3</ele>
        <time>2025-07-03T09:57:28Z</time>
      </trkpt>
      <trkpt lat="46.21819" lon="-1.42266">
        <ele>-2.8</ele>
        <time>2025-07-03T09:57:38Z</time>
      </trkpt>
      <trkpt lat="46.21822" lon="-1.42249">
        <ele>-2.8</ele>
        <time>2025-07-03T09:57:47Z</time>
      </trkpt>
      <trkpt lat="46.21823" lon="-1.42247">
        <ele>-2.8</ele>
        <time>2025-07-03T09:57:48Z</time>
      </trkpt>
      <trkpt lat="46.21824" lon="-1.42243">
        <ele>-2.6</ele>
        <time>2025-07-03T09:57:50Z</time>
      </trkpt>
      <trkpt lat="46.21828" lon="-1.42225">
        <ele>-2.6</ele>
        <time>2025-07-03T09:57:59Z</time>
      </trkpt>
      <trkpt lat="46.21832" lon="-1.42208">
        <ele>-2.6</ele>
        <time>2025-07-03T09:58:07Z</time>
      </trkpt>
      <trkpt lat="46.21835" lon="-1.42192">
        <ele>-2.4</ele>
        <time>2025-07-03T09:58:15Z</time>
      </trkpt>
      <trkpt lat="46.21839" lon="-1.4218">
        <ele>-2.6</ele>
        <time>2025-07-03T09:58:22Z</time>
      </trkpt>
      <trkpt lat="46.21843" lon="-1.42161">
        <ele>-2.4</ele>
        <time>2025-07-03T09:58:31Z</time>
      </trkpt>
      <trkpt lat="46.21846" lon="-1.42153">
        <ele>-2.4</ele>
        <time>2025-07-03T09:58:35Z</time>
      </trkpt>
      <trkpt lat="46.21849" lon="-1.42145">
        <ele>-2.6</ele>
        <time>2025-07-03T09:58:39Z</time>
      </trkpt>
      <trkpt lat="46.21854" lon="-1.42124">
        <ele>-2.6</ele>
        <time>2025-07-03T09:58:49Z</time>
      </trkpt>
      <trkpt lat="46.21856" lon="-1.42118">
        <ele>-2.6</ele>
        <time>2025-07-03T09:58:52Z</time>
      </trkpt>
      <trkpt lat="46.21857" lon="-1.42111">
        <ele>-2.6</ele>
        <time>2025-07-03T09:58:56Z</time>
      </trkpt>
      <trkpt lat="46.21858" lon="-1.42109">
        <ele>-2.4</ele>
        <time>2025-07-03T09:58:57Z</time>
      </trkpt>
      <trkpt lat="46.21863" lon="-1.4209">
        <ele>-2.4</ele>
        <time>2025-07-03T09:59:07Z</time>
      </trkpt>
      <trkpt lat="46.21863" lon="-1.42088">
        <ele>-2.4</ele>
        <time>2025-07-03T09:59:08Z</time>
      </trkpt>
      <trkpt lat="46.21869" lon="-1.4207">
        <ele>-2.4</ele>
        <time>2025-07-03T09:59:18Z</time>
      </trkpt>
      <trkpt lat="46.21871" lon="-1.42061">
        <ele>-2.4</ele>
        <time>2025-07-03T09:59:22Z</time>
      </trkpt>
      <trkpt lat="46.21873" lon="-1.42054">
        <ele>-2.4</ele>
        <time>2025-07-03T09:59:26Z</time>
      </trkpt>
      <trkpt lat="46.21876" lon="-1.42038">
        <ele>-2.6</ele>
        <time>2025-07-03T09:59:34Z</time>
      </trkpt>
      <trkpt lat="46.21883" lon="-1.42014">
        <ele>-2.6</ele>
        <time>2025-07-03T09:59:46Z</time>
      </trkpt>
      <trkpt lat="46.21888" lon="-1.41992">
        <ele>-2.2</ele>
        <time>2025-07-03T09:59:57Z</time>
      </trkpt>
      <trkpt lat="46.21892" lon="-1.41974">
        <ele>-2</ele>
        <time>2025-07-03T10:00:06Z</time>
      </trkpt>
      <trkpt lat="46.21896" lon="-1.41957">
        <ele>-2</ele>
        <time>2025-07-03T10:00:15Z</time>
      </trkpt>
      <trkpt lat="46.21903" lon="-1.4194">
        <ele>-2.2</ele>
        <time>2025-07-03T10:00:24Z</time>
      </trkpt>
      <trkpt lat="46.21912" lon="-1.41919">
        <ele>-1.8</ele>
        <time>2025-07-03T10:00:36Z</time>
      </trkpt>
      <trkpt lat="46.21919" lon="-1.41906">
        <ele>-1.8</ele>
        <time>2025-07-03T10:00:44Z</time>
      </trkpt>
      <trkpt lat="46.21926" lon="-1.41892">
        <ele>-2</ele>
        <time>2025-07-03T10:00:52Z</time>
      </trkpt>
      <trkpt lat="46.21933" lon="-1.4188">
        <ele>-2</ele>
        <time>2025-07-03T10:00:59Z</time>
      </trkpt>
      <trkpt lat="46.21938" lon="-1.41869">
        <ele>-2.2</ele>
        <time>2025-07-03T10:01:06Z</time>
      </trkpt>
      <trkpt lat="46.21947" lon="-1.41856">
        <ele>-2.2</ele>
        <time>2025-07-03T10:01:14Z</time>
      </trkpt>
      <trkpt lat="46.21948" lon="-1.41853">
        <ele>-1.8</ele>
        <time>2025-07-03T10:01:16Z</time>
      </trkpt>
      <trkpt lat="46.21955" lon="-1.41844">
        <ele>-2</ele>
        <time>2025-07-03T10:01:22Z</time>
      </trkpt>
      <trkpt lat="46.21967" lon="-1.41832">
        <ele>-1.8</ele>
        <time>2025-07-03T10:01:32Z</time>
      </trkpt>
      <trkpt lat="46.21976" lon="-1.41824">
        <ele>-1.4</ele>
        <time>2025-07-03T10:01:39Z</time>
      </trkpt>
      <trkpt lat="46.21983" lon="-1.41816">
        <ele>-1.2</ele>
        <time>2025-07-03T10:01:45Z</time>
      </trkpt>
      <trkpt lat="46.21993" lon="-1.41809">
        <ele>-1.2</ele>
        <time>2025-07-03T10:01:53Z</time>
      </trkpt>
      <trkpt lat="46.21994" lon="-1.41808">
        <ele>-1.4</ele>
        <time>2025-07-03T10:01:54Z</time>
      </trkpt>
      <trkpt lat="46.22002" lon="-1.41801">
        <ele>-1.4</ele>
        <time>2025-07-03T10:02:01Z</time>
      </trkpt>
      <trkpt lat="46.22011" lon="-1.41795">
        <ele>-1.6</ele>
        <time>2025-07-03T10:02:07Z</time>
      </trkpt>
      <trkpt lat="46.22014" lon="-1.41792">
        <ele>-1.4</ele>
        <time>2025-07-03T10:02:10Z</time>
      </trkpt>
      <trkpt lat="46.22021" lon="-1.41784">
        <ele>-1</ele>
        <time>2025-07-03T10:02:17Z</time>
      </trkpt>
      <trkpt lat="46.22029" lon="-1.41775">
        <ele>-0.80000000000001</ele>
        <time>2025-07-03T10:02:24Z</time>
      </trkpt>
      <trkpt lat="46.22031" lon="-1.41773">
        <ele>-0.80000000000001</ele>
        <time>2025-07-03T10:02:26Z</time>
      </trkpt>
      <trkpt lat="46.22041" lon="-1.41767">
        <ele>-0.60000000000002</ele>
        <time>2025-07-03T10:02:33Z</time>
      </trkpt>
      <trkpt lat="46.22044" lon="-1.41765">
        <ele>-0.60000000000002</ele>
        <time>2025-07-03T10:02:35Z</time>
      </trkpt>
      <trkpt lat="46.22049" lon="-1.41761">
        <ele>-0.80000000000001</ele>
        <time>2025-07-03T10:02:39Z</time>
      </trkpt>
      <trkpt lat="46.22056" lon="-1.41756">
        <ele>-0.39999999999998</ele>
        <time>2025-07-03T10:02:44Z</time>
      </trkpt>
      <trkpt lat="46.22069" lon="-1.41748">
        <ele>-0.39999999999998</ele>
        <time>2025-07-03T10:02:54Z</time>
      </trkpt>
      <trkpt lat="46.22079" lon="-1.4174">
        <ele>-0.19999999999999</ele>
        <time>2025-07-03T10:03:02Z</time>
      </trkpt>
      <trkpt lat="46.22091" lon="-1.41732">
        <ele>-0.19999999999999</ele>
        <time>2025-07-03T10:03:12Z</time>
      </trkpt>
      <trkpt lat="46.22103" lon="-1.41727">
        <ele>0.39999999999998</ele>
        <time>2025-07-03T10:03:19Z</time>
      </trkpt>
      <trkpt lat="46.2211" lon="-1.41724">
        <ele>0.39999999999998</ele>
        <time>2025-07-03T10:03:24Z</time>
      </trkpt>
      <trkpt lat="46.22114" lon="-1.41721">
        <ele>0.60000000000002</ele>
        <time>2025-07-03T10:03:27Z</time>
      </trkpt>
      <trkpt lat="46.22117" lon="-1.4172">
        <ele>0.39999999999998</ele>
        <time>2025-07-03T10:03:29Z</time>
      </trkpt>
      <trkpt lat="46.22128" lon="-1.41714">
        <ele>0.60000000000002</ele>
        <time>2025-07-03T10:03:38Z</time>
      </trkpt>
      <trkpt lat="46.2214" lon="-1.41711">
        <ele>0.60000000000002</ele>
        <time>2025-07-03T10:03:45Z</time>
      </trkpt>
      <trkpt lat="46.22153" lon="-1.41709">
        <ele>0.19999999999999</ele>
        <time>2025-07-03T10:03:54Z</time>
      </trkpt>
      <trkpt lat="46.22157" lon="-1.41708">
        <ele>0.60000000000002</ele>
        <time>2025-07-03T10:03:57Z</time>
      </trkpt>
      <trkpt lat="46.22158" lon="-1.41708">
        <ele>0.80000000000001</ele>
        <time>2025-07-03T10:03:58Z</time>
      </trkpt>
      <trkpt lat="46.2217" lon="-1.41709">
        <ele>0.80000000000001</ele>
        <time>2025-07-03T10:04:06Z</time>
      </trkpt>
      <trkpt lat="46.22186" lon="-1.41709">
        <ele>0.80000000000001</ele>
        <time>2025-07-03T10:04:17Z</time>
      </trkpt>
      <trkpt lat="46.22204" lon="-1.41712">
        <ele>1.4</ele>
        <time>2025-07-03T10:04:29Z</time>
      </trkpt>
      <trkpt lat="46.22208" lon="-1.41713">
        <ele>1.6</ele>
        <time>2025-07-03T10:04:32Z</time>
      </trkpt>
      <trkpt lat="46.22217" lon="-1.41717">
        <ele>1.2</ele>
        <time>2025-07-03T10:04:38Z</time>
      </trkpt>
      <trkpt lat="46.22228" lon="-1.41722">
        <ele>1.4</ele>
        <time>2025-07-03T10:04:46Z</time>
      </trkpt>
      <trkpt lat="46.22236" lon="-1.4173">
        <ele>1.6</ele>
        <time>2025-07-03T10:04:54Z</time>
      </trkpt>
      <trkpt lat="46.22249" lon="-1.41735">
        <ele>1.6</ele>
        <time>2025-07-03T10:05:04Z</time>
      </trkpt>
      <trkpt lat="46.22261" lon="-1.41742">
        <ele>1.8</ele>
        <time>2025-07-03T10:05:13Z</time>
      </trkpt>
      <trkpt lat="46.22263" lon="-1.41744">
        <ele>1.8</ele>
        <time>2025-07-03T10:05:14Z</time>
      </trkpt>
      <trkpt lat="46.22273" lon="-1.41754">
        <ele>1.6</ele>
        <time>2025-07-03T10:05:22Z</time>
      </trkpt>
      <trkpt lat="46.22288" lon="-1.41764">
        <ele>1.8</ele>
        <time>2025-07-03T10:05:33Z</time>
      </trkpt>
      <trkpt lat="46.22299" lon="-1.41773">
        <ele>2.4</ele>
        <time>2025-07-03T10:05:42Z</time>
      </trkpt>
      <trkpt lat="46.22301" lon="-1.41775">
        <ele>2.6</ele>
        <time>2025-07-03T10:05:44Z</time>
      </trkpt>
      <trkpt lat="46.22306" lon="-1.41779">
        <ele>2.2</ele>
        <time>2025-07-03T10:05:48Z</time>
      </trkpt>
      <trkpt lat="46.22317" lon="-1.41785">
        <ele>2.2</ele>
        <time>2025-07-03T10:05:55Z</time>
      </trkpt>
      <trkpt lat="46.22324" lon="-1.41793">
        <ele>2</ele>
        <time>2025-07-03T10:06:01Z</time>
      </trkpt>
      <trkpt lat="46.22326" lon="-1.41795">
        <ele>2</ele>
        <time>2025-07-03T10:06:03Z</time>
      </trkpt>
      <trkpt lat="46.22338" lon="-1.41804">
        <ele>2</ele>
        <time>2025-07-03T10:06:12Z</time>
      </trkpt>
      <trkpt lat="46.22344" lon="-1.41809">
        <ele>2.4</ele>
        <time>2025-07-03T10:06:17Z</time>
      </trkpt>
      <trkpt lat="46.22348" lon="-1.41813">
        <ele>2.6</ele>
        <time>2025-07-03T10:06:20Z</time>
      </trkpt>
      <trkpt lat="46.22358" lon="-1.41822">
        <ele>2.8</ele>
        <time>2025-07-03T10:06:28Z</time>
      </trkpt>
      <trkpt lat="46.22368" lon="-1.41833">
        <ele>2.2</ele>
        <time>2025-07-03T10:06:36Z</time>
      </trkpt>
      <trkpt lat="46.22375" lon="-1.41843">
        <ele>2.6</ele>
        <time>2025-07-03T10:06:43Z</time>
      </trkpt>
      <trkpt lat="46.22378" lon="-1.41847">
        <ele>2.4</ele>
        <time>2025-07-03T10:06:46Z</time>
      </trkpt>
      <trkpt lat="46.22381" lon="-1.41852">
        <ele>2.4</ele>
        <time>2025-07-03T10:06:49Z</time>
      </trkpt>
      <trkpt lat="46.22384" lon="-1.41858">
        <ele>2.4</ele>
        <time>2025-07-03T10:06:54Z</time>
      </trkpt>
      <trkpt lat="46.22382" lon="-1.41857">
        <ele>2</ele>
        <time>2025-07-03T10:07:27Z</time>
      </trkpt>
      <trkpt lat="46.22386" lon="-1.41861">
        <ele>1.8</ele>
        <time>2025-07-03T10:07:35Z</time>
      </trkpt>
      <trkpt lat="46.22392" lon="-1.41867">
        <ele>1.6</ele>
        <time>2025-07-03T10:07:39Z</time>
      </trkpt>
      <trkpt lat="46.22395" lon="-1.41868">
        <ele>1.2</ele>
        <time>2025-07-03T10:07:41Z</time>
      </trkpt>
      <trkpt lat="46.22396" lon="-1.41869">
        <ele>1</ele>
        <time>2025-07-03T10:07:42Z</time>
      </trkpt>
      <trkpt lat="46.22399" lon="-1.41868">
        <ele>0.80000000000001</ele>
        <time>2025-07-03T10:07:44Z</time>
      </trkpt>
      <trkpt lat="46.22406" lon="-1.41866">
        <ele>0.80000000000001</ele>
        <time>2025-07-03T10:07:49Z</time>
      </trkpt>
      <trkpt lat="46.22415" lon="-1.41865">
        <ele>0.60000000000002</ele>
        <time>2025-07-03T10:07:55Z</time>
      </trkpt>
      <trkpt lat="46.22421" lon="-1.41865">
        <ele>0.60000000000002</ele>
        <time>2025-07-03T10:08:00Z</time>
      </trkpt>
      <trkpt lat="46.22432" lon="-1.41869">
        <ele>0.80000000000001</ele>
        <time>2025-07-03T10:08:07Z</time>
      </trkpt>
      <trkpt lat="46.22443" lon="-1.41868">
        <ele>1</ele>
        <time>2025-07-03T10:08:15Z</time>
      </trkpt>
      <trkpt lat="46.22457" lon="-1.41867">
        <ele>0.60000000000002</ele>
        <time>2025-07-03T10:08:24Z</time>
      </trkpt>
      <trkpt lat="46.22472" lon="-1.41867">
        <ele>0.39999999999998</ele>
        <time>2025-07-03T10:08:34Z</time>
      </trkpt>
      <trkpt lat="46.22489" lon="-1.41863">
        <ele>0.60000000000002</ele>
        <time>2025-07-03T10:08:45Z</time>
      </trkpt>
      <trkpt lat="46.2249" lon="-1.41863">
        <ele>0.39999999999998</ele>
        <time>2025-07-03T10:08:46Z</time>
      </trkpt>
      <trkpt lat="46.22508" lon="-1.41861">
        <ele>0.39999999999998</ele>
        <time>2025-07-03T10:08:58Z</time>
      </trkpt>
      <trkpt lat="46.22521" lon="-1.41859">
        <ele>0.80000000000001</ele>
        <time>2025-07-03T10:09:07Z</time>
      </trkpt>
      <trkpt lat="46.22522" lon="-1.41859">
        <ele>0.80000000000001</ele>
        <time>2025-07-03T10:09:08Z</time>
      </trkpt>
      <trkpt lat="46.22534" lon="-1.41856">
        <ele>0.60000000000002</ele>
        <time>2025-07-03T10:09:16Z</time>
      </trkpt>
      <trkpt lat="46.2255" lon="-1.4185">
        <ele>0.19999999999999</ele>
        <time>2025-07-03T10:09:27Z</time>
      </trkpt>
      <trkpt lat="46.22559" lon="-1.41847">
        <ele>0.60000000000002</ele>
        <time>2025-07-03T10:09:34Z</time>
      </trkpt>
      <trkpt lat="46.2257" lon="-1.41842">
        <ele>0.19999999999999</ele>
        <time>2025-07-03T10:09:42Z</time>
      </trkpt>
      <trkpt lat="46.22584" lon="-1.41836">
        <ele>0.19999999999999</ele>
        <time>2025-07-03T10:09:52Z</time>
      </trkpt>
      <trkpt lat="46.22599" lon="-1.41827">
        <ele>0.19999999999999</ele>
        <time>2025-07-03T10:10:02Z</time>
      </trkpt>
      <trkpt lat="46.22615" lon="-1.41819">
        <ele>0.60000000000002</ele>
        <time>2025-07-03T10:10:13Z</time>
      </trkpt>
      <trkpt lat="46.22628" lon="-1.41812">
        <ele>0.80000000000001</ele>
        <time>2025-07-03T10:10:23Z</time>
      </trkpt>
      <trkpt lat="46.22639" lon="-1.41804">
        <ele>1</ele>
        <time>2025-07-03T10:10:31Z</time>
      </trkpt>
      <trkpt lat="46.22644" lon="-1.41789">
        <ele>0.80000000000001</ele>
        <time>2025-07-03T10:10:39Z</time>
      </trkpt>
      <trkpt lat="46.22644" lon="-1.41787">
        <ele>0.80000000000001</ele>
        <time>2025-07-03T10:10:40Z</time>
      </trkpt>
      <trkpt lat="46.22645" lon="-1.41785">
        <ele>0.80000000000001</ele>
        <time>2025-07-03T10:10:41Z</time>
      </trkpt>
      <trkpt lat="46.22645" lon="-1.41783">
        <ele>0.80000000000001</ele>
        <time>2025-07-03T10:10:42Z</time>
      </trkpt>
      <trkpt lat="46.22645" lon="-1.41782">
        <ele>0.80000000000001</ele>
        <time>2025-07-03T10:10:43Z</time>
      </trkpt>
      <trkpt lat="46.22646" lon="-1.41775">
        <ele>0.80000000000001</ele>
        <time>2025-07-03T10:10:46Z</time>
      </trkpt>
      <trkpt lat="46.22642" lon="-1.41758">
        <ele>0.80000000000001</ele>
        <time>2025-07-03T10:10:55Z</time>
      </trkpt>
      <trkpt lat="46.22631" lon="-1.41741">
        <ele>0.60000000000002</ele>
        <time>2025-07-03T10:11:06Z</time>
      </trkpt>
      <trkpt lat="46.2263" lon="-1.41739">
        <ele>0.60000000000002</ele>
        <time>2025-07-03T10:11:07Z</time>
      </trkpt>
      <trkpt lat="46.22624" lon="-1.41729">
        <ele>0.60000000000002</ele>
        <time>2025-07-03T10:11:14Z</time>
      </trkpt>
      <trkpt lat="46.2262" lon="-1.41721">
        <ele>0.39999999999998</ele>
        <time>2025-07-03T10:11:19Z</time>
      </trkpt>
      <trkpt lat="46.22615" lon="-1.4171">
        <ele>0.19999999999999</ele>
        <time>2025-07-03T10:11:26Z</time>
      </trkpt>
      <trkpt lat="46.2261" lon="-1.41694">
        <ele>0.19999999999999</ele>
        <time>2025-07-03T10:11:35Z</time>
      </trkpt>
      <trkpt lat="46.2261" lon="-1.41689">
        <ele>-0.19999999999999</ele>
        <time>2025-07-03T10:11:38Z</time>
      </trkpt>
      <trkpt lat="46.22612" lon="-1.41685">
        <ele>-0.19999999999999</ele>
        <time>2025-07-03T10:11:41Z</time>
      </trkpt>
      <trkpt lat="46.22624" lon="-1.41674">
        <ele>-0.39999999999998</ele>
        <time>2025-07-03T10:11:51Z</time>
      </trkpt>
      <trkpt lat="46.22628" lon="-1.4167">
        <ele>-0.39999999999998</ele>
        <time>2025-07-03T10:11:54Z</time>
      </trkpt>
      <trkpt lat="46.22639" lon="-1.41661">
        <ele>-0.60000000000002</ele>
        <time>2025-07-03T10:12:03Z</time>
      </trkpt>
      <trkpt lat="46.22651" lon="-1.41649">
        <ele>-0.60000000000002</ele>
        <time>2025-07-03T10:12:13Z</time>
      </trkpt>
      <trkpt lat="46.22652" lon="-1.41648">
        <ele>-0.60000000000002</ele>
        <time>2025-07-03T10:12:14Z</time>
      </trkpt>
      <trkpt lat="46.22664" lon="-1.41638">
        <ele>-1</ele>
        <time>2025-07-03T10:12:24Z</time>
      </trkpt>
      <trkpt lat="46.22674" lon="-1.41628">
        <ele>-0.80000000000001</ele>
        <time>2025-07-03T10:12:33Z</time>
      </trkpt>
      <trkpt lat="46.22685" lon="-1.41619">
        <ele>-0.60000000000002</ele>
        <time>2025-07-03T10:12:42Z</time>
      </trkpt>
      <trkpt lat="46.22694" lon="-1.41606">
        <ele>-0.60000000000002</ele>
        <time>2025-07-03T10:12:51Z</time>
      </trkpt>
      <trkpt lat="46.22702" lon="-1.41597">
        <ele>-0.60000000000002</ele>
        <time>2025-07-03T10:12:59Z</time>
      </trkpt>
      <trkpt lat="46.22714" lon="-1.41584">
        <ele>-0.60000000000002</ele>
        <time>2025-07-03T10:13:10Z</time>
      </trkpt>
      <trkpt lat="46.22718" lon="-1.41579">
        <ele>-0.19999999999999</ele>
        <time>2025-07-03T10:13:14Z</time>
      </trkpt>
      <trkpt lat="46.22721" lon="-1.41576">
        <ele>-0.39999999999998</ele>
        <time>2025-07-03T10:13:17Z</time>
      </trkpt>
      <trkpt lat="46.22726" lon="-1.41567">
        <ele>-0.39999999999998</ele>
        <time>2025-07-03T10:13:23Z</time>
      </trkpt>
      <trkpt lat="46.22728" lon="-1.41563">
        <ele>-0.39999999999998</ele>
        <time>2025-07-03T10:13:26Z</time>
      </trkpt>
      <trkpt lat="46.22733" lon="-1.41558">
        <ele>-0.19999999999999</ele>
        <time>2025-07-03T10:13:30Z</time>
      </trkpt>
      <trkpt lat="46.22739" lon="-1.41557">
        <ele>-0.39999999999998</ele>
        <time>2025-07-03T10:13:36Z</time>
      </trkpt>
      <trkpt lat="46.2274" lon="-1.41558">
        <ele>-0.39999999999998</ele>
        <time>2025-07-03T10:13:37Z</time>
      </trkpt>
      <trkpt lat="46.2275" lon="-1.41557">
        <ele>-0.19999999999999</ele>
        <time>2025-07-03T10:13:46Z</time>
      </trkpt>
      <trkpt lat="46.22759" lon="-1.41555">
        <ele>-1.2</ele>
        <time>2025-07-03T10:13:54Z</time>
      </trkpt>
      <trkpt lat="46.22767" lon="-1.41547">
        <ele>-1</ele>
        <time>2025-07-03T10:14:02Z</time>
      </trkpt>
      <trkpt lat="46.22768" lon="-1.41546">
        <ele>-1.2</ele>
        <time>2025-07-03T10:14:03Z</time>
      </trkpt>
      <trkpt lat="46.22768" lon="-1.41544">
        <ele>-1.2</ele>
        <time>2025-07-03T10:14:04Z</time>
      </trkpt>
      <trkpt lat="46.22774" lon="-1.41539">
        <ele>-1.4</ele>
        <time>2025-07-03T10:14:12Z</time>
      </trkpt>
      <trkpt lat="46.22784" lon="-1.4153">
        <ele>-1.2</ele>
        <time>2025-07-03T10:14:21Z</time>
      </trkpt>
      <trkpt lat="46.22795" lon="-1.41519">
        <ele>-1.4</ele>
        <time>2025-07-03T10:14:30Z</time>
      </trkpt>
      <trkpt lat="46.22801" lon="-1.41512">
        <ele>-1.4</ele>
        <time>2025-07-03T10:14:35Z</time>
      </trkpt>
      <trkpt lat="46.22807" lon="-1.41508">
        <ele>-1.6</ele>
        <time>2025-07-03T10:14:40Z</time>
      </trkpt>
      <trkpt lat="46.22812" lon="-1.41501">
        <ele>-1.6</ele>
        <time>2025-07-03T10:14:45Z</time>
      </trkpt>
      <trkpt lat="46.22815" lon="-1.41497">
        <ele>-1.4</ele>
        <time>2025-07-03T10:14:48Z</time>
      </trkpt>
      <trkpt lat="46.22815" lon="-1.41495">
        <ele>-1.4</ele>
        <time>2025-07-03T10:14:49Z</time>
      </trkpt>
      <trkpt lat="46.22813" lon="-1.41479">
        <ele>-1.6</ele>
        <time>2025-07-03T10:14:57Z</time>
      </trkpt>
      <trkpt lat="46.22813" lon="-1.41459">
        <ele>-1.2</ele>
        <time>2025-07-03T10:15:07Z</time>
      </trkpt>
      <trkpt lat="46.22821" lon="-1.41444">
        <ele>-1.4</ele>
        <time>2025-07-03T10:15:17Z</time>
      </trkpt>
      <trkpt lat="46.22828" lon="-1.4143">
        <ele>-1.2</ele>
        <time>2025-07-03T10:15:26Z</time>
      </trkpt>
      <trkpt lat="46.22828" lon="-1.41428">
        <ele>-1.2</ele>
        <time>2025-07-03T10:15:27Z</time>
      </trkpt>
      <trkpt lat="46.22835" lon="-1.41416">
        <ele>-1.4</ele>
        <time>2025-07-03T10:15:35Z</time>
      </trkpt>
      <trkpt lat="46.22838" lon="-1.41406">
        <ele>-1.6</ele>
        <time>2025-07-03T10:15:41Z</time>
      </trkpt>
      <trkpt lat="46.22839" lon="-1.41404">
        <ele>-1.6</ele>
        <time>2025-07-03T10:15:42Z</time>
      </trkpt>
      <trkpt lat="46.2284" lon="-1.41398">
        <ele>-1.4</ele>
        <time>2025-07-03T10:15:45Z</time>
      </trkpt>
      <trkpt lat="46.2284" lon="-1.41396">
        <ele>-1.4</ele>
        <time>2025-07-03T10:15:46Z</time>
      </trkpt>
      <trkpt lat="46.22841" lon="-1.41391">
        <ele>-1.4</ele>
        <time>2025-07-03T10:15:49Z</time>
      </trkpt>
      <trkpt lat="46.2284" lon="-1.41384">
        <ele>-1.4</ele>
        <time>2025-07-03T10:15:53Z</time>
      </trkpt>
      <trkpt lat="46.2284" lon="-1.41383">
        <ele>-1.4</ele>
        <time>2025-07-03T10:15:54Z</time>
      </trkpt>
      <trkpt lat="46.22842" lon="-1.41376">
        <ele>-1.4</ele>
        <time>2025-07-03T10:15:58Z</time>
      </trkpt>
      <trkpt lat="46.22843" lon="-1.41371">
        <ele>-1.6</ele>
        <time>2025-07-03T10:16:01Z</time>
      </trkpt>
      <trkpt lat="46.22843" lon="-1.41367">
        <ele>-1.6</ele>
        <time>2025-07-03T10:16:03Z</time>
      </trkpt>
      <trkpt lat="46.22844" lon="-1.41358">
        <ele>-1.6</ele>
        <time>2025-07-03T10:16:08Z</time>
      </trkpt>
      <trkpt lat="46.22845" lon="-1.41353">
        <ele>-1.6</ele>
        <time>2025-07-03T10:16:10Z</time>
      </trkpt>
      <trkpt lat="46.22846" lon="-1.41351">
        <ele>-1.8</ele>
        <time>2025-07-03T10:16:12Z</time>
      </trkpt>
      <trkpt lat="46.22849" lon="-1.41345">
        <ele>-1.8</ele>
        <time>2025-07-03T10:16:16Z</time>
      </trkpt>
      <trkpt lat="46.22858" lon="-1.41333">
        <ele>-2.2</ele>
        <time>2025-07-03T10:16:24Z</time>
      </trkpt>
      <trkpt lat="46.22861" lon="-1.41328">
        <ele>-2.2</ele>
        <time>2025-07-03T10:16:27Z</time>
      </trkpt>
      <trkpt lat="46.2286" lon="-1.41326">
        <ele>-2</ele>
        <time>2025-07-03T10:16:29Z</time>
      </trkpt>
      <trkpt lat="46.22857" lon="-1.41314">
        <ele>-2</ele>
        <time>2025-07-03T10:16:36Z</time>
      </trkpt>
      <trkpt lat="46.22855" lon="-1.41299">
        <ele>-1.8</ele>
        <time>2025-07-03T10:16:43Z</time>
      </trkpt>
      <trkpt lat="46.22853" lon="-1.41293">
        <ele>-1.8</ele>
        <time>2025-07-03T10:16:46Z</time>
      </trkpt>
      <trkpt lat="46.22848" lon="-1.41282">
        <ele>-1.6</ele>
        <time>2025-07-03T10:16:54Z</time>
      </trkpt>
      <trkpt lat="46.22846" lon="-1.41277">
        <ele>-1.6</ele>
        <time>2025-07-03T10:16:57Z</time>
      </trkpt>
      <trkpt lat="46.22843" lon="-1.41268">
        <ele>-1.4</ele>
        <time>2025-07-03T10:17:02Z</time>
      </trkpt>
      <trkpt lat="46.22839" lon="-1.41258">
        <ele>-1.2</ele>
        <time>2025-07-03T10:17:08Z</time>
      </trkpt>
      <trkpt lat="46.22838" lon="-1.41256">
        <ele>-1.2</ele>
        <time>2025-07-03T10:17:09Z</time>
      </trkpt>
      <trkpt lat="46.22837" lon="-1.41254">
        <ele>-1.2</ele>
        <time>2025-07-03T10:17:11Z</time>
      </trkpt>
      <trkpt lat="46.22834" lon="-1.41246">
        <ele>-1.2</ele>
        <time>2025-07-03T10:17:16Z</time>
      </trkpt>
      <trkpt lat="46.2283" lon="-1.41237">
        <ele>-2</ele>
        <time>2025-07-03T10:18:24Z</time>
      </trkpt>
      <trkpt lat="46.2283" lon="-1.41236">
        <ele>-1.8</ele>
        <time>2025-07-03T10:18:25Z</time>
      </trkpt>
      <trkpt lat="46.22823" lon="-1.4123">
        <ele>-2.2</ele>
        <time>2025-07-03T10:18:32Z</time>
      </trkpt>
      <trkpt lat="46.22822" lon="-1.41229">
        <ele>-2.4</ele>
        <time>2025-07-03T10:18:33Z</time>
      </trkpt>
      <trkpt lat="46.22815" lon="-1.41232">
        <ele>-2.6</ele>
        <time>2025-07-03T10:18:39Z</time>
      </trkpt>
      <trkpt lat="46.22808" lon="-1.41244">
        <ele>-2.8</ele>
        <time>2025-07-03T10:18:47Z</time>
      </trkpt>
      <trkpt lat="46.228" lon="-1.41257">
        <ele>-2.8</ele>
        <time>2025-07-03T10:18:56Z</time>
      </trkpt>
      <trkpt lat="46.22795" lon="-1.41265">
        <ele>-3</ele>
        <time>2025-07-03T10:19:02Z</time>
      </trkpt>
      <trkpt lat="46.22792" lon="-1.41269">
        <ele>-3</ele>
        <time>2025-07-03T10:19:05Z</time>
      </trkpt>
      <trkpt lat="46.2278" lon="-1.41277">
        <ele>-3</ele>
        <time>2025-07-03T10:19:14Z</time>
      </trkpt>
      <trkpt lat="46.22777" lon="-1.41279">
        <ele>-3</ele>
        <time>2025-07-03T10:19:17Z</time>
      </trkpt>
      <trkpt lat="46.22774" lon="-1.4128">
        <ele>-2.8</ele>
        <time>2025-07-03T10:19:20Z</time>
      </trkpt>
      <trkpt lat="46.22774" lon="-1.41281">
        <ele>-2.8</ele>
        <time>2025-07-03T10:19:21Z</time>
      </trkpt>
      <trkpt lat="46.22772" lon="-1.41281">
        <ele>-2.8</ele>
        <time>2025-07-03T10:19:23Z</time>
      </trkpt>
      <trkpt lat="46.22769" lon="-1.41282">
        <ele>-2.8</ele>
        <time>2025-07-03T10:19:26Z</time>
      </trkpt>
      <trkpt lat="46.22765" lon="-1.41283">
        <ele>-3</ele>
        <time>2025-07-03T10:19:29Z</time>
      </trkpt>
      <trkpt lat="46.22753" lon="-1.41287">
        <ele>-3.2</ele>
        <time>2025-07-03T10:19:38Z</time>
      </trkpt>
      <trkpt lat="46.22745" lon="-1.41286">
        <ele>-3</ele>
        <time>2025-07-03T10:19:46Z</time>
      </trkpt>
      <trkpt lat="46.22743" lon="-1.41286">
        <ele>-3.2</ele>
        <time>2025-07-03T10:19:47Z</time>
      </trkpt>
      <trkpt lat="46.22734" lon="-1.41282">
        <ele>-3.2</ele>
        <time>2025-07-03T10:19:54Z</time>
      </trkpt>
      <trkpt lat="46.22731" lon="-1.4128">
        <ele>-3.2</ele>
        <time>2025-07-03T10:19:56Z</time>
      </trkpt>
      <trkpt lat="46.2273" lon="-1.41279">
        <ele>-3.2</ele>
        <time>2025-07-03T10:19:57Z</time>
      </trkpt>
      <trkpt lat="46.22724" lon="-1.41277">
        <ele>-3.4</ele>
        <time>2025-07-03T10:20:02Z</time>
      </trkpt>
      <trkpt lat="46.22719" lon="-1.41274">
        <ele>-3.4</ele>
        <time>2025-07-03T10:20:05Z</time>
      </trkpt>
      <trkpt lat="46.22708" lon="-1.41267">
        <ele>-3.4</ele>
        <time>2025-07-03T10:20:14Z</time>
      </trkpt>
      <trkpt lat="46.22698" lon="-1.41257">
        <ele>-3.6</ele>
        <time>2025-07-03T10:20:22Z</time>
      </trkpt>
      <trkpt lat="46.22688" lon="-1.41249">
        <ele>-4</ele>
        <time>2025-07-03T10:20:30Z</time>
      </trkpt>
      <trkpt lat="46.22684" lon="-1.41245">
        <ele>-4</ele>
        <time>2025-07-03T10:20:34Z</time>
      </trkpt>
      <trkpt lat="46.22683" lon="-1.41245">
        <ele>-4</ele>
        <time>2025-07-03T10:20:35Z</time>
      </trkpt>
      <trkpt lat="46.22681" lon="-1.41247">
        <ele>-4</ele>
        <time>2025-07-03T10:20:37Z</time>
      </trkpt>
      <trkpt lat="46.2268" lon="-1.41248">
        <ele>-3.8</ele>
        <time>2025-07-03T10:20:39Z</time>
      </trkpt>
      <trkpt lat="46.2268" lon="-1.41248">
        <ele>-3.6</ele>
        <time>2025-07-03T10:20:42Z</time>
      </trkpt>
      <trkpt lat="46.2268" lon="-1.41248">
        <ele>-4.2</ele>
        <time>2025-07-03T10:20:55Z</time>
      </trkpt>
      <trkpt lat="46.2268" lon="-1.41247">
        <ele>-4.4</ele>
        <time>2025-07-03T10:20:57Z</time>
      </trkpt>
      <trkpt lat="46.22678" lon="-1.41242">
        <ele>-4.2</ele>
        <time>2025-07-03T10:20:59Z</time>
      </trkpt>
      <trkpt lat="46.22669" lon="-1.41223">
        <ele>-4.4</ele>
        <time>2025-07-03T10:21:08Z</time>
      </trkpt>
      <trkpt lat="46.22667" lon="-1.41211">
        <ele>-4.4</ele>
        <time>2025-07-03T10:21:14Z</time>
      </trkpt>
      <trkpt lat="46.22668" lon="-1.41208">
        <ele>-4.6</ele>
        <time>2025-07-03T10:21:16Z</time>
      </trkpt>
      <trkpt lat="46.22671" lon="-1.41189">
        <ele>-5</ele>
        <time>2025-07-03T10:21:26Z</time>
      </trkpt>
      <trkpt lat="46.22676" lon="-1.41178">
        <ele>-5</ele>
        <time>2025-07-03T10:21:32Z</time>
      </trkpt>
      <trkpt lat="46.22681" lon="-1.41164">
        <ele>-4.8</ele>
        <time>2025-07-03T10:21:40Z</time>
      </trkpt>
      <trkpt lat="46.22689" lon="-1.41152">
        <ele>-5</ele>
        <time>2025-07-03T10:21:48Z</time>
      </trkpt>
      <trkpt lat="46.22695" lon="-1.41144">
        <ele>-4.8</ele>
        <time>2025-07-03T10:21:54Z</time>
      </trkpt>
      <trkpt lat="46.22699" lon="-1.41139">
        <ele>-4.6</ele>
        <time>2025-07-03T10:21:58Z</time>
      </trkpt>
      <trkpt lat="46.22707" lon="-1.41129">
        <ele>-5</ele>
        <time>2025-07-03T10:22:05Z</time>
      </trkpt>
      <trkpt lat="46.22717" lon="-1.41119">
        <ele>-4.6</ele>
        <time>2025-07-03T10:22:14Z</time>
      </trkpt>
      <trkpt lat="46.2273" lon="-1.4111">
        <ele>-4.2</ele>
        <time>2025-07-03T10:22:24Z</time>
      </trkpt>
      <trkpt lat="46.22741" lon="-1.41099">
        <ele>-4.4</ele>
        <time>2025-07-03T10:22:34Z</time>
      </trkpt>
      <trkpt lat="46.22753" lon="-1.41091">
        <ele>-4</ele>
        <time>2025-07-03T10:22:45Z</time>
      </trkpt>
      <trkpt lat="46.22765" lon="-1.41085">
        <ele>-3.4</ele>
        <time>2025-07-03T10:22:54Z</time>
      </trkpt>
      <trkpt lat="46.22767" lon="-1.41084">
        <ele>-3.2</ele>
        <time>2025-07-03T10:22:55Z</time>
      </trkpt>
      <trkpt lat="46.22778" lon="-1.41082">
        <ele>-3.2</ele>
        <time>2025-07-03T10:23:04Z</time>
      </trkpt>
      <trkpt lat="46.22786" lon="-1.4108">
        <ele>-3</ele>
        <time>2025-07-03T10:23:11Z</time>
      </trkpt>
      <trkpt lat="46.22791" lon="-1.41081">
        <ele>-2.8</ele>
        <time>2025-07-03T10:23:15Z</time>
      </trkpt>
      <trkpt lat="46.22795" lon="-1.41081">
        <ele>-2.8</ele>
        <time>2025-07-03T10:23:18Z</time>
      </trkpt>
      <trkpt lat="46.228" lon="-1.41081">
        <ele>-2.4</ele>
        <time>2025-07-03T10:23:22Z</time>
      </trkpt>
      <trkpt lat="46.22802" lon="-1.41081">
        <ele>-2.2</ele>
        <time>2025-07-03T10:23:24Z</time>
      </trkpt>
      <trkpt lat="46.22803" lon="-1.41081">
        <ele>-2</ele>
        <time>2025-07-03T10:23:26Z</time>
      </trkpt>
      <trkpt lat="46.22803" lon="-1.41079">
        <ele>-2</ele>
        <time>2025-07-03T10:23:38Z</time>
      </trkpt>
      <trkpt lat="46.22803" lon="-1.4108">
        <ele>-2</ele>
        <time>2025-07-03T10:23:42Z</time>
      </trkpt>
      <trkpt lat="46.2281" lon="-1.4108">
        <ele>-2.2</ele>
        <time>2025-07-03T10:23:46Z</time>
      </trkpt>
      <trkpt lat="46.22825" lon="-1.41081">
        <ele>-2.4</ele>
        <time>2025-07-03T10:23:56Z</time>
      </trkpt>
      <trkpt lat="46.22839" lon="-1.41082">
        <ele>-2.2</ele>
        <time>2025-07-03T10:24:07Z</time>
      </trkpt>
      <trkpt lat="46.22847" lon="-1.41081">
        <ele>-1.8</ele>
        <time>2025-07-03T10:24:13Z</time>
      </trkpt>
      <trkpt lat="46.22852" lon="-1.41081">
        <ele>-1.6</ele>
        <time>2025-07-03T10:24:17Z</time>
      </trkpt>
      <trkpt lat="46.22861" lon="-1.41088">
        <ele>-1.6</ele>
        <time>2025-07-03T10:24:24Z</time>
      </trkpt>
      <trkpt lat="46.22869" lon="-1.4109">
        <ele>-2.4</ele>
        <time>2025-07-03T10:24:31Z</time>
      </trkpt>
      <trkpt lat="46.22873" lon="-1.4109">
        <ele>-2.4</ele>
        <time>2025-07-03T10:24:35Z</time>
      </trkpt>
      <trkpt lat="46.2288" lon="-1.41092">
        <ele>-2</ele>
        <time>2025-07-03T10:24:40Z</time>
      </trkpt>
      <trkpt lat="46.22891" lon="-1.41095">
        <ele>-2.2</ele>
        <time>2025-07-03T10:24:49Z</time>
      </trkpt>
      <trkpt lat="46.22898" lon="-1.41097">
        <ele>-2</ele>
        <time>2025-07-03T10:24:54Z</time>
      </trkpt>
      <trkpt lat="46.22902" lon="-1.41098">
        <ele>-1.6</ele>
        <time>2025-07-03T10:24:58Z</time>
      </trkpt>
      <trkpt lat="46.22907" lon="-1.41102">
        <ele>-1.2</ele>
        <time>2025-07-03T10:25:03Z</time>
      </trkpt>
      <trkpt lat="46.22913" lon="-1.41107">
        <ele>-1</ele>
        <time>2025-07-03T10:25:08Z</time>
      </trkpt>
      <trkpt lat="46.22924" lon="-1.41115">
        <ele>-1</ele>
        <time>2025-07-03T10:25:18Z</time>
      </trkpt>
      <trkpt lat="46.22937" lon="-1.41118">
        <ele>-1.2</ele>
        <time>2025-07-03T10:25:28Z</time>
      </trkpt>
      <trkpt lat="46.22938" lon="-1.41119">
        <ele>-1.2</ele>
        <time>2025-07-03T10:25:29Z</time>
      </trkpt>
      <trkpt lat="46.22943" lon="-1.41132">
        <ele>-0.60000000000002</ele>
        <time>2025-07-03T10:25:37Z</time>
      </trkpt>
      <trkpt lat="46.22946" lon="-1.41144">
        <ele>-0.39999999999998</ele>
        <time>2025-07-03T10:25:44Z</time>
      </trkpt>
      <trkpt lat="46.22949" lon="-1.41152">
        <ele>-0.19999999999999</ele>
        <time>2025-07-03T10:25:50Z</time>
      </trkpt>
      <trkpt lat="46.2295" lon="-1.41155">
        <ele>-0.19999999999999</ele>
        <time>2025-07-03T10:25:52Z</time>
      </trkpt>
      <trkpt lat="46.22951" lon="-1.41159">
        <ele>-0.19999999999999</ele>
        <time>2025-07-03T10:25:54Z</time>
      </trkpt>
      <trkpt lat="46.22952" lon="-1.41161">
        <ele>-0.19999999999999</ele>
        <time>2025-07-03T10:25:56Z</time>
      </trkpt>
      <trkpt lat="46.22956" lon="-1.41172">
        <ele>-0.39999999999998</ele>
        <time>2025-07-03T10:26:03Z</time>
      </trkpt>
      <trkpt lat="46.22958" lon="-1.41173">
        <ele>-0.39999999999998</ele>
        <time>2025-07-03T10:26:04Z</time>
      </trkpt>
      <trkpt lat="46.22959" lon="-1.41175">
        <ele>-0.19999999999999</ele>
        <time>2025-07-03T10:26:06Z</time>
      </trkpt>
      <trkpt lat="46.22963" lon="-1.41183">
        <ele>-0.19999999999999</ele>
        <time>2025-07-03T10:26:13Z</time>
      </trkpt>
      <trkpt lat="46.22964" lon="-1.41192">
        <ele>-0.19999999999999</ele>
        <time>2025-07-03T10:26:22Z</time>
      </trkpt>
      <trkpt lat="46.22965" lon="-1.41192">
        <ele>-0.39999999999998</ele>
        <time>2025-07-03T10:26:28Z</time>
      </trkpt>
      <trkpt lat="46.22965" lon="-1.41199">
        <ele>-0.80000000000001</ele>
        <time>2025-07-03T10:26:34Z</time>
      </trkpt>
      <trkpt lat="46.22966" lon="-1.41201">
        <ele>-1</ele>
        <time>2025-07-03T10:26:35Z</time>
      </trkpt>
      <trkpt lat="46.22966" lon="-1.41205">
        <ele>-1.2</ele>
        <time>2025-07-03T10:26:41Z</time>
      </trkpt>
      <trkpt lat="46.22966" lon="-1.41203">
        <ele>-0.80000000000001</ele>
        <time>2025-07-03T10:26:48Z</time>
      </trkpt>
      <trkpt lat="46.22966" lon="-1.41203">
        <ele>-1.2</ele>
        <time>2025-07-03T10:26:52Z</time>
      </trkpt>
      <trkpt lat="46.22966" lon="-1.41203">
        <ele>-1.2</ele>
        <time>2025-07-03T10:26:55Z</time>
      </trkpt>
      <trkpt lat="46.22966" lon="-1.41203">
        <ele>-1.2</ele>
        <time>2025-07-03T10:26:58Z</time>
      </trkpt>
      <trkpt lat="46.22966" lon="-1.41203">
        <ele>-1.6</ele>
        <time>2025-07-03T10:27:04Z</time>
      </trkpt>
      <trkpt lat="46.22969" lon="-1.41214">
        <ele>-1.6</ele>
        <time>2025-07-03T10:27:11Z</time>
      </trkpt>
      <trkpt lat="46.22974" lon="-1.4122">
        <ele>-1.4</ele>
        <time>2025-07-03T10:27:17Z</time>
      </trkpt>
      <trkpt lat="46.22977" lon="-1.41223">
        <ele>-1.2</ele>
        <time>2025-07-03T10:27:22Z</time>
      </trkpt>
      <trkpt lat="46.22978" lon="-1.41223">
        <ele>-1.2</ele>
        <time>2025-07-03T10:27:23Z</time>
      </trkpt>
      <trkpt lat="46.22984" lon="-1.41228">
        <ele>-1.2</ele>
        <time>2025-07-03T10:27:29Z</time>
      </trkpt>
      <trkpt lat="46.22987" lon="-1.4123">
        <ele>-1</ele>
        <time>2025-07-03T10:27:31Z</time>
      </trkpt>
      <trkpt lat="46.2299" lon="-1.41233">
        <ele>-1</ele>
        <time>2025-07-03T10:27:34Z</time>
      </trkpt>
      <trkpt lat="46.2299" lon="-1.41234">
        <ele>-1</ele>
        <time>2025-07-03T10:27:35Z</time>
      </trkpt>
      <trkpt lat="46.22992" lon="-1.41245">
        <ele>-1</ele>
        <time>2025-07-03T10:27:41Z</time>
      </trkpt>
      <trkpt lat="46.22996" lon="-1.41258">
        <ele>-1.2</ele>
        <time>2025-07-03T10:27:49Z</time>
      </trkpt>
      <trkpt lat="46.22996" lon="-1.4126">
        <ele>-1.2</ele>
        <time>2025-07-03T10:27:50Z</time>
      </trkpt>
      <trkpt lat="46.22999" lon="-1.41271">
        <ele>-1.2</ele>
        <time>2025-07-03T10:27:57Z</time>
      </trkpt>
      <trkpt lat="46.23003" lon="-1.41281">
        <ele>-1.2</ele>
        <time>2025-07-03T10:28:03Z</time>
      </trkpt>
      <trkpt lat="46.23004" lon="-1.41284">
        <ele>-1</ele>
        <time>2025-07-03T10:28:05Z</time>
      </trkpt>
      <trkpt lat="46.23005" lon="-1.41286">
        <ele>-0.80000000000001</ele>
        <time>2025-07-03T10:28:06Z</time>
      </trkpt>
      <trkpt lat="46.23008" lon="-1.41301">
        <ele>-1.2</ele>
        <time>2025-07-03T10:28:14Z</time>
      </trkpt>
      <trkpt lat="46.2301" lon="-1.41315">
        <ele>-0.80000000000001</ele>
        <time>2025-07-03T10:28:22Z</time>
      </trkpt>
      <trkpt lat="46.2301" lon="-1.4132">
        <ele>-0.80000000000001</ele>
        <time>2025-07-03T10:28:25Z</time>
      </trkpt>
      <trkpt lat="46.23013" lon="-1.41337">
        <ele>-0.80000000000001</ele>
        <time>2025-07-03T10:28:37Z</time>
      </trkpt>
      <trkpt lat="46.23017" lon="-1.41352">
        <ele>-1</ele>
        <time>2025-07-03T10:28:47Z</time>
      </trkpt>
      <trkpt lat="46.23018" lon="-1.41356">
        <ele>-1.2</ele>
        <time>2025-07-03T10:28:50Z</time>
      </trkpt>
      <trkpt lat="46.23019" lon="-1.41365">
        <ele>-1.2</ele>
        <time>2025-07-03T10:28:56Z</time>
      </trkpt>
      <trkpt lat="46.23019" lon="-1.41369">
        <ele>-1.2</ele>
        <time>2025-07-03T10:28:59Z</time>
      </trkpt>
      <trkpt lat="46.23016" lon="-1.41372">
        <ele>-1.6</ele>
        <time>2025-07-03T10:29:03Z</time>
      </trkpt>
      <trkpt lat="46.23014" lon="-1.41373">
        <ele>-2</ele>
        <time>2025-07-03T10:29:05Z</time>
      </trkpt>
      <trkpt lat="46.23012" lon="-1.41376">
        <ele>-2.4</ele>
        <time>2025-07-03T10:29:07Z</time>
      </trkpt>
      <trkpt lat="46.23012" lon="-1.41384">
        <ele>-2.6</ele>
        <time>2025-07-03T10:29:12Z</time>
      </trkpt>
      <trkpt lat="46.23017" lon="-1.41395">
        <ele>-2.8</ele>
        <time>2025-07-03T10:29:21Z</time>
      </trkpt>
      <trkpt lat="46.23019" lon="-1.41401">
        <ele>-2.8</ele>
        <time>2025-07-03T10:29:25Z</time>
      </trkpt>
      <trkpt lat="46.23021" lon="-1.41404">
        <ele>-3</ele>
        <time>2025-07-03T10:29:28Z</time>
      </trkpt>
      <trkpt lat="46.23022" lon="-1.41407">
        <ele>-3</ele>
        <time>2025-07-03T10:29:31Z</time>
      </trkpt>
      <trkpt lat="46.23022" lon="-1.41409">
        <ele>-3.2</ele>
        <time>2025-07-03T10:29:32Z</time>
      </trkpt>
      <trkpt lat="46.23024" lon="-1.41423">
        <ele>-2.8</ele>
        <time>2025-07-03T10:29:38Z</time>
      </trkpt>
      <trkpt lat="46.23024" lon="-1.41428">
        <ele>-3</ele>
        <time>2025-07-03T10:29:41Z</time>
      </trkpt>
      <trkpt lat="46.23025" lon="-1.4143">
        <ele>-3.2</ele>
        <time>2025-07-03T10:29:42Z</time>
      </trkpt>
      <trkpt lat="46.23026" lon="-1.41435">
        <ele>-3.2</ele>
        <time>2025-07-03T10:29:45Z</time>
      </trkpt>
      <trkpt lat="46.23026" lon="-1.41437">
        <ele>-3.4</ele>
        <time>2025-07-03T10:29:46Z</time>
      </trkpt>
      <trkpt lat="46.23026" lon="-1.41443">
        <ele>-3.4</ele>
        <time>2025-07-03T10:29:49Z</time>
      </trkpt>
      <trkpt lat="46.23029" lon="-1.41461">
        <ele>-3.4</ele>
        <time>2025-07-03T10:29:57Z</time>
      </trkpt>
      <trkpt lat="46.23032" lon="-1.41474">
        <ele>-3.6</ele>
        <time>2025-07-03T10:30:05Z</time>
      </trkpt>
      <trkpt lat="46.23036" lon="-1.41494">
        <ele>-3.4</ele>
        <time>2025-07-03T10:30:16Z</time>
      </trkpt>
      <trkpt lat="46.23038" lon="-1.41504">
        <ele>-3.6</ele>
        <time>2025-07-03T10:30:22Z</time>
      </trkpt>
      <trkpt lat="46.23039" lon="-1.41506">
        <ele>-3.6</ele>
        <time>2025-07-03T10:30:23Z</time>
      </trkpt>
      <trkpt lat="46.23041" lon="-1.41525">
        <ele>-3.6</ele>
        <time>2025-07-03T10:30:32Z</time>
      </trkpt>
      <trkpt lat="46.23042" lon="-1.41544">
        <ele>-3.4</ele>
        <time>2025-07-03T10:30:42Z</time>
      </trkpt>
      <trkpt lat="46.23043" lon="-1.41561">
        <ele>-3.6</ele>
        <time>2025-07-03T10:30:51Z</time>
      </trkpt>
      <trkpt lat="46.23042" lon="-1.4158">
        <ele>-3.6</ele>
        <time>2025-07-03T10:31:01Z</time>
      </trkpt>
      <trkpt lat="46.23041" lon="-1.41598">
        <ele>-3.6</ele>
        <time>2025-07-03T10:31:10Z</time>
      </trkpt>
      <trkpt lat="46.23041" lon="-1.41603">
        <ele>-3.6</ele>
        <time>2025-07-03T10:31:13Z</time>
      </trkpt>
      <trkpt lat="46.23042" lon="-1.4161">
        <ele>-3.6</ele>
        <time>2025-07-03T10:31:17Z</time>
      </trkpt>
      <trkpt lat="46.23043" lon="-1.4163">
        <ele>-3.4</ele>
        <time>2025-07-03T10:31:28Z</time>
      </trkpt>
      <trkpt lat="46.23043" lon="-1.41647">
        <ele>-3.4</ele>
        <time>2025-07-03T10:31:37Z</time>
      </trkpt>
      <trkpt lat="46.23044" lon="-1.41671">
        <ele>-3.4</ele>
        <time>2025-07-03T10:31:49Z</time>
      </trkpt>
      <trkpt lat="46.23044" lon="-1.41675">
        <ele>-3.4</ele>
        <time>2025-07-03T10:31:51Z</time>
      </trkpt>
      <trkpt lat="46.23044" lon="-1.41692">
        <ele>-3.2</ele>
        <time>2025-07-03T10:31:59Z</time>
      </trkpt>
      <trkpt lat="46.23043" lon="-1.41702">
        <ele>-3.2</ele>
        <time>2025-07-03T10:32:04Z</time>
      </trkpt>
      <trkpt lat="46.23042" lon="-1.41718">
        <ele>-3.4</ele>
        <time>2025-07-03T10:32:12Z</time>
      </trkpt>
      <trkpt lat="46.2304" lon="-1.41736">
        <ele>-3.2</ele>
        <time>2025-07-03T10:32:21Z</time>
      </trkpt>
      <trkpt lat="46.2304" lon="-1.41751">
        <ele>-3.4</ele>
        <time>2025-07-03T10:32:29Z</time>
      </trkpt>
      <trkpt lat="46.2304" lon="-1.41753">
        <ele>-3.4</ele>
        <time>2025-07-03T10:32:30Z</time>
      </trkpt>
      <trkpt lat="46.23041" lon="-1.41768">
        <ele>-3.4</ele>
        <time>2025-07-03T10:32:38Z</time>
      </trkpt>
      <trkpt lat="46.23042" lon="-1.41785">
        <ele>-3.4</ele>
        <time>2025-07-03T10:32:47Z</time>
      </trkpt>
      <trkpt lat="46.23042" lon="-1.41794">
        <ele>-3.2</ele>
        <time>2025-07-03T10:32:53Z</time>
      </trkpt>
      <trkpt lat="46.23043" lon="-1.41799">
        <ele>-3.2</ele>
        <time>2025-07-03T10:32:56Z</time>
      </trkpt>
      <trkpt lat="46.23044" lon="-1.41817">
        <ele>-3</ele>
        <time>2025-07-03T10:33:08Z</time>
      </trkpt>
      <trkpt lat="46.23044" lon="-1.41838">
        <ele>-3</ele>
        <time>2025-07-03T10:33:20Z</time>
      </trkpt>
      <trkpt lat="46.23046" lon="-1.41849">
        <ele>-3</ele>
        <time>2025-07-03T10:33:27Z</time>
      </trkpt>
      <trkpt lat="46.23046" lon="-1.41866">
        <ele>-3</ele>
        <time>2025-07-03T10:33:36Z</time>
      </trkpt>
      <trkpt lat="46.23046" lon="-1.41872">
        <ele>-2.8</ele>
        <time>2025-07-03T10:33:40Z</time>
      </trkpt>
      <trkpt lat="46.23046" lon="-1.41873">
        <ele>-3</ele>
        <time>2025-07-03T10:33:42Z</time>
      </trkpt>
      <trkpt lat="46.23046" lon="-1.41876">
        <ele>-3</ele>
        <time>2025-07-03T10:33:44Z</time>
      </trkpt>
      <trkpt lat="46.23045" lon="-1.41886">
        <ele>-3</ele>
        <time>2025-07-03T10:33:49Z</time>
      </trkpt>
      <trkpt lat="46.23046" lon="-1.41901">
        <ele>-2.4</ele>
        <time>2025-07-03T10:33:57Z</time>
      </trkpt>
      <trkpt lat="46.23045" lon="-1.41903">
        <ele>-2.2</ele>
        <time>2025-07-03T10:33:58Z</time>
      </trkpt>
      <trkpt lat="46.23046" lon="-1.41919">
        <ele>-2.2</ele>
        <time>2025-07-03T10:34:07Z</time>
      </trkpt>
      <trkpt lat="46.23046" lon="-1.41925">
        <ele>-2</ele>
        <time>2025-07-03T10:34:11Z</time>
      </trkpt>
      <trkpt lat="46.23047" lon="-1.41931">
        <ele>-2.2</ele>
        <time>2025-07-03T10:34:15Z</time>
      </trkpt>
      <trkpt lat="46.23048" lon="-1.41934">
        <ele>-2.2</ele>
        <time>2025-07-03T10:34:17Z</time>
      </trkpt>
      <trkpt lat="46.23048" lon="-1.41938">
        <ele>-2.2</ele>
        <time>2025-07-03T10:34:19Z</time>
      </trkpt>
      <trkpt lat="46.23049" lon="-1.41948">
        <ele>-2</ele>
        <time>2025-07-03T10:34:24Z</time>
      </trkpt>
      <trkpt lat="46.23047" lon="-1.41959">
        <ele>-2</ele>
        <time>2025-07-03T10:34:30Z</time>
      </trkpt>
      <trkpt lat="46.23046" lon="-1.41979">
        <ele>-2.4</ele>
        <time>2025-07-03T10:34:39Z</time>
      </trkpt>
      <trkpt lat="46.23046" lon="-1.42001">
        <ele>-2</ele>
        <time>2025-07-03T10:34:50Z</time>
      </trkpt>
      <trkpt lat="46.23045" lon="-1.42026">
        <ele>-1.6</ele>
        <time>2025-07-03T10:35:02Z</time>
      </trkpt>
      <trkpt lat="46.23045" lon="-1.42049">
        <ele>-1.2</ele>
        <time>2025-07-03T10:35:14Z</time>
      </trkpt>
      <trkpt lat="46.23045" lon="-1.4206">
        <ele>-1.2</ele>
        <time>2025-07-03T10:35:20Z</time>
      </trkpt>
      <trkpt lat="46.23044" lon="-1.42078">
        <ele>-0.80000000000001</ele>
        <time>2025-07-03T10:35:29Z</time>
      </trkpt>
      <trkpt lat="46.23044" lon="-1.42093">
        <ele>-0.80000000000001</ele>
        <time>2025-07-03T10:35:37Z</time>
      </trkpt>
      <trkpt lat="46.23043" lon="-1.42115">
        <ele>-0.80000000000001</ele>
        <time>2025-07-03T10:35:49Z</time>
      </trkpt>
      <trkpt lat="46.23043" lon="-1.42138">
        <ele>-0.60000000000002</ele>
        <time>2025-07-03T10:35:59Z</time>
      </trkpt>
      <trkpt lat="46.23042" lon="-1.42154">
        <ele>-0.60000000000002</ele>
        <time>2025-07-03T10:36:06Z</time>
      </trkpt>
      <trkpt lat="46.23042" lon="-1.42162">
        <ele>-0.60000000000002</ele>
        <time>2025-07-03T10:36:10Z</time>
      </trkpt>
      <trkpt lat="46.23042" lon="-1.42177">
        <ele>-0.39999999999998</ele>
        <time>2025-07-03T10:36:17Z</time>
      </trkpt>
      <trkpt lat="46.23042" lon="-1.42179">
        <ele>-0.60000000000002</ele>
        <time>2025-07-03T10:36:20Z</time>
      </trkpt>
      <trkpt lat="46.23041" lon="-1.42182">
        <ele>-0.80000000000001</ele>
        <time>2025-07-03T10:36:22Z</time>
      </trkpt>
      <trkpt lat="46.23041" lon="-1.42183">
        <ele>-0.60000000000002</ele>
        <time>2025-07-03T10:36:23Z</time>
      </trkpt>
      <trkpt lat="46.23041" lon="-1.42194">
        <ele>-1</ele>
        <time>2025-07-03T10:36:31Z</time>
      </trkpt>
      <trkpt lat="46.23039" lon="-1.42198">
        <ele>-1.2</ele>
        <time>2025-07-03T10:36:39Z</time>
      </trkpt>
      <trkpt lat="46.2304" lon="-1.42198">
        <ele>-1.4</ele>
        <time>2025-07-03T10:36:44Z</time>
      </trkpt>
      <trkpt lat="46.2304" lon="-1.42193">
        <ele>-1</ele>
        <time>2025-07-03T10:36:50Z</time>
      </trkpt>
      <trkpt lat="46.23034" lon="-1.42197">
        <ele>-1</ele>
        <time>2025-07-03T10:36:55Z</time>
      </trkpt>
      <trkpt lat="46.23028" lon="-1.42201">
        <ele>-1</ele>
        <time>2025-07-03T10:36:59Z</time>
      </trkpt>
      <trkpt lat="46.23022" lon="-1.42207">
        <ele>-1.2</ele>
        <time>2025-07-03T10:37:04Z</time>
      </trkpt>
      <trkpt lat="46.23018" lon="-1.42211">
        <ele>-1.4</ele>
        <time>2025-07-03T10:37:08Z</time>
      </trkpt>
      <trkpt lat="46.23016" lon="-1.42214">
        <ele>-1.6</ele>
        <time>2025-07-03T10:37:10Z</time>
      </trkpt>
      <trkpt lat="46.23004" lon="-1.42224">
        <ele>-1.6</ele>
        <time>2025-07-03T10:37:19Z</time>
      </trkpt>
      <trkpt lat="46.22991" lon="-1.42235">
        <ele>-1.8</ele>
        <time>2025-07-03T10:37:29Z</time>
      </trkpt>
      <trkpt lat="46.22984" lon="-1.42242">
        <ele>-2</ele>
        <time>2025-07-03T10:37:35Z</time>
      </trkpt>
      <trkpt lat="46.22982" lon="-1.42244">
        <ele>-2</ele>
        <time>2025-07-03T10:37:37Z</time>
      </trkpt>
      <trkpt lat="46.22972" lon="-1.42254">
        <ele>-2</ele>
        <time>2025-07-03T10:37:45Z</time>
      </trkpt>
      <trkpt lat="46.22965" lon="-1.4227">
        <ele>-1.8</ele>
        <time>2025-07-03T10:37:54Z</time>
      </trkpt>
      <trkpt lat="46.22964" lon="-1.42272">
        <ele>-1.8</ele>
        <time>2025-07-03T10:37:55Z</time>
      </trkpt>
      <trkpt lat="46.2296" lon="-1.42276">
        <ele>-1.8</ele>
        <time>2025-07-03T10:37:59Z</time>
      </trkpt>
      <trkpt lat="46.22954" lon="-1.42293">
        <ele>-1.6</ele>
        <time>2025-07-03T10:38:08Z</time>
      </trkpt>
      <trkpt lat="46.22949" lon="-1.42303">
        <ele>-0.80000000000001</ele>
        <time>2025-07-03T10:38:14Z</time>
      </trkpt>
      <trkpt lat="46.22947" lon="-1.42311">
        <ele>-1</ele>
        <time>2025-07-03T10:38:18Z</time>
      </trkpt>
      <trkpt lat="46.22947" lon="-1.42313">
        <ele>-1.2</ele>
        <time>2025-07-03T10:38:19Z</time>
      </trkpt>
      <trkpt lat="46.22941" lon="-1.42325">
        <ele>-1.4</ele>
        <time>2025-07-03T10:38:26Z</time>
      </trkpt>
      <trkpt lat="46.22935" lon="-1.42335">
        <ele>-1.2</ele>
        <time>2025-07-03T10:38:33Z</time>
      </trkpt>
      <trkpt lat="46.22934" lon="-1.42337">
        <ele>-1.2</ele>
        <time>2025-07-03T10:38:34Z</time>
      </trkpt>
      <trkpt lat="46.22933" lon="-1.4234">
        <ele>-1.2</ele>
        <time>2025-07-03T10:38:36Z</time>
      </trkpt>
      <trkpt lat="46.2293" lon="-1.42344">
        <ele>-1.2</ele>
        <time>2025-07-03T10:38:39Z</time>
      </trkpt>
      <trkpt lat="46.22927" lon="-1.42348">
        <ele>-1</ele>
        <time>2025-07-03T10:38:42Z</time>
      </trkpt>
      <trkpt lat="46.22923" lon="-1.42357">
        <ele>-1</ele>
        <time>2025-07-03T10:38:47Z</time>
      </trkpt>
      <trkpt lat="46.22921" lon="-1.42361">
        <ele>-1</ele>
        <time>2025-07-03T10:38:49Z</time>
      </trkpt>
      <trkpt lat="46.22914" lon="-1.4237">
        <ele>-1.4</ele>
        <time>2025-07-03T10:38:55Z</time>
      </trkpt>
      <trkpt lat="46.22911" lon="-1.42376">
        <ele>-1.4</ele>
        <time>2025-07-03T10:38:58Z</time>
      </trkpt>
      <trkpt lat="46.22908" lon="-1.42383">
        <ele>-1.8</ele>
        <time>2025-07-03T10:39:03Z</time>
      </trkpt>
      <trkpt lat="46.22903" lon="-1.42393">
        <ele>-1.8</ele>
        <time>2025-07-03T10:39:09Z</time>
      </trkpt>
      <trkpt lat="46.22902" lon="-1.42394">
        <ele>-1.8</ele>
        <time>2025-07-03T10:39:10Z</time>
      </trkpt>
      <trkpt lat="46.2289" lon="-1.42414">
        <ele>-1.4</ele>
        <time>2025-07-03T10:39:22Z</time>
      </trkpt>
      <trkpt lat="46.22882" lon="-1.42426">
        <ele>-1.6</ele>
        <time>2025-07-03T10:39:29Z</time>
      </trkpt>
      <trkpt lat="46.2288" lon="-1.4243">
        <ele>-1.4</ele>
        <time>2025-07-03T10:39:32Z</time>
      </trkpt>
      <trkpt lat="46.22872" lon="-1.42443">
        <ele>-1.8</ele>
        <time>2025-07-03T10:39:40Z</time>
      </trkpt>
      <trkpt lat="46.22867" lon="-1.42454">
        <ele>-1.8</ele>
        <time>2025-07-03T10:39:46Z</time>
      </trkpt>
      <trkpt lat="46.22865" lon="-1.42457">
        <ele>-1.8</ele>
        <time>2025-07-03T10:39:48Z</time>
      </trkpt>
      <trkpt lat="46.22859" lon="-1.42471">
        <ele>-2</ele>
        <time>2025-07-03T10:39:56Z</time>
      </trkpt>
      <trkpt lat="46.2286" lon="-1.42483">
        <ele>-1.8</ele>
        <time>2025-07-03T10:40:02Z</time>
      </trkpt>
      <trkpt lat="46.22863" lon="-1.42494">
        <ele>-2.2</ele>
        <time>2025-07-03T10:40:08Z</time>
      </trkpt>
      <trkpt lat="46.22864" lon="-1.42498">
        <ele>-2.2</ele>
        <time>2025-07-03T10:40:10Z</time>
      </trkpt>
      <trkpt lat="46.22865" lon="-1.42509">
        <ele>-2.2</ele>
        <time>2025-07-03T10:40:16Z</time>
      </trkpt>
      <trkpt lat="46.22865" lon="-1.42511">
        <ele>-2.2</ele>
        <time>2025-07-03T10:40:17Z</time>
      </trkpt>
      <trkpt lat="46.22866" lon="-1.42516">
        <ele>-2</ele>
        <time>2025-07-03T10:40:20Z</time>
      </trkpt>
      <trkpt lat="46.22868" lon="-1.42519">
        <ele>-2</ele>
        <time>2025-07-03T10:40:22Z</time>
      </trkpt>
      <trkpt lat="46.22868" lon="-1.42524">
        <ele>-2.2</ele>
        <time>2025-07-03T10:40:24Z</time>
      </trkpt>
      <trkpt lat="46.22868" lon="-1.42526">
        <ele>-2.2</ele>
        <time>2025-07-03T10:40:25Z</time>
      </trkpt>
      <trkpt lat="46.22869" lon="-1.42529">
        <ele>-2.4</ele>
        <time>2025-07-03T10:40:27Z</time>
      </trkpt>
      <trkpt lat="46.22874" lon="-1.42538">
        <ele>-2.2</ele>
        <time>2025-07-03T10:40:32Z</time>
      </trkpt>
      <trkpt lat="46.22877" lon="-1.42545">
        <ele>-2.2</ele>
        <time>2025-07-03T10:40:36Z</time>
      </trkpt>
      <trkpt lat="46.22878" lon="-1.42548">
        <ele>-2.2</ele>
        <time>2025-07-03T10:40:38Z</time>
      </trkpt>
      <trkpt lat="46.22878" lon="-1.4255">
        <ele>-2.2</ele>
        <time>2025-07-03T10:40:39Z</time>
      </trkpt>
      <trkpt lat="46.22879" lon="-1.42555">
        <ele>-2.2</ele>
        <time>2025-07-03T10:40:42Z</time>
      </trkpt>
      <trkpt lat="46.22882" lon="-1.42568">
        <ele>-2</ele>
        <time>2025-07-03T10:40:49Z</time>
      </trkpt>
      <trkpt lat="46.22885" lon="-1.42577">
        <ele>-1.8</ele>
        <time>2025-07-03T10:40:54Z</time>
      </trkpt>
      <trkpt lat="46.22886" lon="-1.42584">
        <ele>-2</ele>
        <time>2025-07-03T10:40:58Z</time>
      </trkpt>
      <trkpt lat="46.22888" lon="-1.42587">
        <ele>-1.8</ele>
        <time>2025-07-03T10:41:00Z</time>
      </trkpt>
      <trkpt lat="46.22889" lon="-1.42591">
        <ele>-1.6</ele>
        <time>2025-07-03T10:41:02Z</time>
      </trkpt>
      <trkpt lat="46.22889" lon="-1.42595">
        <ele>-1.6</ele>
        <time>2025-07-03T10:41:04Z</time>
      </trkpt>
      <trkpt lat="46.22889" lon="-1.426">
        <ele>-1.6</ele>
        <time>2025-07-03T10:41:06Z</time>
      </trkpt>
      <trkpt lat="46.22892" lon="-1.4261">
        <ele>-1.6</ele>
        <time>2025-07-03T10:41:11Z</time>
      </trkpt>
      <trkpt lat="46.22894" lon="-1.42615">
        <ele>-1.6</ele>
        <time>2025-07-03T10:41:13Z</time>
      </trkpt>
      <trkpt lat="46.22899" lon="-1.4263">
        <ele>-1.2</ele>
        <time>2025-07-03T10:41:21Z</time>
      </trkpt>
      <trkpt lat="46.22903" lon="-1.42645">
        <ele>-1.4</ele>
        <time>2025-07-03T10:41:28Z</time>
      </trkpt>
      <trkpt lat="46.22904" lon="-1.42647">
        <ele>-1.4</ele>
        <time>2025-07-03T10:41:29Z</time>
      </trkpt>
      <trkpt lat="46.22905" lon="-1.4265">
        <ele>-1.2</ele>
        <time>2025-07-03T10:41:31Z</time>
      </trkpt>
      <trkpt lat="46.22906" lon="-1.42653">
        <ele>-1.2</ele>
        <time>2025-07-03T10:41:33Z</time>
      </trkpt>
      <trkpt lat="46.22907" lon="-1.42658">
        <ele>-1.2</ele>
        <time>2025-07-03T10:41:36Z</time>
      </trkpt>
      <trkpt lat="46.22907" lon="-1.42665">
        <ele>-1</ele>
        <time>2025-07-03T10:41:39Z</time>
      </trkpt>
      <trkpt lat="46.22911" lon="-1.42678">
        <ele>-1</ele>
        <time>2025-07-03T10:41:45Z</time>
      </trkpt>
      <trkpt lat="46.22912" lon="-1.42681">
        <ele>-0.80000000000001</ele>
        <time>2025-07-03T10:41:47Z</time>
      </trkpt>
      <trkpt lat="46.22909" lon="-1.42695">
        <ele>-0.60000000000002</ele>
        <time>2025-07-03T10:41:55Z</time>
      </trkpt>
      <trkpt lat="46.22902" lon="-1.42699">
        <ele>-0.60000000000002</ele>
        <time>2025-07-03T10:42:01Z</time>
      </trkpt>
      <trkpt lat="46.22899" lon="-1.42703">
        <ele>-0.60000000000002</ele>
        <time>2025-07-03T10:42:04Z</time>
      </trkpt>
      <trkpt lat="46.22891" lon="-1.4271">
        <ele>-0.60000000000002</ele>
        <time>2025-07-03T10:42:11Z</time>
      </trkpt>
      <trkpt lat="46.22879" lon="-1.4272">
        <ele>-0.39999999999998</ele>
        <time>2025-07-03T10:42:21Z</time>
      </trkpt>
      <trkpt lat="46.22873" lon="-1.42728">
        <ele>-0.19999999999999</ele>
        <time>2025-07-03T10:42:25Z</time>
      </trkpt>
      <trkpt lat="46.2287" lon="-1.42733">
        <ele>-0.19999999999999</ele>
        <time>2025-07-03T10:42:28Z</time>
      </trkpt>
      <trkpt lat="46.22865" lon="-1.42745">
        <ele>-0.19999999999999</ele>
        <time>2025-07-03T10:42:35Z</time>
      </trkpt>
      <trkpt lat="46.22857" lon="-1.42757">
        <ele>-0.19999999999999</ele>
        <time>2025-07-03T10:42:43Z</time>
      </trkpt>
      <trkpt lat="46.22851" lon="-1.42769">
        <ele>-0.19999999999999</ele>
        <time>2025-07-03T10:42:50Z</time>
      </trkpt>
      <trkpt lat="46.22849" lon="-1.42773">
        <ele>-0.19999999999999</ele>
        <time>2025-07-03T10:42:52Z</time>
      </trkpt>
      <trkpt lat="46.22845" lon="-1.42781">
        <ele>0.19999999999999</ele>
        <time>2025-07-03T10:42:57Z</time>
      </trkpt>
      <trkpt lat="46.22845" lon="-1.42784">
        <ele>0.19999999999999</ele>
        <time>2025-07-03T10:42:59Z</time>
      </trkpt>
      <trkpt lat="46.22844" lon="-1.42786">
        <ele>0.19999999999999</ele>
        <time>2025-07-03T10:43:00Z</time>
      </trkpt>
      <trkpt lat="46.22843" lon="-1.42789">
        <ele>0.39999999999998</ele>
        <time>2025-07-03T10:43:02Z</time>
      </trkpt>
      <trkpt lat="46.22839" lon="-1.42796">
        <ele>0.60000000000002</ele>
        <time>2025-07-03T10:43:06Z</time>
      </trkpt>
      <trkpt lat="46.22833" lon="-1.42809">
        <ele>0.60000000000002</ele>
        <time>2025-07-03T10:43:14Z</time>
      </trkpt>
      <trkpt lat="46.22826" lon="-1.42822">
        <ele>0.60000000000002</ele>
        <time>2025-07-03T10:43:23Z</time>
      </trkpt>
      <trkpt lat="46.22824" lon="-1.42823">
        <ele>0.60000000000002</ele>
        <time>2025-07-03T10:43:24Z</time>
      </trkpt>
      <trkpt lat="46.22821" lon="-1.42826">
        <ele>0.80000000000001</ele>
        <time>2025-07-03T10:43:28Z</time>
      </trkpt>
      <trkpt lat="46.22818" lon="-1.42828">
        <ele>0.80000000000001</ele>
        <time>2025-07-03T10:43:30Z</time>
      </trkpt>
      <trkpt lat="46.22812" lon="-1.42831">
        <ele>0.60000000000002</ele>
        <time>2025-07-03T10:43:34Z</time>
      </trkpt>
      <trkpt lat="46.22806" lon="-1.42834">
        <ele>0.60000000000002</ele>
        <time>2025-07-03T10:43:39Z</time>
      </trkpt>
      <trkpt lat="46.22803" lon="-1.42837">
        <ele>0.80000000000001</ele>
        <time>2025-07-03T10:43:42Z</time>
      </trkpt>
      <trkpt lat="46.228" lon="-1.42839">
        <ele>1</ele>
        <time>2025-07-03T10:43:44Z</time>
      </trkpt>
      <trkpt lat="46.22794" lon="-1.42845">
        <ele>1.2</ele>
        <time>2025-07-03T10:43:49Z</time>
      </trkpt>
      <trkpt lat="46.22789" lon="-1.42847">
        <ele>1</ele>
        <time>2025-07-03T10:43:53Z</time>
      </trkpt>
      <trkpt lat="46.22783" lon="-1.42849">
        <ele>1</ele>
        <time>2025-07-03T10:43:57Z</time>
      </trkpt>
      <trkpt lat="46.22781" lon="-1.42851">
        <ele>1</ele>
        <time>2025-07-03T10:43:59Z</time>
      </trkpt>
      <trkpt lat="46.22782" lon="-1.42851">
        <ele>1.2</ele>
        <time>2025-07-03T10:44:00Z</time>
      </trkpt>
      <trkpt lat="46.22784" lon="-1.4285">
        <ele>1.4</ele>
        <time>2025-07-03T10:44:02Z</time>
      </trkpt>
      <trkpt lat="46.22792" lon="-1.42849">
        <ele>1.4</ele>
        <time>2025-07-03T10:44:08Z</time>
      </trkpt>
      <trkpt lat="46.22793" lon="-1.42851">
        <ele>1.4</ele>
        <time>2025-07-03T10:44:09Z</time>
      </trkpt>
      <trkpt lat="46.22797" lon="-1.4286">
        <ele>1.6</ele>
        <time>2025-07-03T10:44:15Z</time>
      </trkpt>
      <trkpt lat="46.22801" lon="-1.42874">
        <ele>1.6</ele>
        <time>2025-07-03T10:44:23Z</time>
      </trkpt>
      <trkpt lat="46.22804" lon="-1.42886">
        <ele>1.8</ele>
        <time>2025-07-03T10:44:30Z</time>
      </trkpt>
      <trkpt lat="46.22804" lon="-1.42888">
        <ele>1.8</ele>
        <time>2025-07-03T10:44:31Z</time>
      </trkpt>
      <trkpt lat="46.22803" lon="-1.42891">
        <ele>1.6</ele>
        <time>2025-07-03T10:44:33Z</time>
      </trkpt>
      <trkpt lat="46.22795" lon="-1.429">
        <ele>1.6</ele>
        <time>2025-07-03T10:44:39Z</time>
      </trkpt>
      <trkpt lat="46.22785" lon="-1.42908">
        <ele>1.6</ele>
        <time>2025-07-03T10:44:46Z</time>
      </trkpt>
      <trkpt lat="46.22783" lon="-1.42911">
        <ele>1.6</ele>
        <time>2025-07-03T10:44:48Z</time>
      </trkpt>
      <trkpt lat="46.22782" lon="-1.42919">
        <ele>1.8</ele>
        <time>2025-07-03T10:44:52Z</time>
      </trkpt>
      <trkpt lat="46.22783" lon="-1.42921">
        <ele>1.8</ele>
        <time>2025-07-03T10:44:53Z</time>
      </trkpt>
      <trkpt lat="46.22785" lon="-1.42939">
        <ele>1.8</ele>
        <time>2025-07-03T10:45:00Z</time>
      </trkpt>
      <trkpt lat="46.22791" lon="-1.42957">
        <ele>1.6</ele>
        <time>2025-07-03T10:45:10Z</time>
      </trkpt>
      <trkpt lat="46.228" lon="-1.42959">
        <ele>1.8</ele>
        <time>2025-07-03T10:45:16Z</time>
      </trkpt>
      <trkpt lat="46.22802" lon="-1.42968">
        <ele>2</ele>
        <time>2025-07-03T10:45:22Z</time>
      </trkpt>
      <trkpt lat="46.22804" lon="-1.42977">
        <ele>2</ele>
        <time>2025-07-03T10:45:27Z</time>
      </trkpt>
      <trkpt lat="46.22805" lon="-1.42984">
        <ele>1.8</ele>
        <time>2025-07-03T10:45:30Z</time>
      </trkpt>
      <trkpt lat="46.22805" lon="-1.42994">
        <ele>1.8</ele>
        <time>2025-07-03T10:45:34Z</time>
      </trkpt>
      <trkpt lat="46.22805" lon="-1.42997">
        <ele>2</ele>
        <time>2025-07-03T10:45:37Z</time>
      </trkpt>
      <trkpt lat="46.22803" lon="-1.42998">
        <ele>2</ele>
        <time>2025-07-03T10:45:39Z</time>
      </trkpt>
      <trkpt lat="46.22802" lon="-1.42998">
        <ele>1.8</ele>
        <time>2025-07-03T10:45:41Z</time>
      </trkpt>
      <trkpt lat="46.22798" lon="-1.42999">
        <ele>1.8</ele>
        <time>2025-07-03T10:45:44Z</time>
      </trkpt>
      <trkpt lat="46.22794" lon="-1.43004">
        <ele>1.8</ele>
        <time>2025-07-03T10:45:48Z</time>
      </trkpt>
      <trkpt lat="46.22788" lon="-1.43009">
        <ele>1.8</ele>
        <time>2025-07-03T10:45:53Z</time>
      </trkpt>
      <trkpt lat="46.22785" lon="-1.43013">
        <ele>1.8</ele>
        <time>2025-07-03T10:45:56Z</time>
      </trkpt>
      <trkpt lat="46.22776" lon="-1.43021">
        <ele>1.6</ele>
        <time>2025-07-03T10:46:03Z</time>
      </trkpt>
      <trkpt lat="46.22768" lon="-1.43038">
        <ele>1.8</ele>
        <time>2025-07-03T10:46:12Z</time>
      </trkpt>
      <trkpt lat="46.22768" lon="-1.43057">
        <ele>1.8</ele>
        <time>2025-07-03T10:46:22Z</time>
      </trkpt>
      <trkpt lat="46.22769" lon="-1.43065">
        <ele>1.6</ele>
        <time>2025-07-03T10:46:26Z</time>
      </trkpt>
      <trkpt lat="46.22769" lon="-1.43068">
        <ele>1.8</ele>
        <time>2025-07-03T10:46:28Z</time>
      </trkpt>
      <trkpt lat="46.22769" lon="-1.43092">
        <ele>1.8</ele>
        <time>2025-07-03T10:46:39Z</time>
      </trkpt>
      <trkpt lat="46.22767" lon="-1.43114">
        <ele>1.8</ele>
        <time>2025-07-03T10:46:49Z</time>
      </trkpt>
      <trkpt lat="46.22766" lon="-1.43135">
        <ele>1.6</ele>
        <time>2025-07-03T10:46:58Z</time>
      </trkpt>
      <trkpt lat="46.22765" lon="-1.43154">
        <ele>1.4</ele>
        <time>2025-07-03T10:47:09Z</time>
      </trkpt>
      <trkpt lat="46.22767" lon="-1.43161">
        <ele>1.6</ele>
        <time>2025-07-03T10:47:12Z</time>
      </trkpt>
      <trkpt lat="46.22768" lon="-1.43168">
        <ele>1.6</ele>
        <time>2025-07-03T10:47:16Z</time>
      </trkpt>
      <trkpt lat="46.22768" lon="-1.43193">
        <ele>1.4</ele>
        <time>2025-07-03T10:47:29Z</time>
      </trkpt>
      <trkpt lat="46.22769" lon="-1.4322">
        <ele>1.6</ele>
        <time>2025-07-03T10:47:43Z</time>
      </trkpt>
      <trkpt lat="46.22769" lon="-1.43242">
        <ele>1.6</ele>
        <time>2025-07-03T10:47:54Z</time>
      </trkpt>
      <trkpt lat="46.2277" lon="-1.43264">
        <ele>2</ele>
        <time>2025-07-03T10:48:05Z</time>
      </trkpt>
      <trkpt lat="46.2277" lon="-1.43285">
        <ele>2</ele>
        <time>2025-07-03T10:48:15Z</time>
      </trkpt>
      <trkpt lat="46.22772" lon="-1.43306">
        <ele>1.8</ele>
        <time>2025-07-03T10:48:25Z</time>
      </trkpt>
      <trkpt lat="46.22772" lon="-1.43327">
        <ele>1.8</ele>
        <time>2025-07-03T10:48:34Z</time>
      </trkpt>
      <trkpt lat="46.22768" lon="-1.43341">
        <ele>2</ele>
        <time>2025-07-03T10:48:41Z</time>
      </trkpt>
      <trkpt lat="46.22763" lon="-1.43345">
        <ele>2</ele>
        <time>2025-07-03T10:48:45Z</time>
      </trkpt>
      <trkpt lat="46.22761" lon="-1.43348">
        <ele>1.8</ele>
        <time>2025-07-03T10:48:47Z</time>
      </trkpt>
      <trkpt lat="46.2276" lon="-1.43348">
        <ele>1.8</ele>
        <time>2025-07-03T10:48:48Z</time>
      </trkpt>
      <trkpt lat="46.22758" lon="-1.43351">
        <ele>1.8</ele>
        <time>2025-07-03T10:48:50Z</time>
      </trkpt>
      <trkpt lat="46.22746" lon="-1.43354">
        <ele>1.6</ele>
        <time>2025-07-03T10:48:58Z</time>
      </trkpt>
      <trkpt lat="46.22732" lon="-1.43355">
        <ele>1.4</ele>
        <time>2025-07-03T10:49:07Z</time>
      </trkpt>
      <trkpt lat="46.22727" lon="-1.43355">
        <ele>1.4</ele>
        <time>2025-07-03T10:49:11Z</time>
      </trkpt>
      <trkpt lat="46.22725" lon="-1.43355">
        <ele>1.4</ele>
        <time>2025-07-03T10:49:12Z</time>
      </trkpt>
      <trkpt lat="46.22724" lon="-1.43356">
        <ele>1.4</ele>
        <time>2025-07-03T10:49:13Z</time>
      </trkpt>
      <trkpt lat="46.22717" lon="-1.43358">
        <ele>1.4</ele>
        <time>2025-07-03T10:49:17Z</time>
      </trkpt>
      <trkpt lat="46.22711" lon="-1.43368">
        <ele>1.4</ele>
        <time>2025-07-03T10:49:24Z</time>
      </trkpt>
      <trkpt lat="46.22713" lon="-1.43386">
        <ele>1.2</ele>
        <time>2025-07-03T10:49:32Z</time>
      </trkpt>
      <trkpt lat="46.22717" lon="-1.43408">
        <ele>1.2</ele>
        <time>2025-07-03T10:49:43Z</time>
      </trkpt>
      <trkpt lat="46.22719" lon="-1.43423">
        <ele>1</ele>
        <time>2025-07-03T10:49:51Z</time>
      </trkpt>
      <trkpt lat="46.2272" lon="-1.43431">
        <ele>0.80000000000001</ele>
        <time>2025-07-03T10:49:55Z</time>
      </trkpt>
      <trkpt lat="46.2272" lon="-1.43444">
        <ele>0.80000000000001</ele>
        <time>2025-07-03T10:50:01Z</time>
      </trkpt>
      <trkpt lat="46.22721" lon="-1.43459">
        <ele>0.60000000000002</ele>
        <time>2025-07-03T10:50:08Z</time>
      </trkpt>
      <trkpt lat="46.22721" lon="-1.43461">
        <ele>0.60000000000002</ele>
        <time>2025-07-03T10:50:09Z</time>
      </trkpt>
      <trkpt lat="46.22721" lon="-1.43483">
        <ele>0.60000000000002</ele>
        <time>2025-07-03T10:50:19Z</time>
      </trkpt>
      <trkpt lat="46.22721" lon="-1.43497">
        <ele>0.60000000000002</ele>
        <time>2025-07-03T10:50:25Z</time>
      </trkpt>
      <trkpt lat="46.22722" lon="-1.43522">
        <ele>0.39999999999998</ele>
        <time>2025-07-03T10:50:36Z</time>
      </trkpt>
      <trkpt lat="46.22723" lon="-1.43536">
        <ele>0.60000000000002</ele>
        <time>2025-07-03T10:50:43Z</time>
      </trkpt>
      <trkpt lat="46.22724" lon="-1.43543">
        <ele>0.60000000000002</ele>
        <time>2025-07-03T10:50:47Z</time>
      </trkpt>
      <trkpt lat="46.22726" lon="-1.43553">
        <ele>0.60000000000002</ele>
        <time>2025-07-03T10:50:52Z</time>
      </trkpt>
      <trkpt lat="46.2273" lon="-1.43571">
        <ele>0.60000000000002</ele>
        <time>2025-07-03T10:51:01Z</time>
      </trkpt>
      <trkpt lat="46.22732" lon="-1.43586">
        <ele>0.60000000000002</ele>
        <time>2025-07-03T10:51:08Z</time>
      </trkpt>
      <trkpt lat="46.22734" lon="-1.43606">
        <ele>1</ele>
        <time>2025-07-03T10:51:17Z</time>
      </trkpt>
      <trkpt lat="46.22734" lon="-1.4361">
        <ele>1</ele>
        <time>2025-07-03T10:51:19Z</time>
      </trkpt>
      <trkpt lat="46.22737" lon="-1.43618">
        <ele>0.80000000000001</ele>
        <time>2025-07-03T10:51:23Z</time>
      </trkpt>
      <trkpt lat="46.2274" lon="-1.43631">
        <ele>0.80000000000001</ele>
        <time>2025-07-03T10:51:30Z</time>
      </trkpt>
      <trkpt lat="46.2274" lon="-1.43637">
        <ele>0.80000000000001</ele>
        <time>2025-07-03T10:51:33Z</time>
      </trkpt>
      <trkpt lat="46.2274" lon="-1.43644">
        <ele>1</ele>
        <time>2025-07-03T10:51:36Z</time>
      </trkpt>
      <trkpt lat="46.22742" lon="-1.43664">
        <ele>0.80000000000001</ele>
        <time>2025-07-03T10:51:45Z</time>
      </trkpt>
      <trkpt lat="46.22744" lon="-1.43679">
        <ele>0.80000000000001</ele>
        <time>2025-07-03T10:51:52Z</time>
      </trkpt>
      <trkpt lat="46.22746" lon="-1.43692">
        <ele>0.80000000000001</ele>
        <time>2025-07-03T10:51:59Z</time>
      </trkpt>
      <trkpt lat="46.22745" lon="-1.43709">
        <ele>0.60000000000002</ele>
        <time>2025-07-03T10:52:06Z</time>
      </trkpt>
      <trkpt lat="46.22745" lon="-1.43715">
        <ele>0.60000000000002</ele>
        <time>2025-07-03T10:52:09Z</time>
      </trkpt>
      <trkpt lat="46.22744" lon="-1.43721">
        <ele>0.60000000000002</ele>
        <time>2025-07-03T10:52:12Z</time>
      </trkpt>
      <trkpt lat="46.22743" lon="-1.43739">
        <ele>0.80000000000001</ele>
        <time>2025-07-03T10:52:20Z</time>
      </trkpt>
      <trkpt lat="46.22742" lon="-1.43752">
        <ele>0.80000000000001</ele>
        <time>2025-07-03T10:52:26Z</time>
      </trkpt>
      <trkpt lat="46.2274" lon="-1.43768">
        <ele>0.80000000000001</ele>
        <time>2025-07-03T10:52:34Z</time>
      </trkpt>
      <trkpt lat="46.22736" lon="-1.43784">
        <ele>0.60000000000002</ele>
        <time>2025-07-03T10:52:42Z</time>
      </trkpt>
      <trkpt lat="46.22735" lon="-1.43785">
        <ele>0.60000000000002</ele>
        <time>2025-07-03T10:52:43Z</time>
      </trkpt>
      <trkpt lat="46.22733" lon="-1.43786">
        <ele>0.60000000000002</ele>
        <time>2025-07-03T10:52:45Z</time>
      </trkpt>
      <trkpt lat="46.22731" lon="-1.43786">
        <ele>0.39999999999998</ele>
        <time>2025-07-03T10:52:47Z</time>
      </trkpt>
      <trkpt lat="46.22722" lon="-1.43785">
        <ele>0.39999999999998</ele>
        <time>2025-07-03T10:52:52Z</time>
      </trkpt>
      <trkpt lat="46.22714" lon="-1.43786">
        <ele>0.19999999999999</ele>
        <time>2025-07-03T10:52:57Z</time>
      </trkpt>
      <trkpt lat="46.22706" lon="-1.43788">
        <ele>0.39999999999998</ele>
        <time>2025-07-03T10:53:03Z</time>
      </trkpt>
      <trkpt lat="46.22699" lon="-1.43789">
        <ele>0.19999999999999</ele>
        <time>2025-07-03T10:53:08Z</time>
      </trkpt>
      <trkpt lat="46.22687" lon="-1.4379">
        <ele>0.39999999999998</ele>
        <time>2025-07-03T10:53:17Z</time>
      </trkpt>
      <trkpt lat="46.22672" lon="-1.4379">
        <ele>0.19999999999999</ele>
        <time>2025-07-03T10:53:27Z</time>
      </trkpt>
      <trkpt lat="46.22664" lon="-1.43793">
        <ele>-0.19999999999999</ele>
        <time>2025-07-03T10:53:33Z</time>
      </trkpt>
      <trkpt lat="46.22658" lon="-1.43794">
        <ele>-0.39999999999998</ele>
        <time>2025-07-03T10:53:37Z</time>
      </trkpt>
      <trkpt lat="46.22652" lon="-1.43795">
        <ele>-0.39999999999998</ele>
        <time>2025-07-03T10:53:41Z</time>
      </trkpt>
      <trkpt lat="46.22646" lon="-1.43797">
        <ele>-0.60000000000002</ele>
        <time>2025-07-03T10:53:45Z</time>
      </trkpt>
      <trkpt lat="46.22641" lon="-1.43798">
        <ele>-0.80000000000001</ele>
        <time>2025-07-03T10:53:49Z</time>
      </trkpt>
      <trkpt lat="46.22639" lon="-1.43798">
        <ele>-0.80000000000001</ele>
        <time>2025-07-03T10:53:50Z</time>
      </trkpt>
      <trkpt lat="46.22631" lon="-1.438">
        <ele>-1</ele>
        <time>2025-07-03T10:53:56Z</time>
      </trkpt>
      <trkpt lat="46.22629" lon="-1.43801">
        <ele>-1</ele>
        <time>2025-07-03T10:53:57Z</time>
      </trkpt>
      <trkpt lat="46.22619" lon="-1.43803">
        <ele>-0.80000000000001</ele>
        <time>2025-07-03T10:54:04Z</time>
      </trkpt>
      <trkpt lat="46.22615" lon="-1.43803">
        <ele>-0.80000000000001</ele>
        <time>2025-07-03T10:54:07Z</time>
      </trkpt>
      <trkpt lat="46.22603" lon="-1.43807">
        <ele>-0.80000000000001</ele>
        <time>2025-07-03T10:54:16Z</time>
      </trkpt>
      <trkpt lat="46.22593" lon="-1.43808">
        <ele>-1</ele>
        <time>2025-07-03T10:54:23Z</time>
      </trkpt>
      <trkpt lat="46.22586" lon="-1.43808">
        <ele>-1.2</ele>
        <time>2025-07-03T10:54:28Z</time>
      </trkpt>
      <trkpt lat="46.22578" lon="-1.43809">
        <ele>-1.2</ele>
        <time>2025-07-03T10:54:33Z</time>
      </trkpt>
      <trkpt lat="46.22569" lon="-1.43809">
        <ele>-1.4</ele>
        <time>2025-07-03T10:54:40Z</time>
      </trkpt>
      <trkpt lat="46.22568" lon="-1.43809">
        <ele>-1.4</ele>
        <time>2025-07-03T10:54:41Z</time>
      </trkpt>
      <trkpt lat="46.22552" lon="-1.43811">
        <ele>-1.6</ele>
        <time>2025-07-03T10:54:52Z</time>
      </trkpt>
      <trkpt lat="46.22539" lon="-1.43814">
        <ele>-1.6</ele>
        <time>2025-07-03T10:55:01Z</time>
      </trkpt>
      <trkpt lat="46.22525" lon="-1.43815">
        <ele>-1.8</ele>
        <time>2025-07-03T10:55:10Z</time>
      </trkpt>
      <trkpt lat="46.22517" lon="-1.43815">
        <ele>-1.4</ele>
        <time>2025-07-03T10:55:16Z</time>
      </trkpt>
      <trkpt lat="46.2251" lon="-1.43815">
        <ele>-1.6</ele>
        <time>2025-07-03T10:55:20Z</time>
      </trkpt>
      <trkpt lat="46.22507" lon="-1.43815">
        <ele>-1.6</ele>
        <time>2025-07-03T10:55:22Z</time>
      </trkpt>
      <trkpt lat="46.22506" lon="-1.43815">
        <ele>-1.6</ele>
        <time>2025-07-03T10:55:23Z</time>
      </trkpt>
      <trkpt lat="46.22501" lon="-1.43817">
        <ele>-1.6</ele>
        <time>2025-07-03T10:55:27Z</time>
      </trkpt>
      <trkpt lat="46.22493" lon="-1.43827">
        <ele>-2</ele>
        <time>2025-07-03T10:55:34Z</time>
      </trkpt>
      <trkpt lat="46.22483" lon="-1.43832">
        <ele>-1.8</ele>
        <time>2025-07-03T10:55:42Z</time>
      </trkpt>
      <trkpt lat="46.22474" lon="-1.43836">
        <ele>-1.6</ele>
        <time>2025-07-03T10:55:48Z</time>
      </trkpt>
      <trkpt lat="46.22471" lon="-1.43848">
        <ele>-1.6</ele>
        <time>2025-07-03T10:55:54Z</time>
      </trkpt>
      <trkpt lat="46.22471" lon="-1.4385">
        <ele>-1.6</ele>
        <time>2025-07-03T10:55:55Z</time>
      </trkpt>
      <trkpt lat="46.22471" lon="-1.43868">
        <ele>-1.6</ele>
        <time>2025-07-03T10:56:04Z</time>
      </trkpt>
      <trkpt lat="46.22469" lon="-1.43889">
        <ele>-1.6</ele>
        <time>2025-07-03T10:56:13Z</time>
      </trkpt>
      <trkpt lat="46.2247" lon="-1.43909">
        <ele>-1.8</ele>
        <time>2025-07-03T10:56:23Z</time>
      </trkpt>
      <trkpt lat="46.22473" lon="-1.43927">
        <ele>-1.6</ele>
        <time>2025-07-03T10:56:32Z</time>
      </trkpt>
      <trkpt lat="46.22477" lon="-1.43945">
        <ele>-1.4</ele>
        <time>2025-07-03T10:56:41Z</time>
      </trkpt>
      <trkpt lat="46.22477" lon="-1.43947">
        <ele>-1.4</ele>
        <time>2025-07-03T10:56:42Z</time>
      </trkpt>
      <trkpt lat="46.22479" lon="-1.4396">
        <ele>-1.4</ele>
        <time>2025-07-03T10:56:48Z</time>
      </trkpt>
      <trkpt lat="46.22482" lon="-1.43977">
        <ele>-1.2</ele>
        <time>2025-07-03T10:56:56Z</time>
      </trkpt>
      <trkpt lat="46.22482" lon="-1.43979">
        <ele>-1</ele>
        <time>2025-07-03T10:56:57Z</time>
      </trkpt>
      <trkpt lat="46.22483" lon="-1.43982">
        <ele>-1</ele>
        <time>2025-07-03T10:56:59Z</time>
      </trkpt>
      <trkpt lat="46.22482" lon="-1.43983">
        <ele>-1</ele>
        <time>2025-07-03T10:57:00Z</time>
      </trkpt>
      <trkpt lat="46.22481" lon="-1.43982">
        <ele>-1</ele>
        <time>2025-07-03T10:57:02Z</time>
      </trkpt>
      <trkpt lat="46.2248" lon="-1.43979">
        <ele>-1.2</ele>
        <time>2025-07-03T10:57:05Z</time>
      </trkpt>
      <trkpt lat="46.2248" lon="-1.4398">
        <ele>-1.2</ele>
        <time>2025-07-03T10:57:09Z</time>
      </trkpt>
      <trkpt lat="46.2248" lon="-1.43984">
        <ele>-1.2</ele>
        <time>2025-07-03T10:57:16Z</time>
      </trkpt>
      <trkpt lat="46.22481" lon="-1.43988">
        <ele>-1</ele>
        <time>2025-07-03T10:57:20Z</time>
      </trkpt>
      <trkpt lat="46.22481" lon="-1.43993">
        <ele>-1</ele>
        <time>2025-07-03T10:57:22Z</time>
      </trkpt>
      <trkpt lat="46.22482" lon="-1.44009">
        <ele>-0.80000000000001</ele>
        <time>2025-07-03T10:57:30Z</time>
      </trkpt>
      <trkpt lat="46.22483" lon="-1.44023">
        <ele>-0.60000000000002</ele>
        <time>2025-07-03T10:57:37Z</time>
      </trkpt>
      <trkpt lat="46.22482" lon="-1.44027">
        <ele>-0.39999999999998</ele>
        <time>2025-07-03T10:57:39Z</time>
      </trkpt>
      <trkpt lat="46.22476" lon="-1.44034">
        <ele>-0.39999999999998</ele>
        <time>2025-07-03T10:57:45Z</time>
      </trkpt>
      <trkpt lat="46.22467" lon="-1.44037">
        <ele>-0.19999999999999</ele>
        <time>2025-07-03T10:57:51Z</time>
      </trkpt>
      <trkpt lat="46.22463" lon="-1.44038">
        <ele>-0.19999999999999</ele>
        <time>2025-07-03T10:57:55Z</time>
      </trkpt>
      <trkpt lat="46.22448" lon="-1.4404">
        <ele>-0.19999999999999</ele>
        <time>2025-07-03T10:58:05Z</time>
      </trkpt>
      <trkpt lat="46.22437" lon="-1.44044">
        <ele>-0.19999999999999</ele>
        <time>2025-07-03T10:58:13Z</time>
      </trkpt>
      <trkpt lat="46.22435" lon="-1.44046">
        <ele>-0.19999999999999</ele>
        <time>2025-07-03T10:58:15Z</time>
      </trkpt>
      <trkpt lat="46.22429" lon="-1.44048">
        <ele>-0.19999999999999</ele>
        <time>2025-07-03T10:58:20Z</time>
      </trkpt>
      <trkpt lat="46.22416" lon="-1.44053">
        <ele>-0.19999999999999</ele>
        <time>2025-07-03T10:58:30Z</time>
      </trkpt>
      <trkpt lat="46.22415" lon="-1.44055">
        <ele>-0.19999999999999</ele>
        <time>2025-07-03T10:58:31Z</time>
      </trkpt>
      <trkpt lat="46.2241" lon="-1.44063">
        <ele>-0.39999999999998</ele>
        <time>2025-07-03T10:58:36Z</time>
      </trkpt>
      <trkpt lat="46.22399" lon="-1.44077">
        <ele>-0.60000000000002</ele>
        <time>2025-07-03T10:58:47Z</time>
      </trkpt>
      <trkpt lat="46.22394" lon="-1.44081">
        <ele>-0.80000000000001</ele>
        <time>2025-07-03T10:58:51Z</time>
      </trkpt>
      <trkpt lat="46.22393" lon="-1.44082">
        <ele>-0.60000000000002</ele>
        <time>2025-07-03T10:58:52Z</time>
      </trkpt>
    </trkseg>
  </trk>
</gpx>